GFSSE_500_spd_000.txt.gz
Wind_Speed
20 19 21 22 23 24 26 24 21 17 19 20 20 19 17 16 14 12 10 8 8 8 9 9 9 10 10 9 9 10 10 10 9 10 9 9 8 11 12 11 11 11 11
15 15 18 17 20 21 19 22 20 19 18 18 17 16 14 14 12 8 9 8 7 8 8 8 9 10 10 10 8 10 10 10 10 9 8 9 9 8 10 12 11 10 10
13 16 15 17 19 19 22 19 19 17 15 14 15 14 14 12 10 8 8 10 10 10 8 8 9 10 10 10 9 9 11 10 9 10 9 7 8 8 9 11 10 11 9
14 16 17 17 18 18 17 16 13 12 13 13 14 13 11 10 9 6 6 9 9 10 9 8 8 8 8 9 7 7 9 11 8 7 8 7 8 8 7 10 7 7 6
14 15 16 16 16 16 15 13 11 12 12 12 12 9 8 8 8 6 6 8 8 8 7 7 7 7 8 8 5 7 7 6 9 8 7 7 6 6 5 7 5 6 8
13 14 13 13 12 11 12 12 11 11 11 10 8 8 7 7 6 5 6 8 8 7 7 7 6 6 8 7 5 5 5 4 6 8 7 8 5 5 3 4 6 6 7
12 12 11 10 11 11 11 11 10 10 9 8 8 8 6 7 6 5 5 6 7 7 7 6 6 5 5 5 5 3 3 3 6 6 3 4 4 4 3 2 3 6 6
10 8 6 8 10 11 11 11 10 9 8 8 9 10 9 8 8 6 4 3 4 6 7 6 5 4 4 2 3 3 3 3 2 6 2 1 1 2 2 2 2 4 5
5 4 6 7 8 10 11 11 11 11 10 11 11 12 14 11 9 6 5 4 3 4 5 5 4 2 2 2 1 1 3 4 5 7 4 4 7 5 2 2 2 3 5
2 3 6 7 8 10 13 12 12 11 10 10 10 10 11 11 10 9 9 8 8 6 6 8 6 4 3 2 3 4 4 6 5 7 9 7 6 6 6 5 3 4 4
3 5 7 9 11 12 12 12 11 10 10 10 9 9 10 11 10 10 10 9 8 5 4 5 7 7 5 4 3 4 6 7 8 9 11 10 9 10 10 10 9 6 5
5 5 10 12 12 11 11 10 10 10 9 10 9 9 10 11 11 11 11 11 11 11 10 10 10 8 8 8 8 6 5 5 7 10 11 12 12 12 13 13 11 11 8
5 9 11 11 10 9 8 8 8 9 9 9 9 10 11 12 13 14 13 14 13 13 12 12 12 11 11 11 11 9 9 8 6 6 8 9 11 11 14 15 15 12 13
11 11 11 10 9 8 8 7 7 9 8 8 8 8 9 11 13 13 12 13 14 14 13 14 14 14 14 14 13 12 11 9 9 8 6 7 8 10 12 14 17 18 18
13 13 13 10 9 7 6 7 7 8 7 7 6 6 6 8 10 10 10 12 12 12 13 13 12 12 11 11 13 13 13 12 11 9 8 7 6 8 10 13 13 16 20
12 12 11 9 8 6 5 6 7 7 5 5 5 5 5 6 7 8 7 8 8 9 10 11 11 11 11 12 11 11 11 12 11 11 11 10 8 9 10 12 14 16 18
12 11 10 8 5 4 4 5 5 6 6 5 4 5 4 3 4 5 6 6 7 8 9 9 9 10 9 10 11 11 12 11 9 9 9 9 10 9 10 12 15 18 18
11 9 8 7 5 4 2 3 2 3 3 3 2 2 2 2 3 5 5 6 7 7 7 9 11 13 13 11 11 12 12 11 11 10 9 9 8 9 10 10 13 15 18
10 10 9 8 8 7 5 4 4 4 2 1 2 1 1 3 3 4 6 7 9 9 8 8 12 13 14 13 13 12 12 12 12 11 12 13 12 10 8 9 10 13 15
11 10 10 9 9 9 9 8 7 5 3 1 3 2 5 5 6 6 6 8 9 11 11 11 13 14 14 13 13 13 13 13 13 12 11 13 14 13 12 11 14 13 12
11 12 12 11 10 10 9 8 5 5 5 5 7 5 7 8 10 11 10 12 13 13 12 12 13 12 12 12 12 14 13 13 12 12 12 13 14 14 14 13 11 14 14
12 13 13 12 13 12 12 11 9 7 6 6 7 7 8 10 13 16 15 14 15 15 14 13 13 11 11 12 12 12 13 12 12 11 11 13 16 14 16 17 16 15 16
11 13 14 14 14 13 13 11 9 9 8 9 10 11 13 16 21 22 21 19 18 17 16 15 14 14 12 13 12 11 12 13 12 12 12 13 15 15 16 20 20 20 18
13 13 14 14 14 15 13 12 13 13 13 13 14 16 19 23 22 20 21 21 19 18 19 17 18 18 15 14 13 13 13 16 16 15 14 13 14 16 18 18 20 23 23
14 14 15 16 17 17 16 17 17 18 18 20 21 22 25 24 22 22 23 21 19 18 18 19 19 19 17 16 14 15 16 18 19 19 17 14 14 16 16 18 20 21 25
18 18 18 18 20 19 18 19 21 21 21 23 25 23 22 21 21 21 21 21 21 21 19 17 18 20 20 19 17 18 19 19 22 22 21 20 19 19 23 24 25 27 28

GFSSE_500_spd_003.txt.gz
Wind_Speed
18 18 20 22 23 20 19 18 18 15 16 15 14 13 12 11 9 8 7 6 6 6 6 6 6 6 5 7 9 10 11 10 9 9 9 8 7 8 8 9 9 9 9
11 11 16 19 14 20 12 17 17 16 16 16 14 11 10 8 8 7 6 6 4 3 5 5 5 5 7 7 8 9 11 11 8 8 8 7 7 5 6 8 8 7 7
8 11 13 14 18 16 17 17 15 14 14 13 10 9 8 6 6 5 6 7 6 5 5 6 5 4 8 6 7 7 9 11 8 7 7 5 5 6 4 7 8 6 7
11 14 17 18 17 15 15 13 12 10 10 10 10 8 6 4 3 3 5 5 6 7 7 6 6 5 6 6 6 8 8 6 4 5 6 4 4 3 2 4 6 3 4
12 14 16 15 13 12 11 10 9 8 8 8 8 5 4 3 1 2 3 4 5 7 7 5 4 5 5 4 6 6 4 5 5 5 4 4 3 3 2 2 4 4 3
12 12 12 11 10 9 8 9 8 7 6 6 4 3 4 4 2 3 4 6 6 8 7 4 2 4 4 2 4 5 4 5 3 4 7 5 4 4 3 1 4 4 5
12 11 9 7 7 7 7 8 6 6 6 5 4 3 5 5 4 4 6 7 8 7 7 6 5 3 2 2 2 3 2 3 2 3 5 3 4 2 3 1 0 2 4
10 8 6 5 6 7 7 7 6 5 7 8 6 6 6 5 5 3 3 4 7 7 5 7 5 4 3 1 1 0 1 1 1 4 2 0 1 1 1 1 1 2 4
6 6 5 6 6 7 8 8 8 9 9 10 10 10 9 8 6 4 4 3 3 5 6 6 3 2 2 2 2 2 2 5 6 6 6 4 6 5 3 2 3 3 4
4 5 6 6 7 8 10 10 10 10 10 10 11 11 11 10 9 7 7 6 5 3 5 6 5 3 2 1 0 1 3 5 7 7 8 7 6 6 7 5 4 3 3
5 6 6 8 9 10 10 9 9 9 9 10 11 12 12 11 10 9 8 6 5 5 7 8 8 7 7 5 4 4 3 4 5 7 10 12 9 8 8 10 10 8 5
6 6 10 13 11 11 9 8 7 9 10 12 14 14 14 13 13 13 13 13 12 12 12 12 11 11 11 10 9 8 6 4 4 5 8 8 11 11 10 11 11 10 9
8 10 12 12 11 10 8 7 7 8 10 12 14 16 15 14 14 15 14 14 13 13 14 14 14 13 12 11 11 10 10 9 7 6 5 6 7 7 8 10 11 12 10
12 13 12 10 10 9 8 8 7 8 10 11 11 12 13 13 13 13 12 13 13 13 14 13 13 13 12 13 12 12 11 10 9 9 8 7 5 7 6 7 9 15 20
14 12 12 9 7 7 7 8 8 8 8 7 6 8 10 10 11 10 10 11 11 11 11 11 11 10 9 9 10 11 10 10 10 10 9 8 8 5 6 8 8 14 17
13 13 10 8 6 6 6 7 7 7 5 5 3 4 6 8 7 7 7 7 7 7 7 9 9 10 11 11 11 10 10 10 8 8 9 10 9 8 6 6 8 11 16
13 11 10 8 6 6 6 5 5 4 5 4 3 3 3 3 5 4 6 5 5 6 7 8 9 10 10 11 11 11 11 11 9 9 8 7 9 8 8 8 9 9 12
11 10 8 8 5 4 2 1 2 2 3 3 4 3 1 1 2 4 4 5 6 7 8 10 10 12 14 13 13 13 13 12 12 11 10 8 6 7 8 8 9 10 11
9 9 9 7 5 4 4 3 4 4 3 1 1 1 1 1 1 2 4 6 8 10 11 12 14 14 14 14 15 15 13 13 13 12 11 10 9 6 6 10 11 10 12
9 9 8 7 6 7 8 7 8 7 4 3 2 2 4 3 3 3 5 7 9 12 14 14 15 15 15 14 15 15 14 13 14 14 13 13 12 11 9 8 11 14 13
11 11 11 10 9 9 9 8 6 4 5 5 6 6 5 7 9 9 9 12 13 14 16 17 15 15 14 14 14 14 14 15 14 13 14 15 15 15 14 13 14 15 14
13 13 13 12 10 11 10 9 9 8 8 7 8 9 9 9 12 14 16 17 17 18 18 16 17 15 15 15 15 14 13 13 14 13 13 15 17 16 14 13 15 17 15
13 15 15 13 12 12 12 10 10 9 9 10 11 12 12 14 17 21 18 17 19 20 19 17 18 18 17 17 18 17 16 14 14 13 15 16 17 18 17 15 15 17 18
15 14 14 14 14 14 13 13 14 12 13 14 15 17 18 19 22 23 20 21 21 22 21 20 19 20 20 19 19 20 18 18 17 15 14 15 15 17 19 18 19 19 20
14 15 16 15 16 17 16 15 15 15 17 18 20 22 23 25 24 24 24 23 22 22 23 23 23 21 21 20 22 21 22 22 21 21 20 16 14 15 17 18 21 21 22
15 16 18 18 19 20 19 18 18 18 19 22 24 24 23 23 24 25 25 24 24 25 25 26 26 24 21 22 24 24 24 25 26 25 25 22 20 17 16 18 20 24 25

GFSSE_500_spd_006.txt.gz
Wind_Speed
18 20 20 19 13 18 18 15 11 10 12 10 10 9 7 6 5 4 5 6 6 6 5 5 5 6 8 10 11 11 11 12 11 11 10 9 9 8 9 9 9 9 9
9 10 12 18 18 16 13 14 12 12 12 11 10 8 6 4 3 6 7 7 7 6 3 4 5 5 6 8 9 10 11 11 11 10 11 10 10 8 8 7 6 5 5
12 11 19 16 17 17 14 11 11 11 11 10 8 5 3 3 7 9 10 10 10 6 4 3 5 4 5 5 8 8 10 12 10 11 7 7 7 8 7 8 7 5 3
16 19 19 17 16 13 10 11 11 9 9 7 6 3 3 4 7 9 9 10 10 7 6 5 6 5 4 5 6 7 6 6 8 7 7 5 5 4 6 6 6 7 4
16 16 15 14 12 10 9 10 9 7 6 5 3 2 3 4 6 8 9 9 8 8 8 8 6 5 5 5 3 3 5 5 6 6 5 3 3 3 2 1 1 2 1
14 13 12 10 10 9 9 9 8 6 5 4 2 3 3 5 6 8 10 9 8 9 9 8 5 4 4 4 3 2 3 2 3 6 4 5 2 2 2 2 1 2 3
12 10 9 9 9 9 8 7 8 6 5 4 3 3 3 4 5 8 9 8 10 10 9 7 6 4 3 2 2 1 2 3 3 5 4 3 3 2 3 2 1 0 2
9 8 8 8 8 7 6 7 8 8 8 6 5 5 5 5 5 5 5 6 6 7 5 6 6 4 3 2 0 0 0 1 2 6 2 5 4 4 3 2 2 1 2
6 7 6 6 6 5 7 9 10 9 9 9 10 10 9 7 4 4 5 5 4 6 5 5 3 2 2 2 1 1 1 2 3 7 8 1 2 4 5 4 3 3 2
4 6 5 4 5 7 8 10 9 10 11 11 11 11 10 10 8 7 6 7 6 6 7 7 6 6 4 4 2 3 3 5 6 16 14 4 3 4 6 6 2 3 3
4 5 6 6 9 8 8 9 9 10 11 10 11 11 9 13 13 10 8 9 10 10 10 11 11 10 9 6 5 4 4 4 7 8 6 5 5 6 7 8 7 4 4
6 7 8 9 10 8 8 9 10 12 13 13 14 14 16 18 15 15 13 13 14 15 15 12 12 13 13 12 11 9 8 7 7 7 7 6 6 6 9 13 9 7 5
7 9 11 10 9 7 7 9 11 13 14 14 15 16 16 14 12 12 10 2 16 15 15 12 12 14 14 14 15 14 12 12 10 9 9 5 4 6 9 9 10 12 7
11 13 11 9 8 9 8 9 11 11 12 12 12 13 14 10 15 10 8 12 15 11 10 11 10 11 11 12 12 12 12 12 12 11 11 9 5 4 5 5 11 12 12
14 13 12 11 9 8 9 10 10 9 10 10 9 10 10 10 12 11 11 11 11 10 10 10 11 10 10 10 9 10 10 9 9 10 11 11 9 6 5 5 8 9 9
14 13 11 10 9 10 9 9 8 6 6 7 6 6 8 7 8 9 6 5 5 6 7 8 9 9 10 11 11 10 10 11 10 9 9 10 10 10 9 6 6 8 8
13 11 10 9 8 8 8 8 7 3 3 3 2 4 4 4 4 5 3 4 4 7 8 9 9 12 12 12 13 12 12 11 11 10 9 8 9 9 10 10 7 7 8
11 10 9 8 7 5 6 4 4 5 4 2 2 1 1 2 2 2 3 4 5 8 10 11 11 12 12 13 14 13 13 13 12 12 11 9 7 8 10 11 10 10 11
11 9 7 6 4 4 3 2 1 2 2 1 1 1 1 2 2 4 4 6 7 8 11 14 15 16 16 16 14 15 13 13 13 14 13 11 9 7 10 10 12 12 11
10 8 6 5 3 4 4 3 4 5 3 2 3 2 3 1 6 5 8 9 11 14 14 15 15 16 16 17 14 15 14 14 13 14 13 12 11 10 9 12 11 13 14
10 9 7 6 5 5 6 5 4 2 3 4 3 3 4 5 9 9 11 14 16 18 19 19 18 17 17 17 17 15 17 15 13 15 13 13 12 12 12 12 11 13 14
11 10 10 9 8 7 6 5 6 6 5 5 6 6 8 10 12 14 17 20 20 19 21 22 21 19 17 18 17 16 15 15 16 14 15 14 14 13 12 13 10 13 15
11 13 13 11 10 10 9 8 8 7 6 7 9 10 12 14 16 18 21 22 22 22 23 24 24 23 21 19 19 19 18 18 17 15 16 18 17 16 14 14 16 12 12
14 14 14 15 14 14 12 12 11 10 10 10 12 14 16 18 20 21 22 23 23 24 24 24 23 24 25 24 22 22 19 21 21 21 17 17 20 25 17 16 17 17 15
15 16 17 16 15 16 15 15 14 13 14 14 16 17 20 20 20 22 22 22 22 24 24 26 26 25 27 27 25 22 24 23 24 25 25 22 19 16 25 22 19 21 22
21 17 16 17 18 18 18 18 17 18 17 17 18 18 18 19 20 19 19 19 18 20 20 21 22 23 25 26 27 27 26 26 26 27 29 29 28 25 20 22 24 23 21

GFSSE_500_spd_009.txt.gz
Wind_Speed
14 17 17 14 12 15 15 13 10 9 8 8 9 7 6 6 7 8 6 7 5 7 9 7 6 10 11 12 13 12 12 12 12 11 12 12 11 9 10 11 11 10 9
13 15 15 14 14 14 13 11 11 10 10 10 8 7 6 8 9 8 9 7 5 7 8 6 5 7 8 11 12 11 11 12 12 12 13 12 13 10 9 11 8 9 8
13 18 19 20 17 14 10 9 11 10 9 8 7 7 8 8 7 8 10 9 9 9 7 6 5 6 6 8 9 9 11 12 12 9 8 8 10 10 10 11 8 7 6
21 19 18 16 14 11 8 8 10 10 8 7 6 5 6 6 5 9 9 9 11 11 9 7 7 6 6 6 7 8 6 8 9 8 7 8 7 9 8 8 9 8 7
17 16 14 13 12 10 9 10 10 9 7 5 4 3 5 5 8 9 10 10 11 9 8 8 9 7 5 5 4 5 5 6 6 7 8 4 5 7 6 5 3 3 3
14 12 12 12 11 10 10 11 9 8 6 4 3 3 5 7 8 10 11 12 11 11 11 10 8 7 5 3 3 4 3 1 5 3 7 9 6 6 5 5 3 2 3
11 11 11 10 11 10 11 10 9 8 6 5 3 4 6 7 8 9 11 12 11 10 12 10 8 6 4 2 1 1 2 2 5 7 13 9 7 6 4 6 5 3 3
10 10 10 9 10 11 12 11 10 9 9 8 8 8 8 8 9 9 9 8 9 10 9 8 7 6 4 1 1 1 2 0 4 2 6 6 7 6 4 2 4 4 2
8 9 9 9 11 12 13 12 12 12 13 12 11 11 10 8 8 8 8 8 9 9 10 8 7 5 4 4 4 4 4 4 8 11 7 10 3 3 1 1 2 3 2
7 8 9 10 11 12 12 12 13 13 13 12 12 11 10 10 9 10 9 10 12 11 13 13 11 9 7 5 5 5 7 8 9 13 10 4 3 5 4 7 5 4 4
7 8 11 12 12 12 12 13 13 13 12 12 13 11 10 12 12 12 14 15 15 14 15 15 13 13 12 10 9 11 12 13 13 11 9 5 5 6 8 10 9 6 6
7 10 12 12 11 12 13 14 15 13 14 14 13 13 14 18 14 12 16 17 17 15 14 15 16 15 16 13 13 14 15 13 12 13 10 8 5 5 9 3 10 6 6
8 11 13 12 10 12 14 16 15 15 14 14 14 12 17 11 12 18 11 13 9 12 12 13 14 14 15 13 12 13 14 15 14 14 14 12 7 6 7 8 9 14 9
10 13 11 11 10 11 14 15 13 12 12 11 14 13 14 8 10 11 13 14 13 10 10 12 13 13 12 11 11 11 11 12 13 13 14 14 14 12 9 9 7 9 2
12 12 12 12 11 13 13 14 12 10 10 9 9 9 13 11 11 9 10 13 11 8 10 12 12 12 11 10 10 10 10 10 11 11 12 12 13 12 11 9 9 8 6
11 12 12 11 11 12 12 11 10 8 7 7 7 6 8 9 9 10 10 9 7 9 12 12 11 12 11 11 11 10 9 9 9 10 10 10 10 10 9 10 9 8 7
11 11 13 10 10 11 11 9 7 6 5 6 6 5 5 6 7 7 7 8 10 12 13 13 14 13 13 13 11 10 11 10 9 10 10 9 9 9 8 8 8 7 7
13 11 10 11 10 10 8 7 7 7 5 4 3 2 2 3 4 6 7 7 9 12 13 14 16 16 16 15 14 11 10 9 9 9 8 8 8 9 8 8 9 9 10
12 12 10 7 7 6 6 6 5 4 3 3 2 1 4 4 4 6 7 9 10 11 13 15 16 17 17 17 15 14 12 10 9 9 9 8 7 9 9 9 10 10 12
10 10 9 7 4 5 4 3 2 1 2 3 1 0 2 4 5 7 9 11 13 16 17 18 18 18 18 18 17 15 14 12 10 9 8 8 7 10 10 10 9 9 11
8 7 6 4 3 2 2 1 1 2 2 4 4 3 4 5 7 10 13 15 18 18 18 18 19 20 21 18 16 18 17 13 13 10 10 9 7 8 8 12 11 9 10
8 8 7 5 4 4 4 3 2 3 3 3 2 2 5 8 11 13 16 19 20 19 20 19 18 19 19 19 18 16 16 17 15 16 14 13 12 11 9 8 11 11 12
9 10 8 7 8 7 7 6 5 6 6 4 3 5 8 11 14 16 17 17 16 16 16 17 16 16 17 18 18 18 17 16 16 12 17 17 17 15 13 12 10 11 14
11 10 10 11 11 12 10 11 9 9 10 7 4 6 8 12 14 15 16 15 14 14 15 17 20 21 19 19 20 20 20 19 18 17 16 14 23 22 17 19 16 13 14
12 14 14 13 12 15 14 14 12 12 11 10 9 7 9 10 11 12 13 14 14 15 16 19 19 19 20 21 20 19 19 21 21 21 21 20 18 22 29 25 21 22 18
17 17 16 16 16 16 17 16 16 16 14 13 11 10 9 12 10 10 12 11 14 14 17 21 21 24 26 20 17 18 18 19 22 24 25 26 26 25 21 25 30 24 22

GFSSE_500_spd_012.txt.gz
Wind_Speed
13 15 15 13 16 15 13 12 8 7 6 6 8 9 9 9 8 8 7 8 7 7 7 10 9 10 12 11 12 11 10 9 9 11 11 12 12 11 12 11 11 10 7
17 14 15 14 13 13 12 11 9 8 7 8 10 10 9 9 12 9 8 9 6 6 7 8 8 8 12 11 11 11 9 10 11 12 14 13 14 11 14 13 13 11 9
16 17 17 15 13 12 11 10 9 9 7 9 9 8 9 10 10 8 8 10 8 7 7 6 6 6 9 10 8 10 8 8 8 9 10 12 13 13 13 12 12 11 10
18 18 16 13 11 11 11 10 9 8 8 8 7 7 8 8 7 7 8 9 8 8 8 6 5 6 7 7 7 8 6 6 7 6 7 10 9 11 12 13 12 11 9
16 14 13 12 11 10 10 8 8 8 7 5 5 5 7 7 9 10 9 8 8 8 7 7 6 7 7 7 4 5 3 3 5 7 7 7 8 8 7 8 8 8 9
14 12 11 11 12 10 9 8 8 7 5 5 5 5 7 10 11 11 10 10 10 9 7 7 7 6 5 6 5 1 3 7 11 11 11 8 7 8 7 6 5 6 7
13 11 11 11 11 11 9 9 7 6 7 5 5 7 9 10 9 11 11 12 11 9 9 8 7 6 4 5 4 2 7 12 21 12 16 10 7 7 7 6 5 5 4
11 11 11 11 12 11 10 10 9 9 9 10 9 10 10 9 11 13 13 12 11 9 9 8 9 9 8 7 6 7 9 13 18 16 13 11 8 5 4 4 4 3 4
8 11 12 12 13 12 12 12 12 12 13 13 13 12 11 12 15 15 13 12 11 11 11 13 11 10 9 8 8 8 10 12 12 16 5 15 3 2 2 2 2 1 2
8 10 13 13 13 12 13 14 14 14 13 13 13 12 13 13 15 15 13 15 15 17 17 17 16 15 12 11 12 9 9 12 15 14 11 4 2 3 2 2 2 2 1
7 11 14 13 13 13 13 14 14 14 14 13 15 18 16 18 18 18 18 17 17 16 17 18 18 17 15 16 17 16 13 17 15 14 12 7 5 6 4 4 6 6 4
8 13 14 14 14 14 14 14 14 15 15 17 16 15 17 19 17 17 16 17 17 15 15 17 16 16 16 14 15 16 14 15 14 15 16 12 8 5 4 6 10 9 8
11 14 14 14 13 15 15 14 17 17 15 16 17 15 14 16 14 11 15 12 14 13 13 13 13 14 13 13 12 11 11 10 12 14 14 13 12 8 7 6 7 13 10
13 14 13 14 13 16 14 14 16 15 15 15 15 16 13 12 16 11 13 13 13 13 13 13 14 13 11 10 11 10 9 9 9 10 11 12 11 11 9 8 6 7 1
15 14 13 13 14 15 13 12 13 13 13 14 13 13 15 13 11 11 10 11 12 12 11 12 13 12 11 12 11 11 11 9 9 9 8 10 10 10 9 8 7 6 6
14 15 14 11 13 15 13 10 9 9 11 11 12 10 11 9 9 8 10 10 10 10 11 11 10 12 14 14 14 14 11 11 9 8 8 8 8 8 8 7 7 7 5
16 13 13 10 11 11 11 8 8 8 7 9 8 7 6 7 9 9 8 7 8 8 10 12 12 12 13 13 13 13 12 11 10 10 9 7 6 6 7 7 6 6 7
14 15 13 11 12 11 10 9 9 9 8 6 7 4 5 5 6 6 7 9 9 12 13 14 13 14 14 13 12 11 11 11 10 10 11 8 7 6 6 6 7 6 7
14 13 12 13 12 10 10 8 7 5 6 4 4 3 3 4 5 7 8 9 11 12 14 15 16 16 14 14 11 10 10 10 11 10 10 10 8 7 7 7 7 6 8
13 12 11 8 8 8 7 6 4 4 4 4 1 3 4 5 7 8 9 11 15 16 14 14 14 15 15 14 13 11 8 8 9 8 8 10 10 9 7 7 7 6 8
12 9 7 6 5 4 5 4 3 5 5 3 2 1 4 5 7 8 12 15 16 14 13 14 15 15 13 14 12 12 10 8 9 8 7 6 8 11 11 9 7 6 7
10 8 7 5 4 4 3 3 3 5 5 5 3 2 2 4 7 10 12 13 14 15 14 16 17 18 18 16 14 11 11 9 12 9 10 11 8 7 9 11 12 11 10
9 9 8 7 5 4 4 5 4 4 4 4 3 2 2 4 7 9 10 13 15 17 17 17 20 21 19 18 17 14 13 11 9 13 12 13 14 13 11 10 13 15 14
5 5 6 8 9 8 6 6 6 5 6 6 5 4 5 7 7 8 11 12 14 14 14 16 17 19 20 20 19 17 14 14 11 11 11 15 17 16 17 16 13 17 17
4 6 7 7 6 8 9 10 8 10 9 8 9 9 10 9 12 11 11 10 10 9 9 11 13 16 19 19 15 12 13 13 13 13 13 13 16 20 19 20 22 18 17
5 8 9 11 11 10 9 12 13 13 11 11 11 12 12 12 15 11 7 6 7 6 13 14 15 16 23 21 9 7 10 11 13 15 15 16 16 17 22 25 23 23 23

GFSSE_500_spd_015.txt.gz
Wind_Speed
12 12 13 13 12 11 10 9 8 8 8 7 7 8 11 11 10 10 8 7 9 8 7 8 9 10 9 9 8 8 7 6 5 8 10 11 11 12 12 14 15 14 14
12 12 11 12 10 10 9 9 9 8 9 8 7 10 9 10 10 11 8 8 8 8 6 6 8 7 6 9 7 6 5 6 7 10 12 12 11 12 12 14 13 11 11
15 14 13 11 10 9 10 10 8 9 8 6 7 8 9 9 10 9 8 8 8 7 7 7 8 7 6 7 7 6 5 5 6 6 11 13 14 12 12 13 12 9 8
15 15 12 10 10 10 10 9 7 7 8 7 8 9 9 9 8 8 8 7 7 6 6 6 6 7 6 5 5 5 6 4 2 4 6 11 14 12 11 10 9 8 6
11 12 11 9 9 11 9 8 6 6 7 6 8 9 10 10 9 9 8 8 7 8 8 7 6 6 5 2 2 4 3 2 2 2 5 8 8 10 10 8 7 7 6
10 10 8 9 9 9 8 7 5 6 5 8 10 9 10 11 11 9 10 10 12 11 9 8 10 7 4 2 5 6 8 14 14 9 5 8 5 5 7 5 4 4 4
10 9 8 9 9 9 8 7 7 7 8 11 10 11 11 12 11 10 11 13 13 11 11 10 10 7 5 4 6 7 9 13 23 19 8 8 8 6 6 4 4 6 5
10 10 8 9 8 9 8 9 9 11 13 13 13 14 12 12 11 10 11 13 15 14 13 10 10 8 7 9 9 10 11 12 14 8 12 9 8 8 7 5 4 4 5
7 9 10 9 10 11 11 13 13 14 15 16 15 15 15 14 12 15 17 18 21 19 18 15 13 12 12 12 13 14 15 13 14 14 19 10 6 5 4 4 3 4 3
7 10 11 11 11 13 14 14 14 15 15 15 15 15 15 15 17 18 20 21 21 20 20 16 17 17 16 15 16 18 17 16 16 13 9 12 12 6 4 2 2 4 4
7 10 11 11 12 13 14 14 15 16 19 18 19 19 18 19 19 20 20 20 19 19 19 18 17 16 16 17 17 18 18 19 19 16 9 4 9 7 3 3 5 5 3
8 11 10 12 14 15 15 14 14 16 17 16 19 17 20 18 18 17 18 17 16 15 15 15 13 14 13 14 15 16 16 16 17 16 15 12 7 6 2 2 5 11 7
11 13 13 13 16 15 15 15 17 17 17 18 17 19 17 15 16 14 14 15 13 12 12 11 11 11 11 12 13 12 12 12 13 13 13 14 12 8 4 5 5 10 11
13 14 13 14 17 14 17 16 17 18 16 17 17 16 17 15 14 13 13 12 11 11 11 11 11 11 12 11 10 8 10 9 10 11 11 11 10 10 8 5 4 3 12
16 15 13 16 18 14 16 16 15 16 16 16 15 16 14 13 12 12 11 10 10 10 9 9 9 10 12 11 12 11 10 9 9 9 9 9 8 7 7 6 7 6 7
16 15 14 16 16 13 14 15 14 13 12 12 12 12 12 13 12 9 8 8 8 10 10 9 10 10 8 8 9 9 9 8 8 8 8 8 7 6 6 5 5 6 4
16 15 13 14 14 11 12 12 12 13 11 9 9 10 10 10 9 7 8 9 9 9 9 9 9 9 9 10 8 7 7 7 8 9 7 6 6 6 5 4 4 3 4
16 15 12 13 14 12 10 10 11 12 12 9 7 8 7 7 5 5 6 7 9 11 12 11 12 11 10 9 7 4 4 5 6 7 8 7 6 6 6 6 4 3 5
15 14 11 12 14 12 10 10 10 9 9 8 6 5 4 5 4 4 4 5 7 10 9 10 10 11 13 12 9 6 4 3 3 5 6 6 6 6 6 6 5 5 5
12 12 11 10 11 11 10 8 8 7 6 5 5 3 5 4 3 2 4 8 11 12 12 13 14 14 14 15 13 9 6 4 4 3 5 6 6 5 5 6 6 7 7
11 10 10 10 9 9 9 8 8 10 11 6 4 4 4 4 1 5 8 10 12 15 17 17 16 16 15 15 14 13 11 7 7 5 5 5 7 7 7 6 6 6 8
14 12 10 9 8 8 7 6 7 8 6 5 6 4 1 1 3 6 9 12 14 17 16 16 16 17 18 17 15 12 12 12 10 9 9 7 7 8 9 9 8 9 9
11 10 10 10 8 7 6 6 5 6 6 5 4 4 3 4 6 8 11 12 15 15 13 14 17 19 21 22 18 11 10 10 11 11 11 11 10 10 10 10 12 11 11
12 11 10 10 8 5 6 6 6 6 7 6 7 6 6 6 9 12 12 13 14 11 11 12 15 15 20 18 11 8 6 8 9 11 12 11 12 13 13 14 15 15 15
11 11 10 8 7 5 5 6 6 9 9 8 8 9 9 8 13 14 12 10 9 10 9 12 10 12 18 20 12 8 7 8 9 9 11 14 17 17 16 17 19 19 21
10 9 8 9 8 7 8 8 9 11 11 12 12 11 12 13 15 14 10 8 8 9 9 11 11 13 14 17 15 13 11 11 12 13 14 14 14 17 19 21 24 25 23

GFSSE_500_spd_018.txt.gz
Wind_Speed
12 15 10 7 8 11 10 7 7 8 11 11 10 11 11 11 10 9 9 10 10 10 9 9 7 9 10 9 9 9 9 8 8 7 9 8 10 12 15 19 16 13 11
16 9 10 8 10 8 8 7 9 10 10 10 10 11 11 12 12 10 11 8 8 8 7 7 7 9 10 10 8 8 8 9 8 9 9 11 10 11 14 16 14 12 10
10 10 10 9 8 7 7 7 10 10 9 10 11 12 12 13 12 11 10 10 9 8 6 4 7 9 9 9 8 8 6 5 6 8 9 13 11 12 14 14 12 10 8
10 11 9 8 7 7 6 9 9 9 11 12 13 13 13 13 12 12 12 12 11 9 7 6 7 7 9 7 6 7 6 3 3 5 8 12 13 11 11 11 10 9 8
10 9 7 5 6 7 7 8 8 9 12 13 13 15 15 13 12 13 15 13 11 10 10 10 9 8 7 6 6 6 7 2 2 3 6 11 12 11 11 10 8 7 6
8 6 4 5 6 7 8 8 9 9 12 13 15 15 14 13 14 13 12 12 14 13 12 11 10 11 7 7 7 7 9 14 5 11 7 10 10 10 9 9 8 7 6
7 5 5 5 6 7 10 9 9 9 13 15 17 14 13 14 14 12 11 12 13 15 13 12 12 12 10 9 9 10 10 12 7 15 9 8 9 9 9 7 7 8 7
5 6 6 6 8 9 9 9 11 13 15 17 16 13 13 14 13 12 14 16 16 17 16 15 14 13 11 11 12 11 11 10 7 18 9 7 7 7 7 6 7 8 8
5 6 7 8 10 10 10 12 15 17 19 17 17 15 15 14 15 18 19 20 21 21 20 20 17 17 17 17 15 16 15 14 13 22 9 7 6 6 5 4 5 7 8
6 6 8 10 11 12 13 15 17 18 18 18 17 16 17 18 20 20 19 20 21 22 21 20 19 20 20 19 17 17 18 18 16 17 10 8 9 7 6 4 3 4 5
5 7 9 10 12 12 14 17 18 18 19 19 20 21 19 18 19 18 19 18 18 19 18 17 17 15 15 16 15 15 16 16 16 10 4 4 6 16 6 5 3 2 4
6 10 10 11 13 13 15 17 17 20 20 20 22 20 19 18 17 16 15 15 14 15 15 14 13 14 12 13 14 13 12 12 13 13 11 7 5 5 8 4 4 10 7
6 10 12 13 14 14 16 18 18 17 19 20 19 16 18 16 15 14 14 13 13 13 14 13 12 13 13 12 12 11 10 10 10 10 10 9 9 5 3 7 5 6 10
9 11 12 16 14 15 17 19 19 19 19 20 19 20 16 15 14 12 13 13 13 11 11 11 11 12 10 11 11 9 10 9 9 9 8 8 8 7 6 4 5 5 9
11 13 13 18 15 16 17 19 18 18 18 18 16 15 14 14 13 13 12 12 10 9 10 10 11 11 10 9 8 8 9 9 9 9 8 7 7 7 7 5 4 6 7
13 13 15 18 14 16 15 17 16 16 16 15 14 13 13 12 12 11 10 8 7 7 7 9 9 9 10 9 7 5 6 7 8 9 9 8 7 7 5 4 4 5 4
16 14 17 18 14 15 15 14 14 13 13 13 13 11 11 10 9 9 8 6 7 8 8 8 7 7 7 6 5 6 3 3 4 8 9 8 6 7 6 4 3 2 3
15 16 16 17 15 15 15 13 12 11 10 10 9 8 7 7 6 7 4 5 6 9 10 8 8 8 7 7 6 5 4 2 1 3 5 7 5 6 4 4 4 2 2
18 17 17 17 16 14 12 13 13 11 9 10 8 7 7 6 4 3 2 5 9 11 12 11 11 11 9 8 7 7 6 5 4 2 1 4 7 5 5 4 4 5 6
19 17 14 17 17 14 12 12 11 13 11 9 8 7 7 4 2 1 4 7 10 13 14 14 12 10 11 10 10 8 6 7 7 6 4 3 2 5 6 6 5 5 5
15 14 13 15 15 13 13 12 10 11 11 8 7 7 5 2 1 2 5 8 12 14 15 16 16 17 17 14 11 9 8 8 8 8 9 6 4 3 4 5 6 7 7
16 15 14 13 15 13 11 10 10 10 8 8 7 6 4 2 4 7 9 12 13 15 14 15 15 18 20 19 12 7 6 7 8 9 9 10 9 8 7 8 8 8 9
13 10 9 10 9 10 10 10 9 10 8 8 7 6 4 3 5 8 10 12 13 11 12 12 18 21 22 22 12 5 7 6 7 8 9 10 11 11 11 12 12 12 12
15 14 11 9 8 8 10 12 11 9 9 9 9 8 6 5 7 10 12 12 11 9 11 12 17 17 20 21 15 11 9 7 8 9 8 9 11 12 13 14 16 16 16
11 12 14 14 12 11 12 13 13 13 11 11 11 9 8 9 10 11 11 11 11 9 10 12 16 13 14 18 17 14 12 10 8 9 10 12 12 14 15 16 16 17 19
16 14 13 13 15 14 15 15 16 15 13 12 12 11 10 11 11 12 12 12 11 7 8 11 12 12 12 13 14 12 12 13 13 12 12 12 14 16 18 19 21 24 24

GFSSE_500_spd_021.txt.gz
Wind_Speed
12 9 9 7 8 10 8 7 6 8 13 14 13 12 12 11 11 11 10 9 10 11 11 13 12 11 10 10 9 9 8 8 8 8 5 6 9 13 19 18 14 13 11
11 8 9 6 11 9 7 7 8 11 12 12 13 13 13 12 13 12 11 10 10 10 11 12 11 10 9 10 9 7 8 9 8 7 7 9 11 15 17 15 13 11 9
9 10 9 8 7 7 6 7 9 11 12 13 13 14 14 14 14 13 13 11 12 11 10 11 9 9 9 9 8 8 6 6 6 7 10 12 14 17 17 14 12 10 7
9 9 8 6 6 6 5 7 10 12 13 14 16 16 16 15 13 13 14 13 13 11 11 10 8 8 8 7 5 5 5 4 4 7 9 13 14 15 14 13 11 9 7
8 7 5 5 5 6 6 8 11 12 14 16 17 17 16 14 14 14 15 15 14 13 12 10 9 7 5 3 2 1 5 1 6 8 11 11 13 13 12 10 9 8 7
7 5 5 5 6 6 7 10 11 13 15 17 18 17 15 15 16 16 16 15 13 14 13 10 9 9 6 5 5 7 7 5 13 10 12 12 12 13 12 10 8 8 7
7 5 6 6 7 7 8 10 11 14 15 16 18 17 15 14 15 16 16 14 13 14 15 13 12 10 10 8 7 7 9 12 12 15 12 11 11 9 8 7 7 7 6
5 5 7 7 7 8 10 11 14 16 16 16 18 16 14 15 17 18 18 16 18 17 16 15 13 13 13 12 13 13 12 8 16 14 10 9 10 10 8 7 6 7 5
4 4 7 8 9 11 12 14 16 18 17 17 17 16 16 20 20 20 20 21 21 20 21 21 19 18 16 15 16 17 17 12 11 11 8 6 7 8 8 7 6 7 7
6 6 7 8 11 13 14 15 17 17 19 18 17 17 19 20 21 23 22 23 22 21 21 20 19 16 14 14 13 15 16 17 11 10 5 4 6 9 8 7 7 7 7
7 8 8 9 12 14 15 16 17 18 18 19 19 20 20 19 20 20 20 20 19 18 17 16 14 14 13 12 12 12 13 14 11 3 2 3 12 14 9 7 5 6 7
6 9 9 10 12 15 17 18 18 19 21 21 20 20 19 17 16 17 16 17 17 16 15 13 12 11 11 10 10 11 11 10 10 8 7 6 6 6 11 3 5 14 9
6 9 11 11 12 14 16 19 19 19 22 20 18 16 16 14 14 14 14 14 15 13 13 12 10 9 9 10 9 10 10 9 8 8 8 7 7 5 7 4 4 3 12
8 9 12 14 14 15 17 17 19 20 20 16 17 16 15 13 13 13 13 13 12 12 10 9 8 6 5 6 8 8 8 8 8 7 6 6 7 7 6 3 5 6 10
11 11 14 14 16 16 17 18 17 19 19 18 19 16 14 13 13 12 12 11 10 9 8 6 6 6 5 4 4 4 4 6 7 7 6 5 5 5 3 4 5 6 4
13 12 17 15 18 17 18 18 18 18 18 16 15 15 14 13 11 10 9 9 6 5 5 4 5 5 5 4 4 4 3 3 5 6 7 5 5 5 4 4 4 4 4
17 14 18 17 18 18 18 17 16 16 16 14 14 14 13 11 9 8 7 7 6 7 7 7 7 8 7 6 5 5 4 4 3 4 6 8 7 6 5 4 3 3 4
17 15 19 18 20 18 18 18 16 14 14 13 12 11 10 8 5 5 5 5 7 10 11 10 9 7 7 6 5 5 4 5 6 5 3 6 7 7 6 5 3 3 4
18 15 20 18 20 19 17 16 15 13 13 11 10 9 7 6 3 2 4 7 10 11 12 12 11 9 8 7 6 5 6 6 6 6 5 2 3 3 4 5 5 5 4
19 18 20 18 17 17 15 14 13 12 11 10 9 8 6 4 3 2 5 8 10 12 13 13 13 11 11 10 8 5 4 5 7 7 6 6 5 3 3 4 4 6 7
20 18 18 16 15 13 15 15 14 13 11 10 9 9 7 4 1 3 6 9 10 13 13 13 14 16 17 15 10 6 5 5 6 8 9 8 8 8 7 6 6 7 8
20 20 19 18 17 15 13 12 13 13 12 11 10 8 4 1 4 6 8 10 10 11 12 11 18 21 21 17 10 3 2 5 5 7 9 10 11 11 10 10 10 10 11
20 18 19 19 17 15 14 11 11 12 13 12 10 8 5 2 4 7 9 12 11 10 12 12 18 19 21 19 12 8 5 1 2 4 6 9 11 12 13 14 14 14 15
21 22 19 16 15 13 12 13 12 11 11 11 11 9 6 4 3 4 7 11 11 11 12 11 15 16 17 16 15 12 11 9 6 4 3 4 6 8 10 14 16 17 18
19 17 18 19 17 15 14 15 13 11 12 12 13 13 10 7 6 5 8 11 11 10 10 10 12 12 13 12 13 9 10 10 11 11 10 9 9 9 11 12 14 16 18
21 20 18 16 17 17 18 17 16 17 15 14 15 15 12 11 9 8 8 10 12 11 9 8 10 13 12 10 9 9 9 9 9 8 9 11 11 11 11 12 14 15 17

GFSSE_500_spd_024.txt.gz
Wind_Speed
4 2 0 10 11 9 12 14 15 12 11 11 12 12 13 14 14 13 14 14 14 13 12 11 12 11 10 9 8 6 5 4 5 3 3 4 11 18 21 18 14 13 12
18 8 4 11 8 9 12 14 12 10 10 11 13 13 14 14 13 12 14 13 13 12 11 11 11 10 9 7 7 8 8 7 7 3 4 8 13 18 20 17 14 13 11
9 11 5 6 9 10 12 12 10 10 10 12 14 14 15 15 15 14 13 13 12 10 10 11 11 8 7 6 6 6 6 6 5 4 6 8 14 18 17 15 13 12 9
9 8 6 6 8 9 11 10 10 10 11 14 14 15 15 15 14 14 14 13 12 11 11 9 9 7 6 4 3 4 2 3 6 7 9 11 16 16 14 13 11 10 8
7 5 5 7 7 9 10 9 9 11 13 15 15 16 16 16 15 14 15 13 12 11 10 9 7 6 3 2 4 3 2 5 7 8 10 11 14 14 13 11 9 7 6
7 4 5 7 7 8 9 9 10 12 14 15 17 18 18 17 16 16 14 13 13 12 10 9 7 5 4 3 3 4 3 4 11 12 10 11 12 13 11 10 8 6 6
6 5 6 7 7 8 8 10 11 14 15 17 19 19 18 17 16 15 14 15 13 12 11 10 9 7 8 8 8 9 10 7 17 13 12 10 10 10 10 8 7 7 5
4 7 6 7 7 8 9 12 13 15 16 18 18 19 19 19 18 17 17 15 14 13 13 14 14 15 15 14 14 14 13 9 16 12 10 9 9 8 7 6 6 6 5
4 6 6 8 8 9 11 13 14 16 17 19 20 20 21 21 22 21 20 19 20 18 18 17 16 15 13 14 16 18 16 12 12 10 5 3 7 7 7 6 5 5 4
7 7 6 7 10 12 13 15 15 17 18 20 20 21 22 23 23 23 21 20 20 18 15 15 14 13 12 13 15 16 18 15 9 6 4 6 5 6 6 5 5 5 5
8 8 7 9 11 12 15 15 16 17 17 19 21 21 22 22 22 20 19 18 17 15 13 12 11 10 11 11 13 13 13 14 8 3 2 6 10 9 8 5 4 6 7
8 9 9 10 12 14 15 16 16 17 19 19 20 20 19 19 19 17 16 15 13 12 12 11 9 9 9 10 11 11 11 10 8 6 6 5 5 8 11 4 5 11 11
8 10 11 12 13 14 17 17 18 19 19 18 18 18 16 16 15 14 14 13 12 10 10 10 9 8 8 8 8 9 9 9 7 7 8 9 9 9 12 8 6 8 13
8 9 11 12 14 14 18 19 19 18 17 15 15 14 14 14 14 13 11 10 10 9 8 6 8 8 9 9 7 7 7 8 8 9 9 9 8 7 6 1 5 4 10
9 11 12 13 15 16 18 19 20 18 15 14 14 14 13 13 12 12 10 9 8 7 5 5 4 5 7 8 8 8 6 6 6 9 9 8 7 5 4 3 3 4 2
11 11 14 14 16 17 19 18 18 16 15 15 14 13 13 12 11 9 7 6 5 5 4 5 4 4 5 6 6 7 7 6 4 6 8 7 6 5 4 3 3 4 3
15 14 17 16 16 17 17 17 17 16 14 14 13 13 12 10 10 8 6 5 5 7 5 5 5 4 4 3 5 5 5 5 6 6 6 6 6 6 5 5 4 3 4
17 17 19 17 17 17 18 18 17 15 13 13 14 13 10 9 7 6 5 4 7 9 8 7 5 5 5 5 4 5 5 4 4 6 5 4 5 5 4 3 3 3 3
20 19 20 18 19 18 18 16 15 14 12 12 12 9 7 5 5 2 4 6 9 11 10 9 9 8 8 6 5 5 4 4 4 4 5 5 4 4 5 5 5 5 5
19 20 22 20 21 19 17 17 15 14 13 11 9 7 5 3 3 3 4 8 11 12 11 11 13 12 8 7 5 4 4 4 5 4 5 6 7 7 7 7 8 8 8
21 19 21 19 17 17 18 18 17 16 14 12 10 9 7 4 4 4 6 7 10 11 11 11 12 16 13 7 5 1 1 3 4 5 5 6 7 8 9 9 10 10 11
23 22 22 21 17 16 15 16 14 12 12 11 10 9 7 4 5 4 4 7 9 9 9 10 13 18 18 14 11 7 4 3 3 4 5 6 7 8 10 11 11 12 13
24 23 24 23 21 17 15 13 13 12 14 14 12 9 6 4 5 4 4 6 8 8 9 10 13 16 16 15 15 12 8 6 4 5 5 5 4 6 7 9 11 12 13
25 25 25 25 22 19 15 13 15 16 15 13 12 11 8 5 1 1 3 6 9 9 7 7 11 13 12 13 12 11 10 10 8 8 6 5 4 4 5 7 9 10 11
23 24 23 22 20 18 18 19 16 14 15 15 16 14 12 9 6 5 4 4 6 8 8 6 10 11 11 11 10 11 10 9 9 8 7 7 7 8 9 9 10 11 11
23 22 21 20 21 21 20 18 17 17 16 16 16 16 14 12 10 10 8 7 5 6 6 5 7 9 10 9 10 10 11 11 11 10 10 10 10 10 11 11 12 10 10

GFSSE_500_spd_027.txt.gz
Wind_Speed
9 9 18 16 15 14 13 13 14 14 14 13 13 13 14 13 13 13 13 13 13 13 13 12 10 8 7 6 4 2 2 2 2 1 1 3 8 13 14 17 13 11 10
10 14 16 13 14 13 12 11 12 13 12 11 12 13 13 13 12 12 12 12 11 13 13 11 10 8 6 4 3 2 2 3 3 3 2 5 10 15 17 15 13 12 11
3 15 10 13 12 12 10 10 12 11 11 11 11 12 12 12 12 11 11 11 11 11 11 10 9 8 6 4 3 2 3 3 2 2 4 7 12 16 15 12 12 11 9
6 7 10 12 10 10 10 10 10 10 10 11 11 12 12 12 12 11 10 10 9 10 9 8 7 6 4 3 1 2 0 2 3 3 4 7 14 16 13 11 10 9 7
4 6 7 8 8 8 9 9 9 9 11 12 12 11 11 12 11 11 11 9 10 9 8 6 5 4 4 4 7 1 3 3 5 5 6 10 13 13 11 9 8 5 4
5 5 5 8 8 7 8 8 9 11 13 13 13 13 12 12 12 12 11 11 10 10 9 7 7 6 6 7 7 5 4 5 8 9 8 9 11 11 9 9 6 5 4
5 5 6 7 7 6 8 8 12 13 15 15 15 14 13 12 13 14 11 11 11 11 10 9 7 8 11 12 11 10 9 5 14 11 10 7 7 7 7 6 5 4 4
6 6 7 6 6 6 7 10 14 15 16 16 15 14 14 14 14 15 14 14 14 13 12 13 13 13 14 15 16 15 10 13 13 10 6 3 5 5 5 5 5 5 4
6 6 7 7 7 7 8 12 15 16 17 18 18 16 17 18 18 19 19 19 19 18 16 14 13 13 12 14 16 16 12 15 16 10 4 1 3 5 5 5 5 5 4
7 5 7 7 8 9 11 15 16 17 19 20 19 19 20 20 21 21 21 18 17 15 13 12 11 11 11 14 16 17 15 12 11 6 3 3 5 6 5 5 3 4 5
8 8 8 8 9 12 14 15 17 19 21 20 20 20 20 19 19 16 17 15 13 11 10 9 10 10 11 12 13 14 13 11 8 5 3 6 7 9 10 4 2 4 6
10 10 10 9 10 13 14 16 18 20 21 20 18 20 10 17 16 15 14 12 11 10 10 10 11 11 11 9 11 11 10 10 11 8 7 7 6 8 9 3 5 9 13
10 11 11 10 11 13 15 16 18 20 20 18 17 16 17 16 10 11 11 10 8 9 10 11 9 9 9 10 9 9 10 9 9 8 8 10 12 8 7 4 7 12 7
10 11 12 12 12 14 15 16 19 19 18 17 14 13 13 13 11 10 9 7 8 8 8 10 11 12 11 10 9 8 8 8 9 9 9 9 9 9 7 2 6 9 4
10 12 13 13 14 15 16 16 17 17 15 13 12 11 12 11 10 9 7 6 7 8 10 8 10 9 9 10 9 7 6 8 9 9 9 10 9 8 6 5 6 9 5
10 12 14 14 15 17 15 16 15 14 12 12 11 10 10 10 9 7 6 4 6 7 6 7 7 6 10 8 8 7 6 7 7 8 8 9 11 9 8 7 7 8 7
13 13 15 16 17 17 17 15 13 11 12 11 11 10 9 7 6 5 4 6 7 6 5 5 5 7 6 7 6 4 4 5 6 7 8 8 8 8 8 8 8 7 8
14 15 16 17 18 18 17 15 14 12 11 10 10 10 9 7 5 4 4 5 7 7 6 6 6 5 6 5 5 5 3 3 4 5 7 7 9 9 10 9 7 7 7
17 17 18 18 17 19 18 16 14 13 12 11 10 9 7 5 3 2 3 5 8 7 8 10 7 6 6 6 5 4 3 2 3 5 5 5 6 8 8 8 8 8 8
19 18 20 19 18 18 18 16 14 13 12 12 11 8 5 3 2 2 3 5 8 9 10 10 10 9 7 6 6 3 2 3 3 3 4 4 6 6 7 8 9 9 9
20 20 21 20 20 18 19 18 17 15 13 10 8 7 5 4 3 2 5 7 10 11 11 10 15 16 13 11 8 5 3 4 3 3 4 4 4 6 7 8 9 11 11
22 21 21 21 21 21 20 19 17 15 13 10 9 8 6 5 3 2 5 8 9 10 10 10 12 15 16 14 12 10 7 6 7 6 5 4 5 7 8 8 7 8 10
22 21 22 22 22 22 19 18 17 15 15 15 12 9 8 7 4 2 5 6 8 10 8 8 11 14 13 14 16 16 14 11 10 9 8 7 6 6 5 7 9 8 9
25 25 23 24 24 20 17 16 17 17 16 13 12 11 10 9 5 1 2 4 6 7 7 7 9 13 11 11 12 12 12 12 11 9 9 8 7 8 9 10 12 11 12
25 24 23 24 22 20 18 18 17 15 14 14 15 15 11 8 5 4 2 3 6 5 6 6 7 8 9 10 10 11 9 8 7 7 8 7 7 9 9 11 12 14 12
23 24 22 21 22 22 21 19 18 18 17 16 16 15 12 9 9 8 6 5 5 6 4 5 4 6 7 8 8 9 10 10 12 12 12 10 8 8 9 11 12 13 12

GFSSE_500_spd_030.txt.gz
Wind_Speed
14 16 13 13 14 14 17 17 16 14 12 13 13 13 13 12 11 11 12 13 13 12 12 10 9 8 6 4 4 3 2 2 4 4 2 1 6 9 8 11 10 8 8
15 15 14 14 12 13 15 15 14 12 11 11 11 12 11 10 9 10 12 11 11 11 10 9 8 6 5 3 4 4 3 2 4 5 2 2 7 9 11 12 9 8 7
9 12 14 11 11 12 15 13 11 11 10 10 10 10 9 8 9 10 11 10 9 10 9 8 7 6 5 4 3 2 2 1 3 5 4 5 7 11 11 9 9 7 6
8 10 12 12 11 11 14 11 11 10 9 9 9 9 9 8 8 9 8 8 8 8 7 7 7 6 7 8 8 2 1 1 2 4 6 7 10 11 9 8 8 6 4
8 9 10 11 11 11 12 11 10 10 9 9 9 9 8 8 9 9 9 8 7 6 7 8 7 8 8 7 8 3 5 3 2 6 7 10 12 10 7 6 5 4 1
7 7 8 10 10 10 11 11 10 10 9 10 10 10 10 10 10 9 10 9 9 10 9 9 10 11 11 10 9 6 4 4 5 8 9 9 8 7 6 4 2 1 1
5 7 7 8 9 10 10 11 10 11 11 11 11 12 12 11 10 12 11 11 12 11 11 12 13 13 15 16 16 13 5 11 11 8 9 8 5 4 3 2 1 0 2
6 7 7 7 8 10 10 11 11 11 11 11 13 14 14 13 14 14 13 14 14 14 15 14 14 15 16 19 20 19 16 17 12 9 7 6 5 3 1 1 2 2 2
6 6 7 7 8 10 11 12 12 11 11 14 16 16 18 19 19 19 19 19 17 16 14 14 13 14 16 18 19 20 20 18 14 9 5 1 0 1 2 3 3 3 3
8 6 8 8 9 11 13 14 14 12 15 16 17 18 19 23 21 20 21 17 15 14 13 12 12 12 15 16 17 18 13 12 10 8 3 2 3 6 4 2 3 3 4
9 9 9 9 11 14 16 15 14 15 17 17 19 20 10 22 20 17 17 15 13 14 14 13 13 13 13 14 15 15 13 10 10 8 5 4 5 10 8 2 2 5 5
10 9 11 11 14 16 16 16 16 16 17 17 20 17 11 13 18 15 15 14 12 12 13 13 12 12 14 13 14 13 13 11 12 12 12 12 5 8 5 1 7 11 11
9 10 11 12 14 16 17 17 17 16 15 16 17 17 10 14 15 12 13 10 9 9 9 11 11 12 10 10 10 13 12 10 13 14 13 14 13 9 4 3 9 12 7
8 10 11 13 15 17 17 17 18 16 12 10 13 13 11 15 13 11 10 9 9 8 9 11 12 10 9 7 10 10 11 13 11 14 13 13 12 10 7 5 11 12 9
8 10 12 13 16 17 18 20 18 16 12 9 7 8 8 14 11 10 8 8 10 8 2 12 11 9 9 10 10 9 9 11 13 13 13 12 11 10 10 9 10 12 11
8 10 11 13 15 17 18 19 18 15 12 9 6 7 8 8 8 9 9 10 11 14 17 14 12 12 5 6 9 8 7 7 10 12 11 10 10 10 10 9 8 9 9
7 10 11 13 17 16 17 17 15 13 11 10 9 8 7 6 6 8 9 9 13 14 13 12 8 7 8 5 6 7 6 6 7 8 11 10 10 10 10 9 9 9 8
8 11 11 13 17 16 17 17 14 13 11 9 9 7 6 6 6 7 7 10 11 10 11 9 7 6 7 9 7 5 5 4 5 6 8 9 10 10 10 10 10 11 10
11 12 13 14 16 17 18 17 15 14 12 10 9 7 6 5 5 6 8 10 12 9 10 10 11 11 9 6 7 3 3 3 4 5 6 6 6 7 8 9 9 9 9
16 14 16 16 16 17 17 17 15 13 12 10 9 7 5 4 3 5 7 10 10 11 10 11 13 14 12 8 5 4 4 4 4 3 4 4 4 6 6 7 8 9 10
19 18 19 18 17 17 18 17 15 12 9 9 8 7 6 5 5 4 8 9 10 10 10 11 13 16 15 15 12 10 8 7 6 6 5 4 5 6 7 9 9 9 11
21 20 20 21 20 20 20 18 14 12 10 8 8 7 6 6 6 4 6 8 10 9 11 11 13 15 19 18 16 13 11 9 9 9 9 9 9 8 7 7 9 11 12
19 19 20 22 23 22 21 18 15 13 12 11 8 8 8 7 7 5 6 7 8 8 9 11 12 12 13 13 13 15 14 13 10 10 11 10 9 8 9 8 8 10 11
21 20 19 21 23 23 21 18 17 17 13 9 10 11 10 7 5 4 4 5 6 7 7 8 10 11 10 8 8 9 9 8 8 8 8 8 8 8 10 13 13 12 10
20 19 18 19 20 21 20 19 18 17 13 11 12 12 11 7 4 2 1 3 5 5 5 5 6 6 7 8 9 9 7 6 8 7 8 8 7 8 7 8 13 14 10
20 20 20 19 20 20 20 18 17 16 14 13 13 11 10 8 6 3 2 2 4 5 4 3 3 4 4 4 6 7 6 5 6 7 8 9 7 5 8 9 8 9 12

GFSSE_500_spd_033.txt.gz
Wind_Speed
12 9 8 9 13 14 14 15 16 15 14 13 12 12 12 12 11 12 11 12 11 10 9 7 6 5 5 5 4 4 4 4 5 4 3 0 3 5 6 8 6 4 5
11 8 9 10 13 11 12 14 14 14 14 13 12 11 11 10 11 10 10 11 11 10 9 6 5 6 7 6 4 4 4 4 6 5 4 3 5 5 7 9 6 5 3
12 9 10 11 11 9 10 13 14 14 13 13 10 9 10 9 8 10 9 11 10 9 8 7 8 9 9 8 7 3 4 5 6 6 6 7 8 9 10 8 6 5 3
9 8 10 10 10 10 11 13 14 14 13 11 8 8 9 9 8 9 9 9 9 9 9 8 8 8 7 7 8 2 3 3 6 6 7 9 11 10 9 8 7 6 4
7 7 11 11 10 10 11 14 14 14 12 10 8 9 10 10 10 10 9 9 9 8 9 10 10 10 9 8 6 0 2 3 7 8 11 12 11 9 8 8 6 5 3
6 8 9 10 11 11 12 15 14 14 11 9 9 10 11 12 12 12 11 12 12 12 13 13 14 14 15 13 8 0 4 10 10 12 14 12 9 8 6 5 5 4 5
4 9 8 10 12 11 12 15 14 12 10 10 11 12 13 13 14 14 15 15 15 15 15 16 15 15 18 20 15 10 13 15 14 12 12 10 9 6 5 3 4 4 5
6 8 7 9 11 11 13 14 15 12 11 13 14 14 15 14 14 16 16 18 18 15 14 13 13 16 21 24 25 23 23 16 14 13 11 9 8 6 5 4 4 4 4
6 7 7 9 11 12 14 14 14 14 16 18 18 19 19 19 17 18 19 18 16 15 14 13 14 17 20 22 22 20 18 15 11 8 7 7 5 5 4 3 3 3 3
6 8 8 10 12 13 15 15 15 17 18 18 20 22 21 21 21 18 16 16 14 14 13 14 14 16 17 20 19 19 13 11 7 5 3 1 1 2 4 4 4 4 2
6 9 9 11 14 14 16 16 17 20 19 19 21 19 21 18 15 16 16 14 14 16 14 15 15 15 17 16 17 16 14 12 11 9 5 1 2 6 4 2 4 4 1
7 10 11 12 15 16 16 17 19 20 17 18 18 15 13 16 14 14 17 15 14 14 13 13 12 13 16 16 16 16 15 14 14 13 13 11 9 10 5 2 7 7 5
8 10 12 14 16 16 16 18 20 20 16 16 13 14 12 14 13 12 17 15 14 13 14 10 11 11 14 13 17 13 15 13 14 13 13 13 13 10 6 4 9 15 15
8 9 13 15 16 17 17 18 19 20 15 13 13 9 12 12 13 14 15 15 16 13 12 11 9 9 8 12 12 9 11 13 13 14 13 13 13 10 7 9 12 12 10
9 10 12 15 16 17 17 18 17 17 14 13 11 9 13 12 12 14 16 16 14 13 5 9 9 5 7 9 10 10 9 12 13 12 14 13 12 11 11 10 12 13 13
8 10 12 14 16 16 19 18 16 14 14 14 10 10 11 12 15 15 15 15 14 10 9 9 7 7 8 8 6 9 8 10 11 12 12 11 10 11 11 11 12 13 13
7 9 12 14 16 16 18 18 15 13 10 11 9 9 11 13 12 12 15 16 11 13 13 11 7 8 8 6 6 5 9 7 10 10 12 11 10 12 12 13 13 12 12
7 10 12 16 17 18 18 17 15 12 11 11 9 8 9 10 10 12 14 15 12 9 12 12 12 9 8 7 2 5 7 8 8 7 9 9 10 12 13 12 12 12 12
11 13 12 16 17 17 17 15 13 11 10 8 7 7 7 8 11 11 12 14 12 12 15 18 16 13 7 5 5 6 8 8 6 6 5 6 7 9 9 9 10 9 10
15 16 13 16 17 18 17 15 13 11 10 9 7 6 6 7 9 10 11 13 14 12 13 16 15 15 16 11 11 9 9 9 7 6 4 4 6 7 8 9 10 9 12
16 16 17 17 18 18 18 16 13 11 9 8 6 6 6 7 7 8 10 10 10 11 11 13 16 17 16 14 13 12 10 9 8 7 7 5 5 6 7 8 8 8 10
17 18 19 19 19 20 19 17 14 11 10 9 8 7 7 7 7 7 8 9 9 10 12 13 13 14 17 14 14 13 10 11 10 10 11 9 10 8 9 9 9 11 11
19 18 18 21 21 22 20 17 15 13 11 10 8 7 7 8 8 5 7 7 8 9 9 11 12 11 12 13 13 12 13 11 10 10 9 8 8 7 9 9 9 11 10
19 19 18 21 22 22 20 18 16 14 11 9 10 9 7 8 7 5 5 5 5 6 7 9 9 9 9 7 8 7 7 5 5 6 8 8 9 9 8 10 11 11 10
17 17 16 20 22 20 20 19 16 13 11 12 12 10 9 7 4 4 4 4 5 5 6 5 7 6 6 8 7 7 7 8 8 10 9 11 8 8 10 10 11 12 12
16 15 14 15 17 20 19 17 16 13 12 13 12 11 11 8 4 2 3 3 3 4 4 4 4 4 3 5 6 6 6 5 6 10 11 14 12 8 5 9 8 11 10

GFSSE_500_spd_036.txt.gz
Wind_Speed
9 8 6 7 10 11 11 10 11 11 10 11 12 12 11 12 12 13 13 12 11 10 8 8 5 4 3 3 3 3 3 4 3 1 3 2 2 3 5 8 8 7 7
8 6 7 9 11 10 10 11 12 12 11 12 12 11 11 11 11 13 13 12 10 8 7 6 4 4 3 3 3 3 3 4 5 3 4 5 6 6 9 9 7 7 6
7 5 9 10 10 9 10 11 13 13 13 12 12 10 9 9 10 11 12 11 9 7 7 6 5 4 4 4 3 3 5 5 6 7 7 9 10 11 11 9 8 7 7
6 6 9 10 9 10 10 12 14 14 14 13 13 11 9 9 9 9 10 11 9 7 7 7 6 6 5 4 3 5 4 7 6 9 11 13 14 13 11 10 8 7 7
6 7 8 10 9 10 12 13 14 15 15 13 12 11 10 9 9 9 10 9 9 10 9 9 10 11 8 5 2 5 5 8 10 13 15 14 14 13 12 10 8 6 5
5 8 8 9 9 11 14 14 14 14 13 12 12 11 11 11 10 10 11 12 12 12 13 12 14 15 12 7 3 7 10 11 13 15 15 13 12 11 9 8 6 5 6
7 7 8 9 10 12 14 15 13 12 14 15 14 13 12 12 12 13 14 14 15 14 12 14 17 18 19 16 12 16 18 13 14 13 13 11 10 8 6 5 5 5 4
8 9 8 9 11 13 13 15 12 15 17 17 15 14 14 14 15 16 16 16 14 12 14 16 18 19 25 26 22 20 19 16 15 13 12 9 8 7 5 3 3 2 2
7 9 7 9 13 14 14 17 18 20 20 18 16 17 17 16 17 17 15 14 13 13 14 15 17 18 20 21 21 17 14 11 10 9 9 8 6 6 4 2 2 2 2
7 9 8 9 14 15 17 20 20 22 23 21 20 20 20 20 15 13 14 12 13 15 15 17 16 16 17 16 17 15 11 7 6 4 4 4 5 5 5 4 4 4 4
6 9 10 11 15 16 20 22 22 24 23 23 22 22 18 18 14 12 12 13 14 15 16 15 15 16 16 14 15 15 11 9 9 5 3 5 5 6 1 3 5 2 2
8 10 10 13 16 18 22 23 24 23 22 21 20 18 14 15 16 13 14 13 11 12 14 12 13 13 14 13 14 13 11 11 12 14 12 8 9 7 3 5 8 2 3
9 10 11 14 17 19 23 22 23 23 21 17 16 17 14 14 15 13 12 10 10 12 11 11 11 11 10 10 12 13 13 12 10 13 14 13 11 8 7 9 14 18 15
8 9 12 14 16 19 22 21 20 23 16 19 15 15 13 14 13 11 11 10 8 10 9 8 7 11 10 7 8 11 12 13 11 14 14 14 11 10 10 15 16 15 14
10 11 13 13 16 19 22 21 18 16 17 16 15 13 12 12 12 12 12 11 11 11 8 7 7 7 9 6 4 8 10 12 10 12 13 14 13 13 13 15 16 15 14
10 11 13 14 16 19 23 21 19 15 15 15 15 12 11 13 13 13 12 11 12 12 9 7 7 7 5 9 6 5 8 10 9 11 11 13 13 13 14 14 15 14 12
10 11 13 14 15 18 20 22 19 15 17 14 11 11 11 12 12 12 11 10 12 13 12 8 6 7 7 7 8 6 8 8 9 11 12 14 14 13 12 13 13 12 11
8 12 14 14 15 18 18 19 19 15 16 13 10 11 11 10 12 12 12 11 13 15 15 12 8 8 7 10 10 6 7 8 7 9 10 11 12 11 10 11 10 11 10
10 13 15 15 18 19 18 17 18 17 16 12 11 10 10 10 10 12 12 12 12 14 16 14 13 9 7 10 11 9 7 7 6 6 7 7 7 8 9 9 10 9 10
14 14 15 19 18 19 18 16 15 15 14 11 10 7 8 10 10 11 12 13 14 15 16 15 16 16 15 13 12 9 9 8 5 7 6 6 6 8 10 9 11 11 10
16 16 17 21 20 20 18 17 16 14 13 11 10 9 8 9 9 10 10 12 13 14 13 15 16 14 16 13 12 12 12 11 9 8 8 8 9 10 9 10 12 10 9
21 18 19 21 21 22 20 17 16 14 12 10 8 10 9 8 8 8 9 9 11 14 13 14 13 14 16 16 12 15 13 13 12 11 10 10 10 9 9 11 11 8 7
24 22 21 23 22 21 20 17 15 14 12 10 8 8 8 7 6 6 7 8 10 12 12 12 12 11 11 12 13 11 11 11 11 8 7 8 9 8 9 9 8 8 8
24 24 23 23 22 20 19 17 16 13 11 8 8 7 8 7 5 5 5 7 7 8 9 10 11 13 13 11 11 10 9 9 7 6 8 8 8 5 8 7 8 9 10
21 21 19 21 22 21 20 18 15 13 10 10 9 9 9 9 6 4 4 6 6 6 7 7 9 9 9 9 8 9 8 7 8 9 12 11 7 8 11 9 10 11 12
16 19 18 18 21 22 21 18 15 13 12 11 11 10 10 7 6 5 3 3 5 5 5 6 6 5 5 5 7 9 10 9 6 10 14 15 10 10 12 12 10 10 13

GFSSE_500_spd_039.txt.gz
Wind_Speed
3 10 7 7 6 7 7 7 7 7 9 11 11 12 13 14 14 13 12 12 10 9 8 7 6 4 2 1 2 2 3 5 4 2 3 5 7 7 10 10 9 9 9
6 7 8 7 8 8 8 9 9 10 11 11 12 12 13 13 12 13 12 11 9 7 6 5 5 3 2 1 0 2 3 5 6 5 6 8 10 12 13 10 9 8 7
4 7 7 6 7 6 6 7 9 11 12 12 12 13 12 10 10 11 11 9 8 7 6 5 3 2 1 1 1 2 4 6 8 9 10 12 14 14 12 10 9 8 7
3 8 7 6 7 6 7 8 9 11 12 10 10 11 11 9 10 10 11 10 9 8 8 7 6 4 2 2 2 7 5 7 8 13 15 16 17 15 13 12 10 8 7
4 9 7 7 7 7 9 10 11 12 11 10 9 10 10 10 11 10 10 9 9 10 10 9 6 4 2 2 6 5 8 9 11 16 18 17 17 15 12 11 9 8 8
5 8 7 7 8 9 10 10 13 13 11 10 10 11 11 11 12 12 10 10 11 10 11 11 11 7 5 7 11 11 11 13 16 16 15 14 15 13 11 9 9 9 8
7 8 7 8 9 11 11 11 13 11 12 13 13 13 13 13 13 11 11 12 11 11 12 13 17 18 16 15 15 14 14 14 15 15 13 13 12 10 8 7 7 6 6
10 9 8 9 10 12 11 12 11 13 15 16 17 17 16 15 14 12 12 11 9 11 13 14 18 22 24 22 18 18 14 11 11 11 10 10 9 8 7 5 4 5 5
7 11 9 9 12 13 12 13 16 17 18 19 19 19 18 18 16 12 12 11 10 9 13 15 17 18 19 18 15 15 13 10 10 10 8 8 6 7 6 6 6 5 5
7 9 10 10 14 13 16 18 18 19 22 21 20 21 20 19 17 12 11 12 10 11 13 15 16 16 15 15 12 9 8 7 5 5 6 6 5 7 7 6 5 5 5
6 9 11 13 15 15 20 20 21 22 23 23 21 21 18 15 15 12 12 12 9 9 11 15 15 15 15 12 13 13 12 9 6 4 4 3 3 3 6 7 6 0 3
7 9 12 16 17 19 21 22 22 23 23 22 19 17 16 14 14 13 10 13 8 8 11 11 12 13 15 14 13 13 11 12 14 14 11 10 11 7 6 10 10 6 4
8 10 13 17 17 22 23 24 23 23 19 19 17 16 15 13 12 11 10 9 7 8 9 9 8 10 12 13 12 12 11 12 13 15 16 14 12 10 8 9 13 14 11
9 10 14 17 19 22 23 24 22 20 19 19 16 14 14 10 9 11 10 8 3 10 8 8 7 6 10 12 11 10 11 13 13 13 14 14 14 12 13 12 13 12 10
10 12 16 18 20 22 23 23 17 20 18 16 15 13 11 9 8 10 10 8 7 8 6 9 8 5 8 10 9 9 10 12 11 13 13 14 14 14 13 13 13 12 10
10 13 15 17 21 22 23 22 19 17 17 17 15 12 10 8 10 11 10 10 9 9 7 8 7 8 8 6 8 6 8 11 11 11 11 12 14 14 11 10 10 10 10
12 14 14 18 21 22 22 22 21 19 17 15 14 12 8 7 12 12 13 11 12 9 7 6 7 12 7 6 7 5 7 10 10 11 12 12 12 11 10 9 8 10 12
11 14 16 18 19 22 19 20 21 20 18 16 14 10 7 8 11 11 14 14 13 11 12 9 7 13 11 9 9 7 6 7 7 9 10 10 10 10 10 10 11 12 12
12 15 18 19 21 22 21 18 20 20 16 15 14 9 6 8 9 10 14 13 13 15 14 13 10 12 11 10 11 9 7 6 5 6 7 8 9 9 12 12 10 11 11
14 16 20 22 23 22 20 19 18 18 16 13 11 9 7 8 8 9 13 15 15 17 17 16 16 15 14 10 11 11 10 8 6 6 6 7 9 12 11 11 10 9 10
15 16 20 21 24 22 20 20 19 16 14 13 10 9 8 8 8 10 11 14 15 17 17 17 15 14 14 13 13 13 12 12 11 10 10 11 11 11 11 8 8 8 7
21 19 21 25 24 24 23 23 21 16 14 12 10 9 8 6 8 9 11 13 14 15 17 16 17 14 14 15 12 12 14 13 12 11 11 11 9 10 8 8 9 9 11
23 20 21 24 24 23 23 22 20 17 15 12 11 10 9 7 5 8 9 11 11 12 14 15 13 10 10 11 12 11 10 8 8 8 6 6 6 6 7 9 10 10 11
25 25 24 26 25 23 23 23 23 21 18 14 12 11 10 8 4 7 7 9 8 9 11 11 11 11 13 12 12 11 10 8 9 9 7 9 10 10 10 11 11 12 12
27 24 25 27 26 25 25 25 22 18 14 12 10 11 11 9 6 5 6 6 7 7 7 8 8 8 10 12 11 10 9 8 9 13 13 13 12 12 11 11 13 13 14
27 25 26 26 25 26 26 23 21 19 16 13 12 12 11 9 5 3 5 5 6 7 8 7 6 6 7 7 8 9 9 8 9 14 17 14 12 12 13 12 13 13 13

GFSSE_500_spd_045.txt.gz
Wind_Speed
6 7 6 5 4 4 6 9 10 11 12 14 13 11 12 12 12 12 12 10 10 9 6 4 3 1 2 2 2 2 4 4 5 6 6 9 10 13 13 13 11 9 8
7 7 8 7 6 5 8 9 10 11 12 13 12 13 14 14 13 12 10 8 7 6 4 3 3 3 4 4 3 5 4 5 6 8 10 12 14 14 13 12 9 9 8
7 10 9 7 6 7 9 9 11 11 11 12 12 13 14 13 12 10 8 6 5 4 3 3 3 3 3 3 3 5 6 7 8 11 14 17 16 13 13 11 10 8 7
8 11 10 8 7 8 9 9 10 11 11 11 12 12 13 12 11 10 8 6 6 6 4 4 4 2 4 5 7 7 7 10 13 14 18 17 16 13 13 11 9 8 8
8 10 11 10 9 10 11 11 11 11 11 11 12 13 11 11 11 10 8 8 9 10 10 8 4 3 5 7 11 15 11 14 16 19 17 16 16 14 12 11 10 9 8
10 10 11 10 11 12 13 13 12 12 12 13 12 13 12 12 12 12 10 11 14 16 15 14 11 11 12 13 16 15 17 17 18 18 17 16 14 12 11 11 10 8 8
10 10 11 12 13 14 14 14 14 14 15 15 14 13 14 15 15 13 13 14 15 17 20 20 19 18 16 15 18 19 17 17 16 17 16 14 12 10 10 8 6 6 6
10 11 11 13 14 14 14 13 14 15 15 15 15 15 16 16 14 13 15 14 16 16 19 23 22 19 17 19 19 18 16 15 14 13 11 10 9 8 6 5 4 5 5
8 9 9 12 12 12 13 13 15 16 15 16 15 16 16 16 13 15 15 16 16 15 15 17 19 19 19 17 17 15 13 12 11 10 11 9 9 9 7 6 5 5 5
9 8 9 9 9 10 13 15 16 17 17 17 16 16 16 15 15 15 14 16 15 14 14 15 16 14 14 15 13 11 10 10 10 9 8 9 7 7 6 5 4 5 9
9 9 9 9 8 11 15 16 17 18 17 18 17 15 15 15 14 12 13 14 13 13 14 14 14 13 14 14 13 12 10 8 8 6 5 4 6 7 7 5 4 6 6
11 11 10 10 11 14 16 18 19 20 20 18 14 13 14 13 10 8 11 12 11 12 12 13 14 14 13 13 13 14 14 13 11 10 8 9 9 10 15 15 11 7 9
12 13 13 12 15 16 19 20 22 21 18 15 14 14 13 12 10 8 10 11 10 10 10 11 12 13 13 13 14 14 14 16 17 16 15 13 12 14 18 18 15 12 13
13 14 15 15 17 18 21 21 21 19 17 15 13 11 11 11 9 9 10 10 10 10 10 10 9 11 12 14 14 13 13 15 16 16 16 16 15 16 16 16 14 14 14
14 16 17 19 20 20 22 17 19 17 17 15 12 12 12 10 10 10 8 8 8 9 12 11 10 10 10 13 13 13 13 14 15 15 15 16 14 15 15 13 14 14 14
15 17 18 22 23 21 19 17 19 18 16 14 13 13 11 11 11 11 9 8 8 9 10 11 12 10 10 11 13 13 12 13 13 13 13 14 14 13 14 14 14 15 14
17 19 20 24 24 22 18 17 19 18 15 14 13 12 12 12 12 13 12 11 10 12 13 12 13 12 12 11 11 13 12 13 13 12 12 13 14 15 14 14 14 14 14
19 21 21 24 24 22 16 17 18 19 17 15 13 13 14 14 13 12 14 13 9 12 13 13 13 12 11 11 10 12 12 13 13 12 12 13 13 13 13 13 13 13 13
20 20 22 25 25 23 17 16 15 16 17 17 14 14 14 15 14 13 15 14 12 14 13 13 12 13 11 11 10 11 11 10 11 11 11 13 12 12 11 12 12 14 16
20 20 22 27 26 23 17 16 14 15 15 16 15 15 13 14 14 13 15 16 17 17 13 13 15 14 12 11 11 12 12 11 10 12 11 11 12 12 11 11 13 15 16
20 21 21 23 25 23 19 18 17 16 15 15 14 14 14 15 16 16 16 16 16 15 15 14 15 14 13 12 14 13 12 12 12 13 13 11 11 11 11 12 14 15 15
21 23 23 24 26 25 25 23 21 18 15 14 15 13 15 14 16 17 16 17 15 15 15 16 16 13 12 12 14 14 14 12 12 11 11 10 10 12 13 14 15 15 15
23 22 25 25 28 27 26 24 20 17 14 14 15 14 14 13 13 15 15 14 15 14 13 14 14 14 12 9 9 10 9 8 8 7 7 8 12 14 14 16 17 16 16
27 26 28 28 30 28 26 24 22 21 20 18 17 15 13 12 12 13 13 12 11 12 12 13 12 13 13 11 10 10 11 9 9 10 11 13 15 16 16 16 16 15 16
33 29 29 30 31 26 26 26 24 22 18 14 15 16 14 12 12 12 11 11 10 10 8 8 8 10 11 11 11 12 13 13 13 13 14 13 13 13 13 13 13 14 16
36 35 32 30 30 27 24 26 25 23 17 16 16 17 16 13 12 12 12 13 13 13 11 8 7 7 9 10 11 11 12 13 14 15 14 12 9 10 11 10 11 12 13

GFSSE_500_spd_048.txt.gz
Wind_Speed
4 4 5 7 8 10 10 11 12 12 15 15 14 15 14 14 13 13 11 10 8 6 5 4 3 4 4 4 3 3 4 3 6 6 6 7 9 11 11 10 8 8 6
5 5 7 7 8 10 10 11 12 13 15 15 14 14 13 13 12 10 8 6 4 3 2 2 3 3 3 3 4 4 4 5 6 8 8 11 12 12 10 8 8 7 6
6 7 9 8 8 9 10 12 13 14 14 14 14 15 14 12 11 9 7 6 3 2 2 2 2 2 4 4 6 6 5 7 9 11 12 14 13 11 9 8 7 6 7
6 7 9 8 8 9 11 13 13 13 12 13 13 13 12 11 9 9 7 6 4 4 4 4 3 4 5 5 5 7 7 9 12 13 15 15 13 11 9 8 7 7 7
6 7 9 9 10 10 12 12 12 12 12 13 12 12 12 10 8 8 8 7 6 6 3 1 6 6 6 2 16 8 10 12 13 16 14 12 13 11 8 8 9 8 7
8 7 8 9 9 11 11 11 11 10 11 12 11 11 11 10 9 10 9 11 13 12 11 13 14 13 12 14 18 14 15 15 16 14 14 13 11 9 8 8 6 6 6
10 9 9 8 9 11 11 10 10 10 11 12 12 12 13 12 11 10 12 14 16 16 17 18 17 16 14 17 17 18 17 16 15 14 13 11 10 8 7 5 4 5 6
11 10 10 9 10 10 10 10 11 11 12 12 13 14 14 13 11 12 13 14 16 17 19 20 18 19 18 19 18 17 17 16 14 12 11 10 8 6 4 3 4 5 5
10 9 10 10 11 12 11 11 13 14 13 14 14 14 14 13 13 13 12 13 16 17 17 18 17 16 17 16 17 15 14 14 12 12 10 9 8 7 6 6 6 5 5
11 9 11 11 11 12 13 13 14 16 16 16 16 14 13 12 13 12 13 13 15 16 15 15 14 13 13 12 14 13 11 11 11 9 9 6 4 5 5 7 6 6 6
12 10 11 11 12 13 14 15 15 16 17 18 16 13 12 13 11 11 11 12 13 14 13 14 13 14 13 12 10 9 10 9 8 7 5 5 7 5 5 7 6 5 7
13 12 12 11 16 16 16 17 17 17 18 18 15 14 12 10 8 9 10 11 10 12 13 14 14 13 13 14 13 11 11 11 9 8 9 9 11 10 11 12 9 8 9
14 13 13 14 16 15 17 18 19 20 17 16 15 14 10 10 8 7 8 9 11 9 11 13 14 13 13 14 15 15 17 17 17 15 13 12 13 14 15 15 13 11 11
14 14 15 17 17 17 18 19 19 17 17 15 14 12 10 8 8 8 8 8 8 8 10 12 12 13 13 15 16 15 16 17 17 16 15 14 13 13 14 13 12 12 11
15 17 17 20 19 19 20 19 16 16 15 14 12 11 11 9 9 9 6 8 9 9 9 10 11 12 13 15 16 15 15 16 16 14 15 13 12 13 14 13 12 12 11
17 19 20 22 21 21 19 17 15 15 14 13 12 12 12 10 10 8 7 7 9 10 10 10 10 10 13 14 15 15 15 14 14 13 13 12 12 14 15 13 12 11 10
19 21 22 24 24 21 15 16 15 14 14 13 11 12 13 11 11 10 8 6 9 9 10 9 10 10 12 13 14 14 14 14 13 12 12 13 14 15 16 14 13 12 12
20 21 24 25 24 21 17 17 14 14 14 13 13 14 14 14 12 12 12 10 11 10 10 12 11 10 11 12 13 14 14 13 12 12 13 13 12 13 12 13 13 13 13
21 23 26 27 25 20 20 13 14 13 14 13 14 14 14 15 16 15 14 13 14 13 12 13 12 12 12 11 12 12 12 12 12 12 12 12 12 12 12 13 13 14 14
22 24 26 28 26 21 19 16 15 14 14 13 14 13 14 17 18 17 17 15 14 12 12 13 12 12 13 11 11 11 11 11 11 12 13 12 11 11 12 13 13 14 16
22 22 24 26 25 22 19 18 18 16 14 12 12 12 13 17 17 19 19 17 15 14 12 11 11 12 13 11 11 10 11 12 12 12 11 10 10 11 12 13 15 16 18
23 22 23 26 25 24 23 22 20 18 15 14 13 12 14 17 18 18 19 17 15 14 12 11 11 12 12 10 10 10 10 12 11 10 9 8 11 13 14 14 16 15 15
24 23 24 26 27 26 24 22 20 18 16 16 14 13 14 16 17 17 18 17 16 14 13 11 11 11 11 9 7 7 7 8 8 6 5 9 13 14 15 16 15 14 13
25 27 28 28 30 27 25 22 22 22 21 18 17 15 14 15 15 14 14 14 14 12 11 11 10 9 8 8 7 7 6 5 5 6 10 13 14 14 15 15 15 15 17
31 29 30 30 31 28 25 24 25 23 19 16 17 16 15 14 14 14 13 12 11 11 10 8 9 8 6 7 9 9 7 9 9 11 13 13 13 12 12 13 12 13 13
37 33 34 32 32 30 27 25 25 24 20 18 18 17 16 14 14 13 13 12 11 10 9 8 8 7 8 9 10 10 9 8 9 11 10 11 10 11 10 10 9 8 10

GFSSE_500_spd_051.txt.gz
Wind_Speed
4 5 6 7 11 12 13 13 14 14 15 16 17 17 16 15 14 12 10 7 6 4 3 3 3 2 2 2 2 2 2 2 3 4 5 5 7 9 8 7 7 7 7
4 5 6 9 10 10 12 12 13 14 15 15 14 14 14 12 10 8 5 3 1 1 1 1 1 2 2 2 2 3 1 2 4 3 4 7 8 8 7 7 6 6 6
2 5 7 9 9 10 11 12 13 14 15 14 14 13 12 10 8 6 5 4 3 1 2 2 2 3 2 2 2 2 2 4 5 7 7 8 8 8 7 6 6 6 6
3 5 7 9 9 9 11 13 12 12 13 13 12 11 10 10 8 8 7 6 6 6 6 6 6 5 4 4 3 3 3 4 7 9 9 9 8 7 6 5 6 6 8
3 4 7 8 9 9 11 12 12 11 11 11 10 10 9 9 9 10 8 7 8 6 4 2 4 5 3 7 9 5 6 8 8 13 11 9 8 6 6 6 7 8 9
5 5 8 10 9 10 10 10 10 10 11 11 10 8 8 10 10 9 9 12 12 11 10 11 12 12 12 16 11 10 11 12 14 13 12 8 7 5 6 6 7 8 8
6 6 10 11 10 10 10 10 10 10 10 10 9 8 11 10 9 9 12 14 16 15 16 17 16 15 15 15 16 15 17 16 14 13 11 9 6 6 5 5 5 5 7
7 6 10 12 11 10 9 8 9 9 10 9 10 10 11 9 8 10 13 13 18 19 18 20 17 16 18 18 17 17 16 15 13 11 9 7 5 3 3 3 4 5 6
7 6 9 11 11 10 8 9 9 10 11 9 11 11 10 7 8 11 13 14 17 18 19 17 16 16 16 16 15 13 13 12 9 9 7 6 4 3 4 4 6 7 7
8 6 8 10 11 10 8 9 10 11 12 12 11 11 9 8 9 11 13 13 15 16 17 16 16 14 12 11 11 10 9 9 8 7 7 4 4 3 4 6 7 9 8
9 8 8 9 11 10 10 11 10 13 13 13 12 10 10 10 8 10 12 12 13 15 14 15 15 16 14 9 8 8 8 7 6 6 5 5 7 5 5 7 7 8 9
11 9 9 9 12 12 12 13 12 13 13 13 11 9 8 8 7 8 10 11 12 13 13 13 14 10 14 15 9 6 7 8 5 7 8 11 12 11 11 10 8 9 11
12 11 11 12 15 14 14 13 13 14 13 12 11 9 6 6 5 7 8 8 10 11 10 13 16 7 16 12 11 12 12 12 11 11 12 15 15 15 13 11 10 11 11
14 14 13 16 16 16 15 15 16 15 13 12 12 10 7 5 6 6 7 8 9 8 8 12 14 15 14 13 13 14 15 15 14 14 14 15 14 13 13 10 11 11 11
15 16 17 18 18 19 19 19 14 14 13 11 10 9 7 5 8 7 7 7 8 8 7 11 12 13 13 14 14 14 14 15 14 13 14 14 14 13 13 11 11 11 10
16 16 20 19 21 21 20 18 14 13 12 9 9 8 6 6 6 5 6 5 7 8 8 9 11 11 12 13 14 12 13 13 12 12 13 14 14 14 13 13 14 13 12
17 18 21 22 22 20 19 15 13 12 11 9 10 8 7 6 5 7 7 9 9 8 8 9 10 10 12 12 13 13 12 11 10 10 13 15 14 13 13 14 13 12 12
18 19 22 23 23 19 17 15 13 12 12 10 9 9 8 8 7 7 10 11 10 10 8 9 10 9 11 12 12 12 10 11 10 10 12 12 12 12 12 13 13 13 16
19 20 23 24 22 18 15 15 13 13 13 12 11 11 9 8 11 12 12 14 13 11 10 8 10 9 11 10 10 10 9 10 11 10 10 10 11 12 12 13 13 17 19
18 21 25 24 21 19 15 16 14 14 12 12 13 12 10 8 10 13 16 16 13 13 14 6 8 8 9 8 7 7 8 10 10 12 11 9 9 11 11 13 16 17 18
18 21 24 24 21 18 17 17 16 16 12 12 12 12 11 10 11 14 16 16 14 13 12 10 9 9 9 8 7 8 8 8 9 9 9 8 8 10 12 14 14 15 15
19 21 23 24 23 19 19 17 17 16 15 12 13 13 13 12 12 15 16 16 15 14 13 12 9 10 10 9 9 8 7 8 9 9 8 8 10 11 13 12 12 12 12
21 22 23 26 25 22 19 18 18 17 16 15 14 14 15 13 12 15 14 14 14 12 11 11 10 9 8 8 7 6 6 5 6 6 9 11 11 11 12 13 15 17 17
22 25 25 27 27 24 20 19 19 20 18 17 15 15 16 14 13 13 13 11 10 10 9 8 7 6 6 4 4 3 3 4 5 7 12 14 15 12 12 14 14 16 16
27 26 27 28 29 27 23 20 21 21 19 17 16 15 14 15 13 12 12 9 8 8 8 8 6 6 5 4 5 4 4 6 7 12 11 14 13 12 12 12 13 14 14
32 29 29 29 29 28 25 22 21 22 19 18 18 16 14 13 12 9 9 7 5 5 6 6 7 8 7 5 4 4 6 8 8 10 10 12 10 10 10 9 10 11 10

GFSSE_500_spd_054.txt.gz
Wind_Speed
7 8 11 13 13 14 15 15 15 15 15 14 13 13 13 11 10 8 6 4 3 2 1 0 2 3 3 3 4 3 3 2 3 3 4 4 6 9 8 6 7 8 9
6 7 10 11 12 14 15 14 14 15 14 12 12 12 10 9 7 5 4 2 1 1 1 1 1 1 1 2 2 1 2 2 4 4 4 6 7 6 6 8 9 10 11
5 6 8 10 12 14 14 13 14 14 13 13 11 10 9 8 5 5 4 3 3 3 3 2 2 1 1 2 2 2 2 3 3 4 9 7 6 6 8 9 10 11 12
2 5 7 10 12 13 13 13 13 12 12 12 12 10 10 8 7 8 10 9 8 7 5 3 3 2 3 3 2 3 4 3 4 8 9 8 7 7 8 10 12 11 13
5 4 7 10 12 13 13 12 12 10 10 10 10 10 10 10 13 13 11 13 11 8 4 3 4 2 3 4 4 4 6 7 12 11 9 8 8 7 9 10 12 11 13
5 4 7 9 12 13 12 10 10 9 8 8 9 10 10 13 14 15 16 16 16 16 15 14 15 14 6 12 7 9 10 12 13 13 10 8 7 7 8 9 10 11 12
6 5 7 9 12 13 11 10 8 8 8 9 10 9 12 14 15 16 16 18 19 16 16 16 16 14 17 15 14 15 14 12 13 10 7 5 6 7 7 9 10 11 11
5 7 7 9 12 12 10 9 9 8 8 10 9 10 11 13 14 16 16 19 20 20 18 17 17 18 19 18 16 15 13 14 10 9 7 6 6 6 8 10 10 11 11
6 7 7 9 13 12 11 9 8 8 10 10 9 9 10 12 13 15 15 17 18 19 18 16 15 16 17 17 15 13 11 11 9 7 7 6 5 6 6 9 12 12 11
6 7 6 9 13 13 11 9 9 9 10 10 9 8 10 11 13 13 13 15 16 15 17 17 13 12 12 12 13 12 9 8 9 8 9 8 6 6 7 9 11 12 12
6 8 7 8 11 12 11 9 9 11 10 10 9 8 8 9 12 12 11 13 13 13 15 18 17 10 12 10 8 9 8 8 9 9 10 12 9 9 9 11 12 13 14
7 9 8 9 10 12 12 11 10 10 9 9 8 7 7 8 10 9 10 11 13 13 12 13 14 8 18 16 10 9 8 8 10 12 15 16 15 15 13 14 13 14 15
8 9 9 10 10 12 11 12 11 11 9 7 8 1 6 6 7 9 8 9 14 9 7 16 10 10 21 16 13 13 12 13 11 15 17 16 14 15 14 14 14 15 15
9 9 8 13 16 18 15 12 11 9 8 7 7 6 5 5 4 6 7 7 8 10 11 14 11 13 11 12 12 16 15 13 14 15 15 15 13 15 15 14 14 14 15
10 11 11 13 12 14 15 16 12 10 8 7 6 3 11 5 5 5 6 6 6 8 10 11 14 13 14 12 13 15 13 13 13 14 15 15 14 15 15 15 14 14 14
11 12 13 15 13 12 16 14 12 10 8 7 6 5 6 5 5 5 5 5 7 5 6 10 11 15 14 13 11 11 10 10 11 12 15 15 15 15 15 14 15 14 14
12 12 13 14 18 17 15 13 11 10 7 5 5 5 5 6 3 5 6 10 2 7 7 7 9 10 11 12 10 8 8 9 12 12 14 15 15 14 14 15 17 18 17
13 13 15 16 20 19 15 12 10 9 7 7 7 7 5 6 8 7 7 8 8 9 10 8 9 8 9 9 9 8 9 9 11 13 13 14 13 14 16 17 20 21 21
14 15 16 17 17 17 15 11 11 8 7 8 8 9 6 8 10 5 5 8 9 10 11 9 7 8 8 8 7 8 9 10 10 10 11 12 14 14 16 16 17 18 19
14 16 18 18 17 15 13 13 10 9 7 8 9 8 9 8 10 7 10 8 9 10 11 8 7 7 5 7 6 7 10 11 11 10 11 11 11 13 14 14 14 17 18
12 16 19 19 16 15 15 13 12 10 8 9 9 10 11 11 13 7 10 9 12 7 9 9 7 7 8 8 6 6 8 8 8 9 9 10 11 12 13 14 17 17 17
15 17 20 22 18 17 14 14 13 12 9 9 9 9 10 13 13 12 12 10 10 9 8 9 9 9 9 10 9 9 7 7 7 7 10 11 11 12 16 19 19 18 19
16 18 20 24 21 17 16 14 15 13 11 10 10 11 10 13 12 13 12 12 10 8 8 8 8 8 8 8 8 9 9 7 7 7 11 13 12 14 16 19 21 20 18
18 19 20 25 25 20 16 16 16 15 13 11 10 9 11 12 13 13 12 11 9 8 7 6 5 5 5 5 5 6 6 5 8 11 10 14 15 15 16 19 17 18 17
21 20 22 22 25 23 19 18 17 16 15 13 12 11 11 11 10 11 10 9 8 7 6 4 5 3 3 4 6 6 8 10 11 14 12 12 14 15 14 15 15 15 16
19 22 22 23 24 25 22 19 18 18 17 16 14 12 12 11 10 8 6 6 6 6 6 6 5 4 4 4 4 7 9 13 13 12 10 11 10 11 13 13 12 12 13

GFSSE_500_spd_060.txt.gz
Wind_Speed
12 9 11 12 13 11 11 11 12 11 11 12 11 10 9 8 7 6 4 3 2 2 3 5 5 4 4 5 5 5 6 7 9 11 13 13 12 13 13 13 12 11 11
11 8 10 11 13 11 11 11 12 12 12 11 11 10 8 7 5 4 3 2 2 1 1 2 4 4 4 6 6 7 6 6 9 13 14 13 14 13 13 14 12 13 12
11 9 9 10 12 12 12 12 12 12 12 11 10 8 7 6 6 6 4 3 3 3 3 3 4 4 5 6 7 7 7 4 13 14 14 15 14 14 13 14 15 15 14
9 10 9 11 12 13 13 14 14 13 12 11 10 9 9 8 7 6 4 2 3 4 5 6 6 6 8 8 8 7 10 19 16 15 15 15 14 14 14 13 13 14 14
9 10 10 12 13 13 13 14 14 14 13 13 12 10 11 12 12 11 10 10 8 6 6 6 7 8 9 9 9 10 14 19 17 16 15 15 12 11 11 12 12 12 11
8 10 10 13 14 13 13 13 13 14 13 13 12 13 14 16 16 15 14 15 17 16 13 6 10 11 12 12 13 18 19 18 18 15 13 11 10 10 11 11 11 10 9
8 10 11 13 13 13 14 14 14 14 14 12 14 14 18 18 19 16 16 19 18 16 18 19 17 16 16 16 16 18 16 17 15 14 12 10 9 11 12 12 12 11 10
9 11 12 13 13 13 12 15 13 13 14 13 13 15 17 17 18 19 17 17 19 19 20 21 20 19 18 17 18 17 16 15 14 13 10 9 12 13 13 14 14 15 15
9 11 12 13 13 13 12 13 13 13 13 13 13 15 16 15 15 19 19 18 17 19 18 18 20 18 16 16 16 16 15 13 13 10 11 12 13 13 15 17 19 21 24
9 10 10 13 13 14 13 13 13 14 13 12 13 14 13 13 12 15 17 18 18 17 16 14 14 15 14 14 14 13 14 16 12 12 13 12 14 15 17 18 19 22 25
9 10 12 14 14 13 13 12 13 14 14 11 12 13 10 13 14 14 14 15 17 20 18 11 9 11 12 15 14 15 16 17 17 18 18 16 17 18 17 17 20 22 23
8 11 12 13 15 13 14 12 11 13 12 11 12 12 10 12 11 12 14 14 14 15 16 14 11 11 12 13 14 15 16 18 18 19 20 19 18 17 18 18 19 20 22
9 9 13 12 13 14 15 13 12 11 9 10 8 9 8 10 11 9 12 12 11 16 13 9 15 14 13 16 17 17 16 18 18 19 19 19 18 17 16 18 19 19 21
8 8 13 12 13 14 15 11 11 11 7 6 6 8 5 10 11 9 12 13 13 12 15 11 15 15 16 19 17 18 16 15 18 18 18 18 18 17 17 17 18 19 21
8 10 13 14 15 16 16 11 9 7 5 5 6 7 7 9 11 9 10 11 10 12 12 15 16 19 18 18 18 19 15 15 18 18 17 17 16 15 14 16 17 19 20
7 8 14 15 15 16 18 12 6 6 3 5 4 8 10 8 11 10 10 9 9 11 13 14 14 15 18 18 18 16 18 18 17 19 18 18 17 16 15 15 15 16 18
8 8 14 15 14 17 16 14 9 5 4 3 2 7 8 8 10 10 10 11 8 11 12 13 12 13 17 17 15 15 18 18 18 18 20 19 19 18 18 18 17 17 18
9 10 13 14 14 14 13 15 11 5 5 3 4 7 7 7 9 10 10 10 10 9 12 12 11 13 14 14 12 16 17 17 16 17 19 18 18 19 22 24 25 25 24
11 10 13 16 16 15 12 14 11 9 4 6 7 8 8 8 6 8 10 12 14 11 11 12 12 12 12 12 12 13 14 14 14 16 17 17 17 19 22 23 24 26 26
11 11 13 17 16 14 11 13 11 11 9 8 7 8 9 7 7 10 9 11 13 11 12 13 12 13 12 13 13 12 13 13 13 14 15 17 16 17 18 20 23 25 24
11 11 13 18 18 14 12 12 11 12 11 9 6 9 10 8 9 9 10 9 11 10 11 12 11 13 9 11 12 12 9 10 11 14 14 16 16 16 20 23 24 23 26
15 14 15 16 17 15 13 11 10 10 12 10 6 8 10 11 10 11 11 9 11 11 12 12 11 12 10 9 10 11 9 9 11 12 14 15 18 21 23 22 22 24 27
16 14 16 18 17 14 14 9 9 9 9 9 6 9 10 9 9 12 12 11 11 10 11 11 12 11 11 10 10 9 10 9 13 13 15 17 19 21 22 23 22 25 26
15 17 18 21 20 15 16 13 11 10 10 10 8 8 9 11 9 11 10 10 10 8 9 9 9 9 10 11 9 9 11 13 13 14 15 17 17 19 22 23 22 23 23
17 16 20 22 21 19 14 14 12 8 11 12 11 11 10 11 9 10 10 9 8 8 7 8 6 10 10 12 14 11 14 17 15 13 13 13 15 18 20 21 20 20 18
18 16 19 22 23 20 18 16 15 13 12 13 13 13 13 11 10 9 8 9 7 7 6 7 7 8 9 10 15 16 15 17 17 13 11 10 9 13 17 18 17 17 15

GFSSE_500_spd_063.txt.gz
Wind_Speed
8 9 9 10 9 8 8 7 9 11 12 11 10 9 8 6 4 3 2 3 4 4 3 3 4 5 5 7 7 7 8 10 12 14 14 13 13 13 12 13 11 12 14
10 8 10 11 12 11 10 11 10 12 11 10 8 7 6 5 4 3 2 1 2 3 3 3 3 5 6 6 7 7 9 12 14 13 14 13 14 14 13 13 12 14 14
10 9 9 11 13 12 11 11 12 12 10 9 9 9 9 8 7 6 4 3 2 2 4 4 4 5 6 7 8 8 7 15 14 14 14 15 15 14 14 13 14 14 14
8 10 9 12 13 13 12 13 12 11 11 10 11 11 10 10 10 8 6 4 1 2 5 6 6 7 7 7 7 11 20 17 15 14 15 16 13 14 12 12 14 13 12
7 10 10 13 14 13 12 12 12 12 10 12 11 12 13 14 14 12 13 13 11 8 7 8 10 9 9 9 7 13 18 16 15 14 15 14 12 12 11 11 11 10 10
7 9 10 12 14 14 13 12 12 12 12 12 13 15 17 17 16 15 15 19 17 13 9 12 12 12 12 15 20 16 18 15 14 13 13 12 11 12 10 9 9 8 7
8 9 10 11 13 14 13 12 12 13 12 13 15 18 19 18 18 18 18 19 21 24 22 20 17 17 17 17 16 17 15 14 14 13 12 12 13 12 11 10 9 9 9
7 11 9 10 12 13 13 12 12 13 12 15 17 18 17 19 19 18 18 20 22 22 23 23 21 20 20 18 17 14 13 13 12 11 12 12 12 12 13 13 13 16 20
6 10 10 11 13 13 12 11 12 13 13 15 16 16 16 16 18 17 16 19 20 20 19 19 21 20 19 17 15 13 11 10 10 12 13 12 12 16 17 17 19 23 24
6 9 8 10 12 13 12 11 11 14 13 14 15 16 15 15 15 17 16 14 16 18 16 15 15 18 17 16 15 12 12 11 10 12 12 13 17 18 18 19 22 23 24
6 8 9 9 12 13 13 12 12 13 13 12 14 15 14 16 17 13 15 16 15 16 12 12 13 14 14 16 14 14 16 15 14 16 16 15 17 18 19 19 21 22 24
7 8 8 7 11 13 14 13 12 12 12 12 13 12 12 14 12 13 14 13 14 15 15 11 11 12 11 15 15 16 18 19 17 17 18 16 17 18 19 19 21 21 23
8 6 10 8 11 12 14 14 12 12 11 10 10 10 10 13 12 13 13 10 17 15 11 13 14 13 13 15 17 18 19 18 16 16 17 17 17 17 17 18 20 20 21
8 7 10 11 11 13 13 13 11 10 11 9 8 8 7 12 12 12 13 16 14 16 16 13 14 16 15 15 16 17 18 18 16 16 15 17 17 17 17 18 19 18 19
9 10 12 12 12 13 14 16 11 10 10 10 10 6 5 11 13 11 11 14 15 17 18 16 16 15 15 15 16 17 20 17 15 16 16 15 16 17 16 18 18 18 19
11 9 12 13 13 13 14 14 14 11 10 8 9 7 8 10 11 9 9 13 14 13 15 17 16 16 16 15 17 17 18 15 16 17 19 18 16 15 15 16 17 17 18
12 11 14 15 15 14 13 12 14 11 8 8 6 5 7 9 12 10 11 12 12 13 13 15 17 16 15 16 19 17 14 14 16 19 20 21 20 18 17 18 18 18 19
14 15 16 15 15 16 11 12 14 11 8 9 7 5 5 11 12 11 12 10 14 11 12 13 14 14 16 17 18 16 12 14 15 17 19 21 23 25 23 22 23 22 23
15 17 16 17 16 15 13 11 11 12 10 9 9 7 9 11 10 11 11 9 13 12 13 12 11 13 13 15 15 13 12 14 14 16 18 20 20 23 23 24 24 23 22
14 15 16 17 17 13 12 9 10 12 11 10 9 9 11 11 12 12 10 10 10 11 11 13 11 11 13 14 13 12 13 13 13 15 16 18 17 19 24 23 22 21 23
15 16 18 19 20 16 14 12 9 8 12 8 10 10 10 10 12 13 11 8 10 10 10 10 9 12 11 10 10 11 14 13 12 14 13 15 17 20 22 21 23 25 27
20 20 21 22 23 18 15 12 9 8 10 9 10 10 11 9 9 11 12 11 11 11 10 9 8 10 11 10 7 7 11 14 13 13 13 16 19 21 21 24 24 25 26
21 22 24 24 22 18 16 14 10 11 8 11 12 12 12 10 10 10 13 11 11 11 11 10 10 9 11 10 9 6 7 13 13 13 13 16 18 20 23 23 24 23 23
22 24 26 25 22 20 17 17 15 11 10 11 12 13 12 11 12 8 10 12 11 11 12 10 9 10 9 11 10 8 9 13 13 13 13 14 14 19 20 20 19 18 18
21 23 27 27 24 21 21 19 16 12 11 11 13 14 13 12 11 10 8 8 9 7 8 10 9 11 8 10 12 10 12 14 13 12 11 11 10 17 16 15 14 14 15
21 21 25 26 23 21 20 18 16 15 14 13 14 14 13 12 11 9 7 6 8 7 9 10 11 11 9 10 14 15 13 14 12 10 10 9 9 16 14 14 13 12 12

GFSSE_500_spd_066.txt.gz
Wind_Speed
10 8 11 11 11 11 13 13 13 12 11 11 10 9 6 4 2 2 2 2 2 3 4 5 6 7 6 7 7 8 10 12 14 13 15 13 13 13 12 12 13 15 14
12 10 12 11 11 14 15 14 13 12 11 10 7 5 4 3 2 2 1 2 3 3 2 5 6 7 7 7 7 9 12 13 13 15 14 13 14 14 14 13 14 14 14
12 12 11 12 13 15 14 13 12 11 10 8 7 7 7 7 6 5 2 1 3 3 3 5 6 6 7 7 7 11 14 15 14 13 15 13 14 14 15 14 15 14 14
10 13 12 12 15 16 15 15 13 11 10 11 11 11 12 12 11 8 4 2 5 7 6 7 6 7 7 8 8 19 17 16 14 14 14 13 13 13 13 13 13 12 13
9 13 13 14 16 16 16 15 14 12 12 12 12 15 18 17 16 16 15 11 10 11 10 10 9 9 8 8 14 21 18 16 14 14 13 13 11 11 10 9 10 10 10
10 12 11 12 14 15 15 13 14 14 14 14 16 20 21 20 19 17 16 14 14 15 14 14 12 12 12 9 16 20 17 15 13 13 12 11 10 9 9 9 9 7 8
11 12 11 11 12 13 13 12 13 13 14 13 16 21 21 20 20 20 22 23 22 20 19 17 16 14 14 20 19 18 14 13 14 12 12 11 10 10 9 10 9 9 10
10 13 11 11 11 12 13 12 12 13 14 12 15 19 19 19 19 20 23 24 23 23 21 19 18 17 16 18 16 14 13 13 13 12 12 12 12 12 12 13 16 17 16
9 10 10 10 11 11 12 11 11 12 14 13 15 16 17 19 19 18 20 23 22 22 20 18 17 16 16 14 14 12 12 13 14 13 11 12 14 15 17 20 21 20 16
10 9 9 9 10 10 11 11 10 12 13 14 15 17 18 17 17 18 17 17 19 18 18 15 14 15 15 14 13 12 13 14 14 12 12 13 16 17 19 20 20 20 20
10 10 10 8 9 10 12 12 10 12 12 13 16 16 18 18 15 17 17 16 16 15 15 15 14 14 14 14 14 14 16 17 16 15 14 15 16 17 17 19 20 21 24
10 11 10 8 7 9 10 12 11 11 12 12 13 14 14 15 16 15 14 12 17 15 13 14 12 13 13 15 14 16 19 20 19 17 15 14 14 16 17 19 19 20 22
9 9 10 8 7 9 10 11 11 11 12 11 11 11 12 17 15 15 12 15 14 16 14 13 13 13 13 15 16 16 19 19 19 16 14 14 15 16 18 19 18 19 20
10 11 9 9 8 10 11 12 11 10 12 10 10 11 9 13 16 17 16 14 15 17 14 13 15 16 14 16 17 18 19 20 18 15 14 14 15 15 17 18 18 18 20
11 11 11 9 9 11 12 12 11 10 13 11 11 12 10 11 15 16 15 15 16 15 17 16 16 15 16 16 18 19 20 20 15 14 15 14 15 15 16 17 17 19 20
12 9 10 11 12 12 14 13 13 12 12 11 11 13 10 9 11 12 14 15 16 16 16 17 16 15 15 16 17 18 18 17 15 16 17 16 15 15 15 17 17 18 21
13 11 11 12 13 14 15 13 12 11 11 10 13 13 11 12 11 9 13 14 15 15 15 17 17 16 15 15 15 17 17 17 16 16 17 17 16 16 17 17 18 22 24
14 14 14 13 13 14 13 12 11 10 8 11 12 12 10 9 11 10 11 12 11 15 15 16 17 17 17 15 14 15 15 15 17 18 19 18 19 19 19 21 23 23 22
15 17 17 14 15 15 14 12 10 12 10 11 11 11 11 9 11 10 11 11 12 11 13 15 16 18 17 15 14 14 13 14 15 16 17 19 20 21 23 23 21 20 22
17 17 18 18 18 15 13 11 10 14 14 13 12 11 8 10 10 11 12 12 11 12 11 13 14 15 16 15 14 13 13 14 14 14 14 15 18 20 20 19 21 23 25
20 20 19 20 19 17 17 13 11 15 14 12 12 11 12 11 10 10 9 10 11 10 10 10 12 12 13 15 15 12 13 15 13 13 12 14 17 17 19 21 24 26 25
22 22 21 23 21 16 15 12 11 13 15 14 12 13 13 13 10 9 8 9 8 8 8 10 9 10 9 12 13 12 11 14 14 13 13 17 17 19 21 23 24 23 21
20 19 22 25 23 17 14 14 13 15 16 17 14 13 10 12 13 10 10 11 10 8 8 9 10 10 10 9 11 10 12 13 14 14 15 16 18 20 21 21 19 18 17
21 19 22 25 23 19 17 16 15 13 14 16 15 14 11 10 13 12 10 11 11 9 9 9 9 11 11 9 10 11 13 13 13 14 14 15 18 19 19 17 16 16 16
22 22 22 25 22 20 18 17 14 12 15 15 16 15 15 13 13 13 12 10 10 9 8 9 9 10 12 12 10 13 13 13 14 13 12 14 19 17 16 13 14 13 14
24 23 24 25 24 23 21 17 15 14 15 16 18 17 17 16 14 13 13 10 9 9 10 9 9 10 11 12 12 15 13 13 12 12 12 13 16 13 12 12 11 12 12

GFSSE_500_spd_069.txt.gz
Wind_Speed
13 14 14 14 12 13 14 15 14 12 11 10 9 8 8 7 5 3 3 3 4 5 4 4 4 5 6 7 8 10 11 13 12 13 13 12 12 12 13 14 15 14 13
16 14 15 13 13 14 15 15 14 13 12 11 10 9 8 6 3 1 2 3 4 4 5 5 4 5 6 6 9 11 12 13 15 12 13 12 13 14 15 15 15 14 14
17 16 15 13 15 15 14 14 13 13 12 11 10 9 7 5 3 1 3 5 6 6 6 5 4 4 4 5 11 14 14 13 14 13 13 12 14 15 15 15 15 14 15
16 16 14 14 16 16 14 13 13 13 13 12 11 9 8 8 6 3 4 7 8 8 8 7 6 4 2 4 13 17 16 14 14 13 13 12 13 13 13 14 13 13 13
15 16 14 14 15 16 15 14 14 13 12 11 13 13 13 12 11 9 9 11 12 12 10 9 6 4 2 11 25 19 16 14 13 12 11 12 11 10 10 11 11 11 12
16 16 14 14 14 16 16 14 13 13 13 15 17 17 17 16 14 14 15 17 17 16 15 11 9 10 13 14 21 19 15 14 11 11 11 11 9 9 8 8 9 10 10
17 16 15 13 14 15 16 14 12 12 15 16 18 19 19 19 21 21 20 19 18 18 15 14 16 19 21 21 19 16 14 12 11 14 12 11 9 8 8 8 9 9 9
16 16 14 13 14 14 15 14 12 12 14 15 19 21 20 19 21 23 23 22 20 19 17 17 17 18 18 17 15 14 13 13 15 14 13 11 9 10 11 13 13 12 9
14 13 12 11 13 13 13 13 13 12 13 15 17 20 19 18 19 21 22 22 20 19 18 17 16 15 14 14 13 13 13 16 16 13 12 12 13 13 16 16 15 13 12
14 11 10 10 12 12 12 13 13 14 14 15 17 18 19 19 17 17 18 19 18 16 16 14 14 14 13 13 12 13 15 17 15 14 14 14 15 16 16 18 18 19 20
15 12 10 8 10 11 12 11 13 13 14 14 16 18 18 17 18 15 14 15 16 14 15 14 15 13 14 13 14 16 18 19 17 16 14 16 15 15 17 19 21 22 23
14 13 11 8 9 9 12 11 12 12 13 13 13 14 17 16 16 14 12 14 14 13 14 13 14 14 16 15 16 18 18 20 17 16 14 15 14 16 17 19 20 21 22
13 13 12 10 11 9 11 11 11 11 13 13 13 13 15 15 12 15 13 15 15 13 13 14 15 16 16 16 15 17 18 18 19 15 13 13 13 14 15 17 17 18 20
14 13 11 10 11 11 11 11 11 9 12 13 12 12 13 15 14 16 15 16 16 14 14 15 16 16 16 17 16 16 18 17 18 16 13 13 13 13 15 16 17 19 21
13 12 13 10 10 11 10 11 10 10 12 12 12 14 13 13 13 16 17 16 16 16 16 15 16 17 18 17 17 16 17 17 15 14 15 14 14 13 14 16 18 20 20
12 12 13 12 11 11 11 10 11 10 11 11 12 13 13 12 13 14 16 17 17 16 15 15 16 17 17 16 17 18 18 17 14 14 15 15 15 14 15 17 19 20 22
13 13 13 13 13 12 12 9 9 11 11 11 12 11 12 13 12 14 14 15 16 16 15 15 16 17 17 16 17 18 19 18 15 13 14 14 14 15 16 19 21 21 23
15 15 14 13 14 14 12 10 9 8 11 9 12 12 12 12 12 14 12 13 14 15 15 14 15 16 16 16 16 18 19 17 15 14 13 13 14 16 19 21 20 21 23
16 16 15 15 15 16 13 11 9 10 12 12 12 12 12 10 10 11 11 12 12 14 15 16 15 14 14 14 16 17 18 16 15 14 15 16 17 20 20 19 19 22 23
16 15 15 16 18 15 15 11 10 12 15 14 13 12 10 10 10 10 10 10 12 13 14 15 15 13 12 14 15 16 17 15 14 14 14 15 18 18 17 17 20 22 22
15 16 16 17 20 18 17 11 10 13 15 14 14 11 12 9 9 9 9 11 10 11 12 12 14 14 13 13 15 15 15 14 13 13 14 16 15 16 18 20 21 21 21
17 18 18 18 20 18 16 12 12 14 15 16 14 12 11 10 7 7 9 10 11 11 11 10 11 13 13 12 12 14 13 13 13 14 16 15 18 20 21 22 20 20 19
19 19 21 21 21 18 16 15 15 16 16 17 15 13 11 10 8 7 9 10 10 11 11 11 10 10 11 9 11 12 13 13 13 14 16 19 20 20 20 18 17 16 17
22 23 23 23 22 18 17 18 17 15 15 16 16 15 13 11 10 10 9 8 8 9 10 11 11 10 11 12 10 12 12 13 14 14 14 19 20 18 17 16 15 16 16
20 23 25 24 22 19 18 17 16 16 17 18 19 16 16 13 12 10 10 9 9 8 8 10 12 11 11 11 12 13 13 13 14 13 14 19 18 16 14 14 14 14 16
22 22 24 26 25 21 19 17 17 17 19 18 20 17 16 15 14 13 11 10 9 9 8 7 11 12 11 11 13 14 13 12 13 12 14 19 16 13 13 11 11 12 14

GFSSE_500_spd_072.txt.gz
Wind_Speed
15 14 16 14 13 15 14 14 13 13 11 9 7 6 5 6 7 7 6 7 6 5 4 4 4 4 4 5 7 8 12 11 10 11 10 10 10 12 14 13 13 12 12
17 15 16 14 14 15 14 14 14 12 10 8 7 5 4 3 4 5 6 6 6 5 4 4 3 3 4 6 8 11 13 13 11 11 11 10 11 13 13 13 13 13 13
17 16 16 14 14 14 14 14 14 12 11 9 7 6 4 2 2 4 6 7 7 5 5 3 3 3 3 7 12 15 14 14 13 11 12 12 14 14 14 13 13 13 13
17 16 16 15 15 15 15 15 14 13 11 9 9 8 6 6 5 3 6 10 9 8 7 4 3 3 5 8 15 16 14 14 12 11 11 12 13 13 12 12 12 12 12
17 16 16 16 16 15 16 14 14 12 10 12 12 11 11 9 7 6 9 13 13 11 8 5 0 5 5 17 23 17 15 13 11 10 11 10 10 10 10 10 10 10 11
17 16 16 16 16 15 14 14 12 12 13 13 14 15 15 14 12 11 12 15 14 12 10 9 14 17 20 26 18 16 14 11 11 11 10 9 8 8 8 8 8 8 9
16 15 15 15 14 13 12 12 11 12 14 14 16 17 18 19 17 16 17 15 15 14 15 16 20 22 22 20 16 14 12 11 11 12 11 9 7 7 7 8 8 7 8
15 15 13 14 13 12 11 11 11 12 13 16 17 18 19 21 21 20 18 17 16 16 17 18 19 19 17 15 14 13 12 13 13 13 13 9 8 7 9 9 8 7 6
14 15 13 13 12 11 10 10 11 12 12 14 18 18 17 19 21 20 20 18 17 17 17 17 17 15 13 13 12 11 12 12 13 13 13 13 12 15 15 13 11 8 7
15 14 13 12 12 11 10 11 12 12 13 15 16 19 16 16 17 18 18 19 17 16 16 15 14 14 11 11 11 12 12 12 15 17 17 17 17 16 16 16 16 17 18
16 15 13 11 11 11 10 11 12 12 13 15 13 14 17 16 15 14 14 15 15 14 15 15 14 14 12 12 13 12 13 15 17 18 17 16 17 17 18 19 20 23 26
17 15 13 12 11 10 11 11 11 12 13 12 11 12 13 14 16 14 12 13 14 14 15 15 15 15 14 14 15 13 14 16 17 16 16 16 17 18 20 20 21 23 24
17 15 13 12 11 10 10 11 11 11 12 12 11 11 12 12 15 16 15 13 13 13 13 15 16 16 16 14 14 13 14 16 17 16 16 15 16 17 17 18 19 21 21
17 15 13 11 11 12 10 10 10 10 10 11 10 11 12 14 13 13 13 14 15 14 13 15 17 16 16 13 13 13 13 16 16 16 15 14 15 15 15 16 18 19 20
16 16 13 11 11 11 10 8 8 10 9 10 10 10 11 13 14 14 13 14 15 15 14 14 16 16 16 15 12 12 14 15 15 14 14 13 14 14 15 17 18 19 20
16 15 15 13 12 12 10 7 8 10 10 11 11 11 10 12 13 14 13 13 15 15 15 15 16 17 16 15 15 14 14 15 15 13 13 12 13 14 16 16 19 19 20
15 16 14 15 13 13 11 8 8 8 9 10 11 11 10 10 12 14 13 10 12 14 14 15 14 16 17 18 17 16 16 16 15 13 12 10 12 13 16 19 20 20 20
15 16 16 16 15 13 12 9 8 7 10 8 11 12 13 11 9 11 13 11 11 12 13 14 14 15 17 17 16 16 16 15 14 12 12 11 12 15 18 19 20 20 18
15 17 18 17 15 14 12 11 9 9 9 8 9 11 14 13 10 9 11 12 12 11 12 13 14 15 15 16 15 15 16 16 15 12 13 12 15 17 16 17 19 21 21
15 15 16 16 16 15 12 12 9 10 12 10 8 9 12 14 9 9 9 10 11 12 12 12 11 13 13 13 14 15 15 16 15 15 16 18 17 15 16 18 21 21 21
16 16 17 18 17 16 14 10 8 11 13 13 10 10 10 11 10 7 8 9 10 9 11 12 11 10 11 13 13 12 13 13 13 16 16 16 15 16 18 21 21 20 20
17 18 18 17 19 15 12 9 8 12 15 13 12 9 10 10 8 8 6 8 10 9 9 11 12 11 11 12 12 12 13 12 13 14 15 17 17 19 21 21 19 18 18
18 20 20 19 19 17 14 12 12 15 16 15 13 13 10 10 8 6 8 8 9 10 9 10 10 11 11 12 11 12 13 13 14 13 15 17 19 21 20 17 16 16 17
19 20 21 21 20 19 18 16 14 14 13 15 14 12 12 9 8 7 8 9 9 9 9 9 10 10 9 11 13 12 13 14 13 14 17 18 19 17 16 15 14 14 16
20 19 22 22 22 21 19 17 15 15 15 15 16 13 12 11 10 8 8 9 8 9 9 9 9 10 10 9 13 13 13 14 13 12 18 20 17 16 15 15 14 15 16
20 19 20 22 24 23 20 18 16 15 16 16 17 16 15 14 12 11 9 8 8 6 6 8 9 10 11 9 12 14 13 14 13 14 19 17 15 14 13 13 13 14 14

GFSSE_500_spd_075.txt.gz
Wind_Speed
13 14 14 13 14 13 13 13 12 10 9 8 7 6 6 5 6 6 6 5 5 4 2 1 1 1 2 3 4 7 9 10 10 10 9 9 9 10 12 12 12 12 13
13 13 14 13 14 14 14 13 11 8 7 7 5 4 4 5 6 6 7 7 5 3 2 1 1 1 3 4 7 9 10 10 10 10 10 10 11 12 13 12 12 12 13
14 14 15 14 14 13 13 13 11 9 8 7 6 4 2 3 5 7 8 8 6 3 3 2 1 3 4 6 8 9 11 10 10 11 12 12 12 11 11 11 12 13 12
14 14 15 14 14 13 13 13 12 11 10 8 8 6 5 4 5 8 9 8 6 3 1 1 2 4 5 7 14 17 13 11 10 11 11 12 11 10 10 10 11 12 12
15 14 15 14 14 14 14 13 11 10 11 11 11 10 8 6 6 8 9 9 6 3 3 5 7 8 4 21 19 15 12 11 10 10 9 10 9 9 8 9 10 11 11
15 15 15 14 14 14 13 12 13 13 13 13 14 14 13 13 13 11 11 10 7 7 7 14 18 21 25 20 16 14 11 11 11 9 8 7 7 7 7 8 9 9 9
14 14 14 13 13 12 11 11 13 13 13 14 16 17 17 17 18 18 15 13 12 12 15 18 23 21 20 17 14 12 12 12 11 10 9 7 6 6 6 7 8 8 7
14 13 12 12 11 10 10 11 12 13 13 14 17 18 19 19 19 19 17 15 15 15 14 16 17 17 16 14 12 12 11 12 11 9 9 8 8 7 7 7 6 5 5
12 12 11 10 11 10 10 10 11 11 12 13 15 17 18 19 19 20 19 18 16 15 14 14 13 13 12 12 11 11 11 10 12 14 15 14 14 12 11 9 7 5 4
12 10 10 9 9 10 10 10 10 11 12 13 13 14 15 16 16 17 18 18 17 15 14 13 12 12 10 10 12 15 10 13 19 18 20 19 16 15 16 16 16 16 16
14 11 10 9 8 8 9 10 10 11 12 11 12 12 12 13 14 15 16 16 16 15 13 13 13 12 11 11 12 10 12 15 18 20 22 20 19 20 20 21 22 25 26
15 12 11 10 8 7 8 9 9 10 11 11 11 10 12 12 11 11 13 16 16 16 14 14 13 12 12 12 12 11 14 16 19 22 22 22 21 20 20 20 22 24 24
17 14 11 11 10 9 7 8 8 9 10 12 11 10 13 11 13 11 11 13 14 15 15 15 14 14 12 13 12 11 13 17 19 21 21 20 19 19 19 19 20 21 21
17 16 13 11 11 9 8 6 7 8 8 9 12 13 12 10 10 12 11 13 14 14 15 13 13 14 12 12 12 12 13 16 18 19 19 18 16 15 16 17 18 19 19
16 16 14 11 11 10 8 5 5 6 7 7 9 12 11 12 12 12 12 13 14 13 14 13 13 14 13 13 12 12 13 15 16 17 17 16 16 15 16 17 18 19 20
15 15 14 13 12 10 9 7 5 6 6 6 7 9 11 11 12 12 12 13 14 13 13 14 14 15 14 14 13 12 12 15 15 15 15 14 14 15 16 17 18 19 19
14 14 14 14 13 10 9 8 6 6 8 7 5 6 8 9 10 10 12 12 12 11 12 13 14 16 15 15 15 15 14 15 14 13 13 12 12 15 19 18 18 17 18
15 15 14 13 13 12 9 8 8 6 8 7 4 5 6 8 10 10 8 11 10 9 11 12 13 14 16 15 14 14 13 14 14 13 13 12 14 17 19 19 18 18 20
14 15 14 13 13 12 10 8 7 6 8 8 6 6 6 6 9 10 8 9 9 9 9 11 12 13 14 15 15 15 14 11 12 13 13 15 18 19 19 19 19 20 20
15 14 13 13 13 13 11 8 6 6 8 8 7 5 6 5 6 8 9 8 8 8 9 10 10 12 11 14 15 14 15 14 14 14 16 18 18 19 20 20 19 19 22
15 14 15 15 16 15 11 8 6 7 9 9 8 7 8 7 6 7 8 8 8 7 5 7 8 9 9 10 12 14 14 14 15 15 15 14 17 21 21 19 18 21 22
15 15 17 17 17 14 10 9 8 8 11 9 8 6 8 7 7 7 8 8 8 9 7 6 7 7 8 9 9 10 14 15 14 13 13 16 19 21 19 18 18 20 20
16 17 18 20 18 14 12 11 10 9 9 12 10 9 8 6 6 5 7 8 7 7 8 8 8 7 8 9 10 11 10 13 15 15 15 17 20 19 17 15 16 17 17
20 17 18 19 18 17 14 13 9 9 10 11 10 9 9 6 5 4 6 6 7 7 7 8 9 8 7 9 10 12 11 11 8 18 18 19 18 16 14 13 14 14 15
20 18 18 19 18 18 16 14 10 11 12 15 11 10 9 7 6 6 7 7 8 8 7 7 9 8 6 9 11 12 12 11 13 9 20 19 15 13 12 12 12 13 14
20 20 19 19 20 19 17 16 14 12 12 13 12 12 9 7 7 7 9 9 8 8 7 7 8 8 8 7 12 12 11 9 13 17 16 14 13 12 12 11 11 12 12

GFSSE_500_spd_078.txt.gz
Wind_Speed
14 14 15 15 14 13 12 12 11 10 8 7 6 5 4 4 4 5 4 4 3 3 4 4 5 5 6 7 7 9 9 8 8 8 9 10 11 12 12 13 13 15 17
15 14 15 15 14 13 12 12 10 9 6 5 4 3 4 5 5 4 3 2 2 2 3 4 4 4 3 4 5 8 8 9 8 9 10 12 12 13 12 13 13 14 14
16 14 14 14 14 13 12 12 12 10 8 6 4 1 3 4 5 4 3 2 1 1 4 5 4 1 1 3 6 4 9 9 11 11 10 12 12 12 12 13 13 13 12
15 13 14 15 13 14 14 13 13 11 10 9 7 5 3 2 5 6 4 2 2 4 5 6 4 1 2 4 12 11 10 11 11 11 10 12 11 11 12 12 12 12 12
14 13 13 14 14 14 13 13 12 12 12 11 10 8 6 5 6 8 6 5 6 7 9 8 4 3 8 20 16 13 11 10 10 9 10 10 10 11 11 11 11 10 11
13 13 13 13 13 13 13 13 13 13 14 15 17 16 14 12 12 13 11 11 12 13 16 17 22 24 20 18 15 12 11 9 9 9 9 9 9 10 9 9 9 9 9
13 12 12 13 12 12 12 12 12 13 16 18 19 20 21 21 20 19 16 15 15 17 19 19 23 20 18 16 13 13 10 11 8 10 9 9 9 8 7 7 8 8 8
12 11 11 10 10 11 11 11 12 13 15 17 19 20 21 21 20 20 18 16 16 17 16 17 17 16 15 14 14 13 12 11 9 10 12 11 11 9 7 6 7 7 9
10 10 10 9 10 10 12 11 12 13 14 15 16 18 19 21 21 20 19 17 15 14 14 14 14 14 14 14 14 13 12 12 13 16 16 16 15 12 9 7 7 9 11
11 10 9 8 10 11 11 11 13 12 14 13 13 15 16 18 19 19 18 17 16 15 14 15 15 15 15 16 16 13 17 20 20 21 19 19 18 17 16 14 15 16 16
10 9 10 8 10 11 11 11 12 12 11 12 12 12 12 13 16 18 17 17 16 16 16 16 16 15 14 12 13 15 18 18 23 22 23 22 22 22 23 24 25 25 23
13 10 9 8 9 9 10 10 10 10 11 11 13 9 7 10 14 18 17 15 15 16 16 18 15 14 14 13 15 17 21 20 23 24 24 23 22 23 25 26 26 25 24
11 11 10 8 10 8 8 7 8 9 12 10 10 11 9 11 14 15 14 12 14 14 18 16 16 17 13 14 16 17 19 21 22 23 23 22 21 22 23 23 24 24 24
10 10 8 9 10 7 6 6 5 9 10 12 12 10 8 11 14 5 12 9 13 11 17 13 15 14 13 16 17 16 19 20 20 20 20 19 20 21 21 22 24 24 23
10 9 10 8 7 6 6 5 4 7 8 12 11 12 13 12 13 14 11 9 15 14 17 18 15 14 13 16 16 15 17 19 19 19 19 19 19 20 21 23 23 23 22
10 9 9 10 8 7 4 6 5 5 7 10 12 12 11 12 14 14 12 9 11 13 13 20 15 14 14 16 16 16 17 18 18 18 18 18 17 19 21 22 21 22 21
11 9 9 9 8 7 4 5 8 6 6 9 9 8 9 8 12 14 12 11 11 13 15 16 13 16 15 16 16 16 16 16 17 17 17 17 17 18 21 20 20 20 21
12 10 9 9 8 8 4 4 5 7 5 6 7 5 8 9 8 14 11 10 11 13 13 11 15 15 16 15 16 16 15 14 15 16 16 19 20 20 19 19 19 19 23
11 11 9 9 9 9 7 4 4 7 6 6 5 9 6 7 7 8 9 8 9 12 11 12 14 15 14 16 14 14 13 13 14 14 19 19 21 19 19 19 19 21 23
11 12 11 10 10 10 8 4 4 5 9 3 4 6 5 7 7 5 7 6 7 10 10 10 11 12 13 14 14 15 16 14 14 16 18 19 20 19 19 20 20 22 20
14 13 13 12 12 11 8 5 4 5 6 7 5 5 6 4 6 4 5 6 7 8 9 9 8 10 12 13 14 14 16 19 18 18 14 15 19 19 18 19 20 20 19
15 14 14 12 12 11 8 6 5 5 8 6 6 4 4 3 4 5 5 5 6 9 9 8 8 9 9 11 12 10 12 17 17 16 16 16 19 18 17 18 19 18 18
16 15 14 14 12 12 10 8 3 2 6 4 5 2 3 3 2 1 4 5 6 6 8 8 7 8 9 9 11 14 8 11 17 16 18 16 18 16 16 16 17 16 15
17 16 15 14 13 13 11 8 5 8 10 9 5 4 4 1 2 2 4 6 6 6 7 9 7 7 9 9 10 11 12 12 12 14 19 18 16 14 15 15 13 13 11
17 18 17 15 14 14 12 9 7 9 9 6 8 5 3 3 1 1 2 4 4 6 6 7 8 7 7 7 8 11 8 9 12 16 19 19 15 11 11 12 11 10 9
15 16 17 16 17 17 15 12 10 9 9 3 8 7 4 5 3 3 3 4 4 3 5 6 6 8 8 10 10 9 7 5 12 10 15 14 12 10 9 9 9 9 8

GFSSE_500_spd_081.txt.gz
Wind_Speed
16 17 15 15 15 14 12 11 10 9 7 6 5 5 5 4 4 4 5 5 6 7 8 9 10 9 10 10 9 10 11 11 12 13 13 15 15 15 15 16 17 19 17
16 15 15 16 15 13 12 11 12 11 7 4 2 2 2 3 2 3 4 4 5 7 8 8 8 8 8 7 8 10 12 13 13 13 14 15 16 15 16 16 16 17 16
16 14 15 16 16 15 15 14 13 11 9 5 2 2 3 3 3 1 2 4 6 6 6 5 6 6 5 5 6 5 11 14 14 14 13 14 15 15 15 15 16 15 15
16 14 16 17 17 17 16 15 14 14 12 9 5 4 5 5 4 3 5 7 8 8 7 5 2 5 4 4 10 10 13 16 14 13 12 13 14 14 14 16 16 15 15
16 14 15 17 17 17 17 15 14 15 14 13 11 8 6 7 8 10 10 10 12 12 9 6 6 7 18 17 13 12 12 13 14 11 11 13 13 14 14 15 15 15 15
15 14 14 16 16 16 16 15 15 17 18 19 19 16 15 14 16 16 15 17 17 18 20 24 26 22 19 15 12 13 13 12 12 11 12 12 13 13 13 14 15 15 14
14 14 14 14 14 15 16 15 15 17 20 22 23 24 24 23 21 19 18 20 18 19 21 24 22 19 16 15 14 14 11 13 12 12 13 12 12 12 12 13 14 15 14
14 14 14 13 13 14 15 14 14 16 19 22 23 24 23 22 21 19 20 19 19 19 18 19 18 17 16 16 15 14 12 12 11 14 14 13 12 11 12 13 14 14 14
13 14 14 13 12 13 14 14 15 15 18 20 21 22 21 22 20 19 18 17 18 18 18 18 17 15 15 15 16 15 13 12 15 18 17 17 14 12 13 15 15 15 15
12 12 12 12 12 13 12 14 13 15 16 17 17 18 18 20 20 18 17 17 18 18 19 19 19 19 18 18 19 18 18 19 21 20 21 21 18 16 17 18 19 18 18
11 11 12 11 12 12 12 12 13 13 16 16 13 14 16 18 19 17 16 17 18 18 19 20 19 19 19 18 18 24 21 22 23 24 26 26 26 27 27 26 25 23 21
9 10 9 11 10 10 12 12 12 13 16 17 15 11 15 17 19 18 17 17 17 18 18 19 19 20 21 20 15 22 23 24 25 27 29 28 28 29 30 28 26 23 22
6 9 7 10 9 10 11 11 12 12 14 13 12 14 15 14 16 16 18 19 16 15 17 17 16 19 21 22 19 24 25 24 26 27 27 27 27 27 27 28 27 25 24
6 7 7 8 9 9 12 10 9 10 14 13 9 11 12 15 14 17 18 19 14 14 16 18 19 20 22 21 21 24 24 24 25 25 25 24 25 27 27 27 25 24 23
6 6 6 8 5 8 8 9 8 10 10 13 15 12 12 14 17 17 17 18 18 15 15 18 20 18 21 22 21 23 23 24 24 24 23 23 24 26 25 24 23 22 24
5 4 3 6 4 7 7 7 9 10 11 14 16 11 13 12 17 16 17 16 18 18 16 15 18 18 20 21 21 21 21 22 22 23 22 22 24 24 23 22 21 22 23
5 5 5 5 6 6 6 5 8 11 14 11 13 11 11 13 15 15 17 16 18 20 17 18 18 19 18 19 20 20 19 20 19 21 23 22 23 22 20 19 20 22 22
11 9 6 4 4 5 6 2 8 11 11 10 13 10 11 14 15 13 14 15 16 16 17 15 17 18 18 18 16 18 17 17 18 21 24 23 23 20 19 20 21 22 22
9 8 6 4 4 4 5 4 6 8 11 10 11 10 9 10 15 13 14 12 15 14 16 15 16 16 15 16 15 14 16 16 18 19 21 21 20 19 19 22 21 21 21
10 10 8 7 6 5 4 4 4 7 10 11 11 12 11 8 12 10 12 10 13 12 14 13 16 14 14 16 13 11 15 16 19 17 18 20 20 19 19 20 22 20 19
12 10 11 9 6 5 4 3 4 5 8 11 10 8 10 8 9 9 9 10 10 11 12 12 13 13 14 15 14 13 15 20 21 15 17 20 19 19 18 19 20 17 17
12 11 11 10 8 7 7 5 4 5 6 8 8 8 9 6 8 8 7 10 9 10 11 10 11 12 12 12 17 13 15 17 18 19 19 18 18 17 15 18 18 15 16
13 12 12 11 10 9 9 6 6 7 7 7 7 7 8 6 7 6 6 6 8 9 10 9 11 9 10 11 14 16 12 13 15 18 20 18 18 15 15 15 16 12 13
15 15 13 12 12 11 11 8 7 10 8 8 5 4 7 5 5 8 7 4 5 7 8 9 8 10 10 10 9 10 11 11 12 17 20 19 16 14 14 15 12 10 7
15 16 15 14 14 13 11 9 7 9 11 8 6 6 4 5 4 6 7 6 6 6 8 7 7 9 11 11 9 8 4 7 8 13 20 20 16 13 12 13 11 8 7
13 13 15 16 16 15 13 10 8 7 9 10 10 7 6 3 1 3 5 5 6 8 8 8 7 8 7 9 10 8 4 3 9 9 14 18 14 14 11 10 9 8 5

GFSSE_500_spd_084.txt.gz
Wind_Speed
18 18 17 15 14 12 10 8 6 4 4 5 5 4 5 7 9 9 8 8 8 8 8 8 8 11 12 12 12 11 12 12 14 14 15 16 16 17 18 18 19 18 17
20 17 17 17 16 14 11 9 6 5 4 3 1 2 2 4 6 5 6 6 6 5 5 6 8 9 11 12 11 12 13 14 17 17 16 16 16 17 18 17 18 17 16
20 17 18 18 17 16 14 12 9 7 5 2 1 1 0 2 4 4 5 6 5 4 4 4 7 9 11 11 8 13 16 16 16 16 15 16 17 18 16 15 15 16 15
19 17 18 18 18 18 17 15 13 11 8 3 2 3 3 4 5 6 6 5 5 4 4 3 8 9 10 16 15 16 15 16 16 15 14 15 16 18 17 16 15 15 15
19 18 17 18 19 19 18 18 17 15 12 9 6 7 7 10 10 9 9 9 10 7 7 11 11 19 18 17 16 16 13 14 16 14 14 14 15 18 17 17 15 14 14
18 17 16 17 18 20 19 19 19 18 18 17 16 15 13 16 15 15 14 15 18 19 21 24 22 19 17 17 16 13 13 14 14 13 14 14 15 17 16 16 14 13 14
18 16 15 16 19 19 19 19 20 19 20 21 22 21 20 19 18 17 17 18 19 20 21 22 19 17 17 17 16 14 13 12 12 13 15 14 16 16 17 16 14 14 15
17 16 15 15 18 18 18 18 19 18 18 20 21 19 19 19 18 18 18 18 19 18 17 17 15 16 17 16 15 14 12 11 13 14 15 15 16 17 17 16 15 15 16
14 16 15 15 17 17 15 16 17 18 17 19 20 18 18 18 18 18 19 18 18 18 17 16 15 13 12 13 15 14 15 14 16 15 16 16 16 17 17 17 16 16 18
13 14 14 14 14 15 13 13 15 15 15 16 18 17 14 16 18 18 19 19 19 19 19 18 18 15 15 12 18 19 18 18 18 16 16 18 18 20 19 19 17 18 18
12 12 12 12 14 14 14 13 14 15 14 15 16 17 14 14 17 18 20 19 21 20 19 18 16 17 20 20 22 23 21 23 22 22 22 25 24 25 24 22 20 20 20
10 11 9 11 14 15 15 14 15 16 16 16 14 16 16 14 16 19 21 20 20 22 22 19 15 15 17 20 22 24 25 26 25 26 30 31 30 29 27 23 22 23 20
7 11 9 10 13 13 13 13 16 14 14 15 14 13 13 13 17 17 20 20 18 20 18 19 18 17 18 22 26 27 27 26 26 28 30 30 30 29 28 26 24 22 21
7 7 8 11 11 12 12 10 14 15 13 12 13 14 12 13 14 17 19 21 20 21 20 19 21 20 19 23 26 26 25 25 25 26 28 30 30 28 26 24 23 23 22
6 8 5 8 9 11 11 9 12 14 16 17 14 17 13 12 13 16 22 19 18 20 20 20 22 22 22 21 25 25 24 25 24 25 27 28 27 26 24 22 22 22 21
7 8 6 7 9 9 11 10 10 15 16 14 14 15 15 13 14 17 19 19 17 18 20 21 21 20 20 22 23 22 22 23 23 24 27 27 25 23 21 21 21 20 21
8 7 6 7 7 8 11 11 10 13 14 14 15 15 15 15 15 16 20 20 18 18 18 19 20 19 18 20 21 20 19 21 22 24 25 24 22 21 20 20 20 20 21
9 8 7 5 7 6 10 9 6 10 13 14 14 14 16 14 15 16 17 16 15 16 17 18 19 18 17 17 17 18 18 18 21 22 24 23 21 20 21 20 19 19 20
6 6 5 5 5 4 8 8 6 9 11 10 13 13 13 16 15 14 18 15 16 16 15 15 16 15 16 15 17 15 17 18 18 20 20 21 20 19 19 21 19 19 18
9 8 7 7 6 6 6 7 7 8 10 9 10 11 12 14 14 12 14 16 14 16 16 15 16 13 13 13 13 13 15 19 15 17 19 21 20 20 18 19 19 18 17
9 10 10 8 7 7 6 5 7 8 7 10 9 7 8 10 12 14 12 14 14 14 14 14 15 14 13 13 14 13 14 18 15 17 20 19 18 18 17 17 18 17 16
9 9 9 8 9 8 7 6 6 8 7 9 9 7 6 6 9 9 11 13 12 12 12 12 12 14 11 12 15 14 17 14 15 17 18 19 18 18 16 15 14 13 14
11 13 11 9 8 10 10 7 6 7 7 9 8 7 5 5 4 7 8 10 12 11 10 12 10 12 12 12 15 15 13 14 14 16 18 17 17 18 15 13 11 9 10
11 13 14 12 11 10 11 7 5 9 9 7 5 7 7 6 4 5 6 8 8 10 9 8 9 10 12 13 11 10 9 8 12 17 18 16 15 14 13 12 10 7 3
13 15 15 14 13 12 11 10 8 11 12 10 8 7 7 6 4 4 5 8 9 10 9 8 8 9 10 12 11 9 6 7 10 17 18 18 16 15 12 11 10 6 3
14 13 16 14 15 15 14 13 11 9 12 13 11 8 6 6 5 5 5 5 6 8 10 8 9 9 9 8 9 9 5 5 5 14 17 14 13 15 14 11 10 6 3

GFSSE_500_spd_087.txt.gz
Wind_Speed
18 16 14 14 13 11 11 11 9 7 6 6 7 9 9 10 10 10 10 10 10 10 9 10 10 11 12 11 11 12 13 14 14 15 16 18 18 20 18 17 18 17 15
19 17 15 14 14 13 11 9 8 7 6 6 5 6 7 8 8 9 9 8 8 7 5 7 9 10 11 12 12 13 15 17 18 17 17 18 19 20 18 16 17 16 15
20 18 17 16 16 15 13 12 10 7 5 4 5 5 7 7 7 8 7 6 6 3 3 6 9 10 12 13 14 15 17 17 18 18 16 18 19 18 17 15 16 16 17
19 19 18 17 17 16 14 13 11 9 7 5 7 7 7 7 7 7 7 6 2 1 5 9 10 11 14 16 15 16 17 17 17 18 17 18 18 16 14 14 15 15 17
18 18 18 18 18 18 18 16 14 13 11 9 8 10 10 9 9 9 8 6 5 8 12 11 17 19 17 17 15 14 15 16 17 16 17 18 18 16 15 14 14 14 15
17 17 18 19 18 19 18 18 18 18 15 14 13 12 13 13 13 13 15 18 19 22 24 21 20 17 17 14 14 12 13 14 16 15 17 19 18 16 15 14 14 14 15
16 16 16 19 19 20 19 18 19 19 19 18 16 15 15 15 15 15 17 21 23 23 21 19 19 16 15 15 13 12 13 14 15 15 16 17 18 15 15 14 14 15 15
15 17 17 19 19 19 18 18 18 18 18 18 18 16 15 15 15 16 18 19 21 19 17 18 17 14 13 15 12 11 13 13 14 15 16 18 17 15 15 14 15 16 17
15 16 17 17 18 17 16 17 17 17 16 16 16 16 15 14 15 16 17 18 18 16 14 15 14 12 11 12 12 12 14 15 15 15 17 18 17 16 16 16 17 17 18
15 15 16 15 18 15 16 15 14 16 16 14 16 14 13 13 15 16 17 17 18 18 17 17 17 12 12 13 15 16 15 16 15 14 17 19 18 18 18 18 19 18 19
14 14 15 16 16 17 15 14 13 13 16 14 14 15 13 14 13 15 17 17 16 17 16 18 19 18 20 18 18 17 17 17 15 15 18 20 21 21 20 20 20 20 19
12 14 14 14 15 18 16 15 16 13 14 14 14 15 16 15 14 16 18 18 18 20 18 17 15 16 21 20 21 21 21 22 22 23 25 25 24 23 22 22 21 20 20
11 11 13 12 12 15 16 14 14 13 13 13 12 14 15 15 14 15 18 18 19 19 18 17 17 20 21 23 24 22 23 24 26 28 29 28 26 25 24 22 22 22 21
11 9 12 12 9 12 13 15 13 11 9 11 12 13 13 14 16 18 20 20 20 20 17 18 21 22 22 22 24 24 23 23 27 29 30 29 27 24 23 22 22 22 21
9 9 10 11 9 10 12 14 14 13 11 11 12 14 13 15 13 16 19 20 20 20 18 17 21 22 21 21 22 24 23 24 28 29 28 26 25 24 23 22 22 21 20
8 8 10 9 9 9 12 15 14 14 13 13 12 12 13 15 13 14 18 19 19 20 19 19 19 20 21 20 20 22 21 22 26 27 26 25 23 23 22 21 21 20 21
7 9 10 8 9 10 9 13 13 12 15 14 12 11 14 13 15 15 18 19 18 18 18 17 18 19 17 18 19 18 19 21 25 26 25 23 21 21 21 21 20 19 20
7 9 8 8 10 8 7 9 9 10 13 13 13 12 12 12 14 14 15 17 16 17 18 17 17 18 15 15 15 16 15 18 21 23 23 21 21 20 21 20 19 20 20
9 8 7 9 9 9 6 10 8 8 10 11 13 11 12 12 13 13 14 15 15 15 15 14 15 15 15 13 13 16 16 16 17 19 20 19 19 19 19 19 19 19 18
11 10 9 9 10 10 7 8 10 8 12 11 11 13 12 11 13 12 11 14 14 15 15 14 14 14 14 13 12 15 15 14 15 17 18 19 18 18 17 17 17 17 17
10 9 9 8 8 12 9 7 10 8 9 12 11 11 10 10 12 12 10 11 12 12 13 13 13 12 11 11 12 15 14 14 15 16 16 17 17 15 15 14 15 15 15
9 9 11 9 8 8 10 8 8 10 9 9 8 10 9 9 10 11 10 9 10 9 10 12 12 12 13 10 11 13 13 13 14 15 15 14 14 14 14 13 12 12 12
10 11 10 10 10 9 9 7 7 8 10 10 8 9 8 9 8 10 11 10 9 10 10 12 11 10 11 10 11 12 9 10 13 14 13 12 11 11 13 12 9 7 8
10 12 10 11 11 12 11 7 6 9 11 10 8 8 8 7 7 7 8 8 7 9 10 9 12 10 10 11 10 8 7 5 10 14 13 12 11 11 11 11 9 5 2
7 11 10 11 12 13 14 11 9 9 12 13 8 9 6 5 7 9 7 9 8 8 8 9 10 11 11 12 12 9 7 5 8 11 13 11 10 10 9 8 8 4 5
15 12 14 13 13 14 14 14 13 11 12 12 10 10 9 6 6 8 9 9 7 8 7 8 10 11 11 11 12 10 9 8 8 12 12 9 7 7 7 7 5 2 4

GFSSE_500_spd_090.txt.gz
Wind_Speed
17 16 15 14 14 12 11 10 9 9 10 12 12 13 12 11 10 8 9 8 8 9 9 11 12 12 13 13 13 14 15 15 16 16 19 21 21 19 18 17 17 16 15
17 16 15 16 16 15 13 11 9 7 7 9 11 11 11 10 9 8 7 6 6 8 8 10 11 11 12 12 14 15 15 17 18 19 20 22 21 18 17 17 17 17 17
16 17 16 16 18 17 16 13 11 8 8 8 9 9 10 9 8 8 7 5 5 7 8 9 10 11 12 12 14 16 17 18 20 20 20 22 20 18 17 17 19 21 21
16 18 17 19 19 18 17 17 15 11 10 11 10 10 10 9 9 8 7 5 4 6 8 9 10 8 10 12 14 16 17 18 19 20 20 19 19 17 17 17 20 20 19
16 18 18 19 19 18 19 20 18 16 14 14 13 12 12 12 13 12 8 6 8 11 10 9 14 14 15 13 15 15 16 18 19 19 19 18 18 17 16 18 19 18 19
16 17 18 19 18 19 21 22 22 20 17 14 15 16 17 18 18 18 16 18 22 22 21 19 16 14 15 13 14 15 16 17 19 19 19 19 18 17 17 18 18 18 19
15 16 18 17 19 20 20 21 22 22 21 19 18 18 18 18 18 19 21 23 23 21 18 17 17 15 14 13 13 14 15 16 17 19 18 18 18 17 17 18 19 18 19
14 17 17 17 18 19 19 20 21 21 21 19 18 18 17 16 17 18 19 19 18 18 17 17 16 14 16 13 12 13 15 15 15 17 18 18 18 17 18 19 19 19 19
15 15 16 17 17 16 17 18 19 20 19 19 18 17 15 15 16 17 16 16 16 16 15 13 13 14 15 13 10 13 14 15 15 16 17 18 18 18 19 19 20 20 21
15 15 15 16 15 16 15 16 16 19 17 18 17 16 15 15 13 15 16 16 19 18 16 14 12 14 16 13 13 14 13 15 15 16 17 19 19 19 20 20 21 21 22
15 15 15 15 15 15 14 14 14 17 16 17 17 15 16 15 13 13 14 12 15 17 16 20 19 19 17 16 16 15 13 14 15 17 19 21 20 22 21 22 21 21 21
14 15 15 13 16 15 16 16 14 16 15 16 17 16 15 15 14 14 15 13 16 18 17 18 19 21 18 19 19 18 16 17 19 22 23 23 23 23 23 22 21 22 22
11 13 14 13 12 14 14 14 16 16 14 14 15 16 14 15 14 15 17 16 18 20 19 18 20 21 20 21 22 22 22 24 26 26 26 25 25 24 23 22 22 22 23
10 12 14 13 11 11 13 13 13 13 14 12 13 15 17 17 15 16 18 18 20 22 19 21 22 23 22 22 22 24 26 27 28 27 27 26 25 24 23 23 23 22 22
10 11 11 13 10 9 11 14 14 14 14 12 12 14 15 14 14 14 18 18 20 21 20 19 20 22 22 21 22 25 28 28 28 27 27 26 25 24 24 24 23 22 23
11 10 11 12 11 9 9 13 14 14 14 14 13 14 13 14 13 14 16 17 17 18 18 18 19 19 20 20 20 24 27 26 26 26 26 25 23 23 23 24 23 23 24
10 10 11 12 12 9 8 11 11 12 13 14 14 13 14 13 14 14 14 16 16 16 16 17 18 18 17 18 19 21 23 24 24 23 23 23 22 22 22 22 22 23 23
12 10 11 11 9 10 8 8 10 11 12 13 12 13 14 14 14 12 13 14 14 15 15 16 16 16 16 16 17 19 20 21 21 21 21 20 21 21 22 22 21 21 21
11 11 10 12 9 9 10 7 10 10 10 12 12 11 12 11 11 9 10 14 14 11 12 15 14 14 14 15 14 18 18 17 16 17 19 19 19 19 21 21 20 19 19
11 11 9 10 10 9 9 7 7 9 10 9 9 10 10 9 10 10 11 13 14 12 12 10 11 11 13 13 14 16 17 16 14 13 14 15 16 17 18 18 18 17 18
11 9 9 9 8 8 9 7 7 8 6 10 8 10 10 9 7 10 9 10 11 11 11 11 10 9 10 12 13 14 15 14 14 13 14 13 12 14 15 15 14 14 15
12 11 9 8 9 9 8 11 6 7 7 8 8 8 10 10 8 7 10 8 8 9 11 10 10 9 9 11 12 13 12 14 14 12 12 12 11 10 12 11 10 11 12
10 10 10 9 10 11 8 7 10 8 7 8 8 8 10 9 9 7 8 9 7 8 10 11 10 10 10 10 14 14 11 13 14 13 11 10 10 8 8 8 7 6 8
12 10 9 11 11 11 11 9 9 11 9 7 8 7 8 10 9 9 8 8 9 7 8 8 9 10 9 10 13 13 11 10 13 13 11 9 8 7 7 7 5 3 4
6 10 13 11 12 12 11 10 10 11 11 9 9 8 7 9 10 11 9 7 8 7 8 8 7 9 9 9 12 12 11 9 11 12 11 9 8 7 7 4 3 4 4
8 6 9 12 13 13 13 13 11 11 14 12 11 9 8 8 10 12 12 11 10 9 8 8 8 8 11 10 10 11 11 10 10 12 11 9 7 5 3 5 3 1 2

GFSSE_500_spd_093.txt.gz
Wind_Speed
17 17 16 15 14 13 12 12 14 14 15 13 13 12 11 12 10 9 10 11 10 10 10 11 11 12 12 13 13 16 16 15 16 19 22 21 20 18 17 16 15 15 15
17 18 16 14 13 12 11 10 11 12 13 13 12 11 11 11 9 8 8 8 8 8 9 10 10 11 11 13 14 16 16 17 18 20 21 21 20 18 17 16 18 19 18
18 18 16 15 16 16 13 9 10 12 13 13 12 11 10 9 8 7 7 8 7 9 10 10 10 11 12 13 14 16 18 19 20 21 20 20 20 18 18 21 21 20 19
17 17 17 18 19 19 17 14 12 12 13 13 12 11 10 10 8 7 7 6 6 10 11 11 12 13 14 15 15 17 19 19 20 21 20 19 19 18 19 20 20 21 21
15 17 19 19 21 21 21 18 16 15 15 14 14 14 14 12 10 9 8 7 9 12 13 11 13 14 14 15 16 17 18 19 21 20 19 18 18 18 19 19 21 21 19
15 17 18 19 20 20 22 23 20 17 16 18 17 17 17 16 15 16 17 17 16 16 15 13 16 17 15 15 16 17 18 19 20 19 18 18 19 18 20 20 20 20 18
15 16 18 18 20 20 22 23 23 23 22 21 20 19 19 20 22 23 22 21 18 17 16 15 15 16 13 13 15 17 17 18 19 19 18 18 18 19 20 20 19 19 20
14 16 16 16 18 20 21 22 22 22 21 20 19 18 18 19 20 19 18 17 16 16 16 14 13 16 15 14 15 17 17 18 18 17 17 18 19 20 20 20 19 20 22
15 15 15 14 17 18 19 20 20 21 21 20 18 17 16 19 18 17 18 16 15 13 13 14 16 13 15 14 16 18 18 18 17 16 16 18 20 21 21 20 20 22 23
15 15 13 13 15 16 17 17 20 19 20 19 18 17 17 17 17 17 18 16 15 13 12 13 15 15 13 16 17 18 19 19 18 17 17 19 20 21 21 21 21 22 22
15 15 14 13 14 15 17 17 19 19 18 18 17 16 15 15 15 14 14 13 15 16 14 14 18 16 13 16 17 18 19 19 18 19 20 21 21 21 20 20 22 22 23
13 14 15 14 13 17 16 16 17 19 18 18 17 16 15 14 13 12 14 15 15 16 16 18 20 18 17 15 16 17 19 20 21 22 23 23 23 20 21 21 22 23 23
13 12 13 14 13 12 16 17 16 16 18 19 18 16 15 14 14 13 17 18 20 18 17 19 20 18 18 18 19 21 24 24 24 24 24 24 22 21 21 22 23 23 23
12 11 11 12 13 12 13 14 16 15 16 16 17 18 16 14 14 16 19 20 20 18 17 19 20 20 20 21 25 27 28 27 26 25 24 23 22 21 22 23 24 24 23
10 10 11 11 12 13 12 13 15 14 14 15 15 14 14 14 15 16 20 19 20 18 17 18 19 20 22 23 26 27 27 26 25 25 24 23 22 22 23 24 25 24 23
11 10 11 12 12 12 11 12 12 14 15 16 16 16 14 14 14 15 18 19 18 17 15 16 17 19 21 24 28 28 26 24 23 22 23 21 21 22 23 24 24 22 22
11 10 11 13 14 12 10 11 12 13 14 13 15 14 14 14 14 14 15 17 17 17 15 15 17 17 19 23 26 25 24 23 22 20 20 20 20 22 24 24 22 21 21
12 11 11 12 13 13 10 10 12 13 13 12 14 15 14 14 13 12 12 13 15 15 14 15 17 18 18 19 23 22 21 20 20 20 19 19 19 21 22 22 21 20 20
12 11 11 11 11 12 12 9 11 11 13 13 13 14 12 11 13 12 10 11 13 14 13 15 16 16 17 17 19 20 18 16 15 15 15 15 17 19 20 20 20 20 20
12 11 10 11 11 10 11 10 9 10 12 11 11 12 11 10 11 11 10 9 11 14 12 13 14 13 15 16 16 19 16 14 13 14 13 14 15 17 17 17 18 18 19
11 11 10 8 9 8 9 10 9 11 9 10 10 11 10 9 10 10 10 9 8 9 10 11 10 11 12 15 15 16 16 15 14 14 14 14 14 13 13 14 14 15 16
12 11 11 11 11 8 6 6 8 9 11 8 8 10 10 10 10 10 10 8 8 7 7 7 8 9 9 12 13 14 14 15 15 14 13 13 12 11 10 9 10 10 12
12 12 11 11 10 9 8 5 6 7 7 6 6 7 9 9 9 10 9 9 8 8 8 8 7 7 9 9 12 12 14 14 15 14 14 13 12 11 9 6 6 5 7
15 13 12 11 11 10 9 9 9 7 8 7 6 7 7 8 8 9 10 9 9 8 7 7 7 7 8 10 11 10 10 14 14 14 13 12 11 10 9 5 3 3 5
15 15 14 12 11 11 10 9 9 9 9 10 7 6 8 8 8 8 9 10 10 10 8 7 8 8 8 9 11 11 10 12 13 13 12 11 8 7 7 6 3 2 3
13 14 13 12 12 12 12 12 9 10 11 10 8 7 7 9 10 11 10 9 9 9 10 10 9 9 9 9 11 12 11 11 13 13 13 11 9 7 5 6 5 1 1

GFSSE_500_spd_096.txt.gz
Wind_Speed
16 17 17 15 14 14 13 15 17 16 16 15 15 14 12 10 11 10 10 10 11 12 11 10 10 10 9 10 12 14 14 16 18 20 19 18 17 16 15 13 13 14 16
15 16 16 15 12 11 11 11 12 13 13 13 12 12 10 8 7 7 7 8 10 11 11 11 10 9 9 10 12 14 16 18 19 19 18 18 17 16 15 15 16 17 16
15 17 16 15 14 11 11 11 11 12 11 11 11 10 9 6 5 6 7 7 8 10 11 11 10 10 10 11 13 15 16 18 19 18 18 19 17 18 18 17 18 17 17
16 17 18 18 17 15 13 13 13 13 11 10 9 9 9 8 7 6 7 7 8 10 11 11 11 12 13 13 14 16 17 19 20 18 18 18 20 17 17 17 18 17 16
16 17 18 19 20 18 15 14 14 13 13 13 12 11 10 8 7 7 8 8 10 11 11 12 12 13 14 15 16 17 19 20 20 18 17 18 18 17 17 18 17 16 16
16 17 18 19 20 21 19 17 16 15 16 16 15 13 11 9 10 12 12 11 11 11 9 12 18 15 15 16 16 18 20 20 19 17 16 17 18 17 18 17 16 16 16
15 17 17 17 19 21 22 20 19 19 19 18 15 16 16 17 18 19 19 17 16 14 16 22 18 16 16 16 17 19 20 20 18 17 16 17 18 18 18 16 17 18 19
14 15 16 17 18 19 20 20 20 19 19 18 16 18 18 19 18 17 16 17 15 14 15 17 16 15 16 17 19 20 21 20 19 18 16 16 18 18 17 18 19 20 19
14 13 15 16 17 16 18 19 19 19 18 18 15 19 19 18 16 15 14 14 13 13 14 17 16 15 16 18 18 20 21 21 20 18 16 17 18 18 18 20 20 20 20
13 13 14 14 15 16 16 17 19 18 19 18 19 18 18 17 16 15 14 11 9 10 12 14 13 14 16 17 19 20 21 21 20 18 17 18 18 18 19 20 19 20 20
15 14 14 15 15 16 17 17 18 17 18 17 17 17 15 14 14 13 13 12 13 11 13 14 12 16 15 17 19 20 21 21 20 19 19 19 18 19 20 19 20 20 20
14 15 14 15 16 15 17 17 18 18 19 18 17 16 15 15 13 11 12 12 16 13 16 15 13 16 16 17 19 21 22 21 20 20 19 19 19 19 19 19 20 21 21
12 13 14 13 14 15 16 17 18 19 19 18 16 16 14 13 14 13 17 16 17 20 17 16 16 16 16 18 20 22 23 22 21 21 20 19 19 20 19 20 21 21 22
10 12 12 12 13 13 15 16 17 16 19 18 17 15 14 15 16 16 18 18 18 19 17 17 16 17 18 22 25 25 25 23 22 21 19 19 20 20 20 21 22 22 22
10 10 12 11 12 13 14 14 14 14 16 15 15 15 17 16 17 18 18 18 17 17 16 16 17 19 23 26 28 26 24 23 22 20 20 19 20 21 22 22 21 21 21
9 9 11 12 12 13 14 14 14 15 15 16 16 16 15 16 17 17 17 17 16 16 16 17 19 21 25 28 27 26 24 22 21 20 20 20 20 21 22 21 20 21 21
8 8 10 12 13 12 13 14 13 13 13 14 15 15 15 15 16 16 17 16 15 15 15 17 20 23 24 26 26 24 23 21 20 19 19 20 21 21 20 19 20 21 22
8 8 9 11 12 12 11 13 13 13 14 15 15 15 15 13 12 13 15 15 16 17 15 16 18 21 22 22 22 21 19 18 18 18 18 19 20 19 18 19 20 21 22
9 8 8 10 10 11 11 12 13 12 14 14 15 15 14 13 11 9 11 12 13 15 15 15 16 19 20 20 21 19 17 16 16 16 17 18 18 18 18 19 19 20 22
11 10 8 9 10 9 10 10 11 11 12 13 12 12 12 11 10 10 9 9 9 11 12 13 14 15 17 17 17 17 15 15 15 15 17 17 17 17 17 16 17 17 19
11 11 10 8 8 10 10 10 9 10 11 12 12 11 11 11 9 8 8 9 10 8 9 10 11 13 13 14 15 14 14 15 15 15 15 15 15 14 14 13 13 14 15
12 12 12 11 8 8 8 9 10 8 9 10 9 9 10 9 8 8 8 7 7 8 9 9 9 10 12 12 12 11 12 14 15 14 15 14 12 12 12 10 9 9 10
15 13 12 11 10 7 9 8 9 10 7 8 9 7 8 9 8 8 7 6 5 5 6 7 8 8 10 12 11 11 11 13 14 14 13 13 12 10 10 8 6 5 6
17 15 14 12 11 10 8 9 9 8 9 8 8 7 6 8 9 9 8 6 5 5 5 6 7 9 9 11 10 10 9 11 11 13 13 12 11 10 8 6 3 2 2
18 17 16 15 13 11 10 8 7 8 7 6 6 5 6 7 7 7 8 10 7 6 6 6 5 6 8 9 11 9 9 11 11 11 12 11 9 7 7 6 3 1 3
16 18 17 16 15 14 13 12 9 8 8 8 6 6 6 6 7 9 9 8 9 9 8 7 6 6 7 8 9 9 8 10 11 12 12 12 10 9 8 8 6 4 4

GFSSE_500_spd_099.txt.gz
Wind_Speed
14 14 13 12 10 13 14 14 15 16 16 16 17 15 13 11 10 10 9 7 7 8 8 10 10 12 11 11 12 14 15 16 16 16 15 15 13 12 10 11 12 13 13
13 14 12 11 9 9 12 14 15 14 13 12 11 10 10 11 8 9 6 6 6 5 8 9 10 11 11 11 12 14 16 17 16 15 14 14 12 12 14 14 14 13 12
14 15 13 11 8 9 11 13 13 12 12 10 9 7 7 7 7 7 6 5 6 6 8 9 10 10 10 10 12 15 16 17 16 15 13 15 16 15 14 14 14 14 14
14 16 15 14 11 10 11 11 11 11 10 9 7 6 5 5 6 5 4 5 6 8 8 9 11 12 12 13 15 16 16 16 15 14 14 16 15 13 15 15 14 14 13
15 16 16 17 16 14 13 11 10 9 9 8 6 5 4 4 5 5 5 5 8 9 10 11 12 13 13 14 15 16 17 17 15 14 13 15 13 16 15 14 13 13 13
15 17 18 17 17 16 16 14 13 12 11 9 7 5 5 5 6 7 6 8 8 9 10 13 13 13 13 15 16 16 18 17 15 12 13 13 14 14 13 13 14 14 16
14 16 16 17 18 17 17 16 16 15 13 11 11 11 12 13 14 14 12 13 11 8 10 16 14 14 14 15 17 17 18 17 16 13 13 14 14 13 13 15 16 17 16
12 15 15 16 17 18 18 17 17 15 14 15 16 15 15 15 16 15 14 15 16 17 21 16 14 14 14 15 16 18 18 17 16 14 15 15 14 14 15 16 17 16 16
12 13 14 15 15 16 16 17 16 15 14 17 17 16 14 13 14 14 13 12 13 15 18 15 14 15 15 15 17 19 19 19 16 15 15 15 15 16 17 16 17 17 17
12 12 13 14 15 15 15 16 16 16 18 19 17 16 17 14 13 12 11 10 12 14 14 13 14 16 16 17 18 19 20 19 17 15 15 16 17 17 16 17 17 17 17
13 13 13 14 16 15 15 16 16 16 17 17 17 15 15 13 12 11 12 11 13 12 13 12 15 16 17 18 19 20 20 19 17 16 16 16 18 18 18 18 18 18 19
14 12 14 14 14 16 14 16 17 16 16 17 18 15 13 12 11 9 10 12 14 15 13 13 16 16 17 19 20 21 21 19 18 17 16 17 19 19 18 19 20 19 20
12 12 12 14 13 15 15 15 16 15 16 16 17 14 14 14 12 14 16 22 20 18 15 14 17 16 17 19 21 21 21 19 19 18 18 19 20 20 20 20 20 20 21
10 11 12 12 12 13 15 13 15 15 16 15 14 15 15 14 16 18 19 20 20 17 17 15 15 18 20 21 22 22 21 20 19 18 20 21 21 20 21 20 21 21 21
9 9 12 13 11 11 13 12 14 13 15 16 15 16 15 17 19 20 19 19 19 18 17 16 18 21 22 23 23 22 21 20 18 19 21 21 21 21 21 21 22 22 23
9 9 10 12 13 12 12 13 13 14 15 15 15 15 15 16 18 20 19 18 18 18 18 18 23 25 26 25 24 22 20 19 19 19 20 20 21 20 21 22 22 22 23
8 10 9 10 12 12 12 12 12 13 13 14 15 15 15 15 15 16 16 15 16 17 18 20 24 25 25 25 23 21 19 19 19 19 19 20 19 21 20 21 21 21 22
9 10 10 9 10 11 10 12 12 13 13 14 14 14 14 13 14 13 14 14 15 16 16 19 22 23 23 23 21 20 19 19 20 20 19 18 18 19 19 19 20 21 20
9 9 9 9 10 10 10 10 12 12 12 13 14 13 12 12 12 12 13 13 14 14 14 15 18 18 19 19 20 18 18 17 18 18 18 17 18 17 17 18 18 19 17
9 9 9 9 10 10 9 10 11 12 10 11 12 12 10 9 9 10 10 11 12 12 13 13 14 15 15 14 15 16 16 15 16 16 17 16 16 15 15 15 15 15 15
9 9 9 8 10 10 9 9 10 10 11 9 9 10 9 8 7 8 8 6 9 10 10 11 11 13 13 13 11 13 13 13 15 15 15 14 14 13 12 11 12 11 11
10 10 9 9 9 9 9 8 9 9 8 7 7 9 8 8 9 8 7 5 4 6 7 8 9 10 12 13 11 11 12 12 13 13 12 12 11 10 9 7 7 7 6
13 12 12 10 9 8 9 9 8 9 8 6 6 7 7 6 6 7 6 5 5 6 5 5 7 9 8 9 9 8 8 12 12 13 12 11 10 9 7 4 2 3 3
16 15 13 12 10 9 9 9 9 9 8 8 7 7 6 6 6 5 5 4 3 5 6 6 6 7 10 8 8 9 11 11 10 13 13 12 11 9 7 5 3 3 2
18 16 15 13 12 12 11 10 11 9 9 8 7 7 6 5 6 7 7 4 3 2 2 3 4 5 6 8 8 7 9 11 12 11 12 12 10 8 8 7 7 7 6
17 18 18 17 14 14 13 11 10 11 11 10 9 7 6 7 7 6 6 6 6 4 3 2 2 3 4 6 8 8 5 5 8 11 11 12 10 10 10 10 9 8 8

GFSSE_500_spd_102.txt.gz
Wind_Speed
11 11 10 9 10 10 9 15 16 14 12 13 21 15 14 12 11 9 8 9 9 10 9 10 10 12 11 14 15 17 18 17 16 16 15 14 12 11 13 12 13 12 12
13 13 11 9 9 7 11 13 11 13 14 14 16 11 11 11 11 9 7 8 9 9 9 9 10 11 12 13 14 17 17 16 15 14 13 13 14 14 13 13 12 13 13
15 15 13 10 8 9 8 10 10 9 9 9 9 9 8 6 7 7 7 7 7 9 9 8 8 11 11 13 15 16 16 15 15 14 13 15 15 14 14 14 14 14 13
15 17 16 13 10 9 9 8 8 8 7 7 6 7 6 4 5 6 5 6 5 6 7 9 9 12 13 13 15 16 15 14 14 16 14 15 16 14 13 14 14 14 15
15 16 17 15 13 12 11 10 9 8 7 6 5 5 4 4 4 5 4 6 6 7 8 9 11 13 15 15 16 16 14 14 15 16 14 14 15 13 12 14 13 15 16
14 16 17 15 13 13 12 12 11 10 9 7 6 5 4 4 4 4 3 5 5 9 9 11 13 14 16 17 17 17 14 15 15 14 13 13 13 12 12 14 16 17 16
15 16 16 15 14 12 13 13 13 13 11 11 11 11 11 12 12 10 10 7 8 9 11 13 14 16 16 16 17 17 14 15 13 13 12 12 12 12 14 17 17 16 16
13 16 15 15 14 13 14 15 14 13 13 13 13 14 16 14 14 15 15 16 14 13 14 14 15 16 16 16 17 17 16 15 13 13 13 12 14 15 17 17 17 17 16
13 13 13 14 14 14 15 15 14 13 14 16 15 14 14 13 14 14 15 15 15 17 15 15 15 16 16 16 17 17 16 15 15 14 13 14 16 16 17 18 18 17 17
11 12 13 13 15 15 15 15 16 18 15 16 16 14 14 13 11 10 13 14 15 14 15 14 15 16 16 16 17 17 16 14 15 15 14 17 17 18 18 19 19 18 18
13 11 13 12 15 15 15 15 15 16 15 16 15 14 14 14 13 12 13 15 15 16 14 13 14 18 20 20 18 17 17 15 16 16 16 18 19 19 19 20 20 20 19
14 13 12 11 13 15 14 15 15 15 16 16 18 15 14 13 13 12 18 18 17 17 18 16 13 17 19 20 22 17 16 17 17 17 19 20 20 20 19 21 21 21 20
14 13 13 11 11 14 14 14 13 15 14 16 17 17 14 16 17 17 20 24 18 14 22 18 13 12 23 21 22 18 17 18 17 19 20 20 21 20 21 22 21 21 18
13 14 11 12 10 11 15 15 12 13 14 15 18 18 16 17 20 23 12 8 20 2 28 17 16 16 18 21 20 19 18 18 18 19 21 21 20 21 22 22 22 20 19
12 13 12 12 11 9 13 14 13 12 15 18 21 18 16 17 23 22 19 23 13 15 16 19 21 21 17 20 19 19 20 18 19 20 21 21 20 21 22 22 21 20 20
10 12 13 13 12 11 12 15 14 13 13 17 13 17 20 21 23 16 15 23 20 17 17 21 17 25 22 23 20 19 19 19 20 20 20 20 20 20 21 20 19 18 18
10 12 11 12 12 10 11 13 15 14 15 15 10 15 18 13 21 16 18 20 20 20 19 16 21 23 22 22 21 19 20 21 22 19 19 19 18 18 19 18 18 17 17
9 11 9 10 12 11 10 11 12 12 14 15 14 13 11 16 16 17 18 18 18 19 21 23 21 21 22 23 20 18 18 20 20 20 19 17 17 15 18 17 17 16 16
8 11 9 8 9 12 10 9 11 12 12 13 13 13 12 12 15 15 16 16 17 16 18 16 18 17 18 19 19 19 17 17 17 18 17 15 15 14 14 16 15 14 15
8 9 10 9 8 10 10 10 10 12 11 11 11 11 13 12 13 15 13 16 16 13 12 15 15 14 14 14 13 19 16 15 16 15 15 14 13 12 12 13 12 12 12
10 9 10 10 9 9 9 9 9 9 9 7 8 8 10 9 10 12 14 14 10 10 10 11 11 9 12 11 10 13 15 13 14 14 13 12 10 9 7 8 9 8 9
12 10 10 10 9 8 8 9 9 9 9 7 6 6 6 7 8 7 8 12 13 12 11 10 8 9 8 10 7 3 10 13 13 13 12 11 9 8 6 4 4 5 6
12 11 10 9 9 9 8 8 6 7 8 8 7 6 7 6 5 4 4 4 11 7 9 13 6 6 7 4 7 8 3 6 11 13 12 11 10 8 6 3 1 2 4
14 12 11 10 9 8 9 9 7 7 7 6 7 8 7 5 3 2 5 5 7 5 10 10 5 5 4 5 3 5 8 8 10 11 11 11 9 8 7 5 5 6 6
15 14 12 11 10 8 8 9 8 7 7 4 4 3 6 4 6 6 1 4 1 2 7 9 4 3 3 3 4 6 10 11 13 10 10 9 9 9 10 8 7 7 9
16 15 13 12 10 10 9 7 8 7 8 9 11 5 5 6 5 6 5 6 8 7 4 7 2 2 0 1 6 6 6 5 9 8 13 13 9 10 12 13 14 14 10

GFSSE_500_spd_105.txt.gz
Wind_Speed
11 9 10 10 11 11 10 12 11 11 14 19 19 17 13 10 9 11 11 11 11 11 12 12 14 13 14 15 17 20 20 19 18 18 17 17 16 16 15 15 14 12 12
12 10 8 9 11 11 13 12 13 14 12 18 19 12 10 10 9 10 9 9 11 11 11 13 14 14 14 17 19 19 19 19 18 16 17 17 18 17 15 15 13 13 12
16 14 13 9 10 12 12 10 11 9 11 13 13 11 8 8 7 8 8 7 9 11 10 12 13 15 15 17 19 19 18 19 18 18 17 18 18 17 16 14 13 14 16
18 16 15 14 11 10 10 10 10 9 9 9 8 8 7 7 6 6 7 5 7 10 11 10 12 14 15 17 17 16 19 21 18 18 16 18 18 15 14 14 15 18 19
17 16 16 15 13 10 8 8 7 7 8 8 7 8 7 7 7 6 6 5 7 9 11 10 12 14 16 18 18 17 18 18 18 17 16 17 16 14 14 16 17 18 18
16 16 16 15 14 12 10 9 8 7 7 7 6 6 6 5 6 6 6 6 7 10 11 12 13 16 17 19 19 17 16 16 15 14 16 16 16 15 17 17 18 17 17
15 16 16 16 14 13 13 12 12 10 9 9 10 10 10 11 11 10 7 8 10 12 14 13 14 16 19 19 20 17 14 14 14 15 16 16 18 17 18 17 18 17 16
14 15 16 17 15 14 13 13 13 13 12 13 15 14 15 15 16 16 14 12 11 12 14 14 16 18 19 21 20 18 14 15 16 16 16 18 18 17 18 18 17 17 16
14 15 16 17 16 15 15 14 14 14 15 15 15 15 15 15 16 16 17 19 18 17 17 17 17 18 20 22 19 17 15 16 16 17 18 18 18 19 19 18 18 18 16
14 14 15 17 17 15 16 16 15 14 15 16 15 16 13 12 14 15 15 18 17 16 17 18 19 19 19 19 17 17 16 18 16 18 17 19 19 19 20 19 18 18 18
14 14 15 16 17 15 15 15 14 13 14 14 13 15 15 11 11 12 15 17 16 17 18 19 20 22 21 18 16 14 18 19 17 17 18 19 19 20 20 19 19 18 17
16 12 14 17 17 16 16 16 15 13 15 11 15 15 14 11 12 14 15 16 15 17 19 19 23 24 23 19 15 15 19 19 18 18 19 19 20 20 19 18 18 17 16
14 13 14 16 15 16 17 18 14 16 14 16 14 17 12 11 17 15 14 15 15 21 19 18 18 20 23 19 15 15 18 20 19 19 19 20 19 18 17 17 15 15 14
14 14 13 14 14 15 17 17 14 12 13 14 14 13 16 15 18 14 11 12 21 20 23 19 21 22 24 20 18 17 18 19 18 18 18 18 17 17 17 15 15 15 16
14 14 13 12 13 14 14 16 16 17 16 17 16 17 17 17 23 26 21 28 26 23 22 21 18 17 20 18 17 20 19 18 17 17 18 18 17 17 15 15 17 19 18
13 14 12 12 14 15 13 14 14 15 17 13 17 18 19 18 18 19 21 23 21 23 26 23 21 22 20 23 20 19 21 21 16 17 17 16 16 15 15 16 18 19 20
12 12 12 12 13 14 14 13 14 15 16 16 18 16 19 17 15 17 21 20 23 23 20 27 20 21 20 21 21 18 19 19 19 15 15 15 15 14 15 18 19 19 20
10 12 13 11 12 13 13 12 14 14 14 14 16 13 14 16 16 18 18 19 25 23 20 20 18 18 19 21 22 19 17 16 16 15 14 15 14 13 14 17 17 17 17
9 9 12 11 12 11 13 11 11 12 13 13 13 14 13 15 16 18 17 15 22 22 20 19 16 14 15 17 18 18 17 15 15 12 13 12 13 11 10 14 14 15 14
10 10 10 10 11 11 11 12 10 10 11 12 12 11 13 14 15 17 16 14 17 14 18 17 16 14 13 13 13 13 17 16 15 12 11 11 11 10 8 9 12 10 11
10 10 9 9 10 11 11 10 10 8 9 9 10 10 10 12 12 16 15 12 12 12 15 17 15 14 14 12 9 7 11 13 15 13 10 9 8 9 4 5 7 6 7
12 10 9 9 8 10 9 11 11 8 8 7 7 7 7 9 12 15 15 11 10 9 7 12 16 13 10 11 9 5 4 8 11 11 11 11 8 6 4 1 3 3 2
13 11 9 9 7 8 9 8 10 8 7 8 7 6 6 6 8 11 12 9 9 9 10 8 9 12 11 6 6 9 6 4 7 11 13 13 10 8 7 5 7 5 5
13 13 11 8 8 7 6 8 6 7 6 5 5 4 4 4 5 6 9 9 10 7 4 6 8 7 8 7 3 4 5 9 8 11 14 14 13 13 11 13 12 10 9
16 15 12 12 9 7 7 6 5 7 4 4 4 5 4 4 6 4 7 8 5 8 6 5 5 7 7 5 3 2 3 5 9 11 11 9 15 15 14 13 13 12 15
19 14 12 11 10 10 8 8 7 5 7 4 3 5 6 6 7 8 9 10 9 9 7 7 7 4 4 2 4 4 4 5 7 9 4 13 15 17 16 7 10 15 20

GFSSE_500_spd_108.txt.gz
Wind_Speed
14 13 13 14 12 13 13 10 9 8 12 15 17 15 13 13 12 13 14 14 14 14 14 15 15 16 18 20 21 21 20 17 15 15 15 15 15 15 14 14 12 13 13
13 10 10 10 10 12 11 13 12 12 16 17 15 15 14 9 12 13 13 14 12 13 13 14 16 18 18 20 20 19 17 17 18 16 17 17 14 15 14 14 13 14 14
16 12 11 11 13 13 10 13 14 13 12 14 17 15 10 7 8 11 12 12 12 12 13 14 15 18 21 19 19 19 18 20 19 18 17 18 16 15 14 14 16 16 17
19 16 13 13 13 13 12 11 10 10 10 11 10 10 10 9 8 9 11 10 11 13 13 14 16 18 21 19 19 18 18 18 18 17 16 16 15 15 15 17 18 18 17
19 18 16 14 14 13 11 10 9 9 9 8 9 9 10 10 10 10 9 8 10 12 13 14 16 19 20 19 19 18 18 18 18 15 15 15 16 17 17 18 18 17 16
19 17 17 16 15 13 12 11 10 9 9 10 10 9 10 9 9 10 12 13 12 13 14 16 17 20 19 18 17 16 17 19 16 14 16 16 19 18 18 17 16 15 14
19 17 17 16 15 14 13 11 10 9 9 9 9 10 10 10 10 11 12 12 13 14 15 16 18 20 21 18 17 16 16 18 15 16 17 20 20 18 17 17 14 14 13
17 19 18 18 17 15 14 14 12 12 13 13 13 14 15 14 13 12 13 15 16 16 15 16 18 21 21 17 16 16 18 15 17 19 20 20 19 18 16 15 15 15 14
18 20 19 19 17 15 15 14 14 14 12 12 13 14 15 15 16 15 15 15 16 17 17 19 21 22 21 17 16 16 18 16 19 20 20 20 18 17 17 17 16 16 17
18 21 19 18 17 16 17 16 15 14 12 12 12 12 11 13 15 17 18 18 18 16 18 21 22 23 21 18 17 18 18 17 18 19 19 19 19 19 18 16 17 17 15
18 20 21 18 17 15 16 15 13 12 14 12 10 10 9 11 13 16 18 16 18 19 18 21 23 23 21 18 16 18 18 18 17 18 19 20 19 18 17 16 16 14 14
18 20 20 18 18 15 16 14 13 13 14 13 13 13 10 11 14 14 17 16 16 19 21 21 22 23 20 18 16 18 18 16 17 18 19 19 18 16 15 14 13 13 13
17 17 18 18 18 14 16 15 12 16 17 15 16 15 13 12 15 14 17 17 18 19 20 20 21 19 18 17 16 19 17 15 17 18 19 18 16 14 14 13 14 14 14
16 16 17 17 17 15 14 14 10 15 14 15 17 17 16 14 13 12 17 19 21 22 21 23 18 19 18 16 18 18 15 14 17 18 18 16 15 14 16 18 16 15 15
15 15 15 14 16 15 14 18 16 15 17 17 16 22 23 22 15 12 20 20 23 25 24 24 24 22 18 18 21 19 17 14 16 16 16 15 14 16 17 17 20 19 17
13 14 15 14 14 13 14 16 14 15 18 17 19 20 17 21 20 28 23 23 23 23 25 23 25 23 20 19 19 19 19 17 14 15 14 13 14 16 16 18 19 21 20
13 15 17 15 15 12 14 14 13 15 18 16 18 20 21 19 17 17 17 19 21 23 20 20 20 19 20 21 19 17 17 18 17 14 13 11 13 14 16 17 19 19 18
13 13 15 16 13 13 13 11 12 12 12 17 16 16 20 20 20 18 17 19 24 17 20 18 18 15 17 18 19 17 14 15 16 12 11 11 11 11 14 14 15 15 14
11 11 14 16 15 13 13 12 10 11 11 13 15 16 18 21 19 18 18 18 21 21 21 19 16 13 15 16 15 15 14 12 13 11 10 8 9 10 9 12 11 11 11
9 10 13 14 16 15 13 11 11 9 10 11 14 16 18 17 17 16 15 15 16 18 19 15 13 14 15 13 13 11 10 12 12 10 9 8 5 8 6 6 7 6 6
7 10 13 12 13 15 16 13 13 11 10 11 10 11 13 13 15 17 16 14 14 16 16 14 13 14 13 11 10 11 11 8 9 11 10 8 4 3 2 2 3 2 5
9 10 11 13 11 12 13 13 13 10 10 9 9 9 9 8 12 12 11 11 13 12 12 14 13 11 11 10 7 9 6 7 9 10 9 9 9 9 7 4 6 7 8
12 10 10 12 11 12 11 10 11 10 9 9 10 8 9 9 8 7 8 8 9 8 9 9 9 11 10 9 9 7 7 4 7 13 14 8 6 9 8 8 9 14 11
15 13 12 11 10 10 11 10 12 10 9 7 9 7 7 8 6 4 5 7 7 8 9 8 8 7 8 8 5 7 8 7 8 13 11 11 10 10 10 9 10 14 19
19 17 14 13 12 10 9 8 11 10 6 7 6 9 6 7 7 7 7 8 6 7 7 8 9 9 8 8 7 7 7 7 7 12 12 12 14 13 12 12 12 18 21
20 18 16 15 13 12 10 9 9 9 8 7 6 7 7 7 9 7 6 5 6 7 6 6 6 7 7 6 7 4 4 5 8 8 7 10 13 15 14 15 15 20 23

GFSSE_500_spd_111.txt.gz
Wind_Speed
11 10 16 15 13 11 11 9 12 13 12 17 20 18 15 14 14 14 15 16 15 15 15 16 16 17 19 19 18 17 17 16 15 13 13 13 14 13 14 14 12 13 14
12 12 11 14 14 12 12 10 10 11 13 17 21 20 17 16 16 16 15 17 16 16 16 17 18 18 18 17 17 17 15 15 14 14 13 14 15 15 15 15 15 16 16
12 13 14 14 16 13 16 17 11 11 18 16 17 17 15 13 14 14 14 16 16 17 17 17 19 20 18 17 16 17 16 15 16 16 15 16 16 16 16 16 16 16 16
13 12 13 14 13 11 13 13 12 12 13 12 14 15 13 12 13 12 14 15 15 17 17 17 17 19 17 17 17 17 16 16 17 15 15 17 17 17 16 16 16 15 15
13 13 12 12 12 11 10 10 9 9 8 9 9 10 10 12 13 14 13 14 14 16 18 18 19 19 18 19 17 15 17 17 15 15 15 18 18 16 15 15 15 14 14
16 15 14 13 12 11 10 8 8 7 7 7 8 9 10 10 11 11 11 13 15 15 18 20 21 19 18 18 17 17 17 16 15 16 18 18 17 15 14 14 14 13 14
18 17 15 15 15 14 12 10 7 6 6 5 5 7 7 8 10 12 13 14 15 14 18 20 20 18 17 17 18 17 15 16 17 18 18 17 16 14 13 13 13 15 15
18 17 17 17 16 15 13 12 12 11 10 9 9 11 10 9 10 11 13 15 16 17 19 20 20 19 16 16 18 15 17 17 18 17 18 17 15 14 14 14 16 16 17
16 16 17 18 17 17 15 14 14 14 14 13 13 14 13 12 14 15 17 18 17 17 19 21 21 19 18 17 17 17 20 18 17 17 17 16 16 14 15 16 16 17 17
16 16 17 18 17 16 15 15 15 14 13 13 14 14 13 15 18 17 18 19 17 17 18 20 21 18 17 18 17 18 18 17 17 17 17 16 16 16 16 16 15 14 14
17 17 17 17 16 13 13 12 14 14 13 12 12 12 13 14 18 18 18 19 19 18 19 20 21 19 17 16 17 17 17 16 16 17 17 16 16 16 16 14 13 13 13
18 18 17 17 16 14 14 17 17 17 15 11 10 12 13 13 15 16 16 18 20 20 22 22 21 19 17 16 17 17 16 15 16 16 15 15 15 15 15 14 13 14 14
17 18 18 18 18 17 19 19 19 18 15 11 9 10 14 14 15 15 16 18 21 22 23 22 22 19 18 17 16 16 15 14 15 14 15 15 18 17 17 16 14 15 14
16 16 19 18 19 18 16 17 18 17 17 15 12 11 14 14 15 14 16 19 20 22 23 22 21 20 18 17 18 17 13 13 12 13 14 17 18 20 20 18 16 16 15
13 15 15 18 20 20 19 22 19 18 20 17 19 15 14 14 14 15 17 18 20 21 23 20 22 21 18 18 18 18 15 11 10 13 15 17 18 19 19 20 18 17 16
12 13 14 16 19 19 19 18 18 21 17 19 19 21 21 10 15 18 17 19 20 21 19 19 18 18 16 17 17 18 17 13 11 12 15 16 17 17 17 18 18 17 17
11 11 11 15 15 18 19 20 21 20 20 18 20 20 19 20 19 17 17 18 20 21 17 15 15 16 15 15 15 14 13 13 13 11 14 14 13 14 16 16 16 15 14
11 10 10 12 16 14 17 19 20 17 14 15 20 19 19 19 20 15 15 18 18 16 17 14 12 12 14 13 12 11 10 9 10 10 11 10 10 10 12 12 11 10 11
12 12 10 11 14 14 15 16 18 16 14 16 17 18 20 21 18 14 18 11 18 18 16 15 13 10 12 10 8 8 8 7 7 8 6 6 7 8 6 7 8 11 14
12 11 11 10 11 12 14 14 14 16 16 17 16 16 18 19 19 16 16 17 15 16 15 13 12 12 10 8 6 5 5 7 6 6 3 1 2 4 5 9 11 12 13
12 10 10 10 12 12 15 15 14 14 15 15 14 13 15 17 17 16 13 14 15 15 15 12 12 11 10 6 4 4 4 2 2 2 3 4 3 6 6 7 10 11 12
12 12 9 9 12 12 13 15 14 13 13 11 11 12 14 14 13 14 13 13 13 14 15 15 13 11 8 8 5 2 1 4 6 4 6 5 7 7 9 9 11 11 13
12 13 10 9 10 11 12 11 13 13 12 12 9 9 10 10 12 9 10 11 11 9 9 11 12 10 9 7 5 5 6 5 6 8 8 6 7 8 10 12 14 15 19
12 13 12 10 10 11 10 11 11 11 11 10 11 11 9 7 7 8 8 8 8 9 7 7 8 8 9 8 6 8 8 10 10 9 8 7 9 11 13 14 14 17 21
14 14 14 12 10 11 10 11 11 10 11 11 9 11 10 8 6 7 7 9 7 6 6 6 7 8 8 9 9 8 8 9 8 8 9 10 10 11 14 16 17 21 24
17 16 14 13 12 10 11 12 11 10 8 9 10 10 9 9 8 8 7 7 7 7 7 6 5 7 8 9 8 8 8 10 9 7 7 8 9 14 15 16 17 21 22

GFSSE_500_spd_114.txt.gz
Wind_Speed
14 16 12 13 13 11 11 11 16 18 17 16 13 19 19 18 16 15 15 16 17 17 17 18 18 19 19 19 17 16 16 16 15 16 15 15 15 14 13 13 14 15 15
12 15 15 11 10 14 13 7 13 21 22 21 19 18 17 16 15 15 16 17 18 18 18 19 19 19 18 16 16 16 15 17 15 14 15 16 15 15 15 16 16 16 16
11 15 17 12 18 18 18 16 13 19 25 23 20 18 16 16 15 16 17 17 18 18 18 18 18 17 17 16 17 16 17 17 16 15 15 16 17 17 17 16 16 16 16
11 14 14 11 13 15 18 18 20 19 20 22 19 16 18 18 17 16 15 16 18 18 17 17 17 16 16 17 16 16 17 17 15 15 14 17 18 17 16 14 15 15 14
11 11 13 13 14 14 14 15 17 17 16 15 15 13 14 18 17 15 15 16 17 18 17 18 15 14 17 17 15 17 16 14 14 14 16 17 17 16 14 14 13 13 13
10 11 10 11 13 12 12 12 12 13 12 11 11 12 12 16 18 17 15 16 16 16 17 18 16 15 16 17 17 15 15 15 15 16 16 17 15 14 14 14 13 13 13
8 12 12 11 12 13 12 11 10 10 10 10 10 12 13 14 14 16 19 16 17 17 18 18 16 15 15 15 14 15 16 16 16 15 14 15 15 13 14 14 14 14 14
10 14 13 14 14 13 13 12 11 10 10 9 10 11 12 13 15 13 16 18 17 20 20 20 18 16 15 14 12 15 18 17 14 13 13 14 15 15 15 15 15 15 15
13 15 15 17 17 16 16 15 15 14 14 14 13 12 13 15 17 17 17 17 18 20 20 21 18 16 16 15 14 18 18 15 14 13 14 15 16 16 15 15 14 14 15
15 15 15 16 16 17 17 16 15 15 15 15 14 13 13 16 18 19 20 19 17 18 19 20 17 15 16 16 16 17 16 15 14 14 14 16 15 14 13 13 12 13 13
15 15 15 16 16 14 17 18 16 14 13 12 13 14 14 16 17 20 21 20 18 20 20 21 18 15 16 16 16 17 16 15 14 13 14 14 13 12 12 12 12 11 12
15 16 16 18 19 18 21 18 14 13 12 11 13 15 15 16 16 17 19 19 17 19 20 19 18 16 16 16 15 15 15 14 13 13 14 12 13 13 13 12 12 12 13
15 18 18 19 20 18 18 16 14 14 10 9 11 14 13 16 16 17 18 18 18 20 20 19 18 16 15 15 15 15 14 14 13 13 13 14 17 17 15 14 13 13 14
14 17 19 19 18 18 18 18 17 19 15 14 13 16 15 16 16 14 15 16 18 20 21 19 18 16 15 15 16 16 14 13 12 13 14 16 19 19 17 16 15 15 17
14 15 19 21 22 20 20 20 18 17 18 16 16 15 14 16 16 15 17 18 19 20 19 18 18 17 14 14 14 14 14 12 12 13 15 17 17 17 19 20 19 19 19
14 16 17 19 23 20 19 19 19 21 19 21 20 14 16 17 16 17 19 19 19 20 14 15 15 15 14 13 11 10 12 11 11 13 14 15 14 16 18 19 18 18 20
13 14 16 17 19 22 20 19 21 21 22 22 21 24 19 19 19 15 19 19 19 16 17 16 15 13 13 11 8 7 7 9 10 11 12 12 11 14 15 16 17 17 16
13 13 14 16 17 19 18 18 20 19 20 22 22 19 21 20 19 17 18 19 19 18 16 14 13 10 11 10 6 6 7 6 7 7 10 10 9 12 13 15 16 15 14
12 12 13 14 16 18 17 16 20 19 19 21 22 22 18 17 16 19 21 16 16 18 17 15 12 9 10 7 4 4 5 4 4 5 8 9 12 11 12 12 11 12 14
12 12 13 11 15 17 16 15 17 19 18 19 21 20 18 20 18 19 13 17 17 16 15 13 12 12 8 5 4 2 1 2 3 3 6 7 7 8 7 9 12 14 16
12 11 12 12 12 15 16 16 15 17 18 18 18 18 17 18 19 18 17 17 17 18 16 14 13 12 8 5 4 2 1 3 4 6 7 7 6 7 10 11 12 14 18
14 13 12 13 11 12 12 14 14 14 14 17 15 16 17 15 16 16 15 15 13 11 12 14 14 9 5 4 4 2 2 4 5 8 8 7 8 8 10 12 15 18 19
15 14 13 11 10 11 10 10 11 13 12 12 13 14 14 13 14 14 13 12 12 11 11 10 11 10 9 6 5 5 4 4 5 6 9 9 9 10 13 14 15 18 22
17 15 14 11 10 11 12 11 8 8 9 11 12 13 14 13 14 11 11 12 10 10 9 10 9 8 8 8 9 7 6 5 7 8 9 9 11 11 14 15 16 18 21
18 16 14 14 11 10 11 11 11 9 10 10 11 13 12 13 12 12 12 11 12 11 9 7 7 7 8 9 9 7 7 5 6 8 10 11 11 14 15 16 19 19 20
17 16 14 13 15 12 8 10 11 12 10 10 10 10 10 11 10 11 11 10 7 8 10 9 8 8 8 7 7 9 11 8 6 7 8 12 11 13 14 16 18 19 19

GFSSE_500_spd_117.txt.gz
Wind_Speed
13 16 15 11 9 5 14 14 13 16 22 26 30 26 24 20 17 17 16 16 18 18 19 18 17 17 17 16 15 15 15 15 15 16 14 13 13 12 13 14 15 15 14
15 13 11 12 12 13 12 22 27 25 25 23 19 20 21 18 16 16 16 18 19 19 20 19 19 18 14 15 15 14 16 14 16 15 14 14 14 15 16 16 16 15 14
11 13 12 15 14 16 17 18 25 25 25 24 22 20 19 17 17 16 17 19 19 19 19 20 18 17 15 15 16 15 17 16 15 15 14 16 16 16 17 16 15 14 13
11 11 11 15 18 19 23 23 23 27 24 22 20 19 19 18 18 17 18 19 19 19 19 18 17 17 15 15 15 15 15 14 14 15 16 16 16 16 15 14 14 13 12
13 11 11 14 16 18 19 22 22 20 21 19 19 20 20 19 17 16 17 17 17 18 18 17 16 18 14 15 15 13 12 13 15 15 16 16 14 14 14 14 13 13 13
14 12 12 13 15 16 18 18 18 18 17 16 14 16 19 18 16 16 16 17 17 17 16 14 16 18 16 14 12 12 13 15 16 15 14 14 13 14 15 15 14 13 13
11 13 13 13 13 14 15 16 16 16 15 14 13 16 17 18 17 17 15 17 18 17 17 16 15 15 15 13 10 13 17 17 16 14 12 13 15 15 16 15 14 14 13
11 12 14 14 13 13 14 14 13 13 14 15 15 16 17 16 16 19 17 15 17 18 17 16 15 14 12 11 11 16 17 17 15 13 13 14 16 15 14 14 15 15 13
12 12 14 14 15 15 15 16 15 14 14 13 13 15 16 15 15 21 18 16 15 17 18 15 13 14 12 14 15 16 17 16 14 13 14 15 15 14 13 12 13 13 13
12 13 14 13 15 17 16 17 17 16 14 14 12 13 15 15 16 18 20 17 16 17 17 14 13 14 15 15 16 16 17 15 14 15 15 15 13 12 10 11 11 11 12
13 13 13 12 13 16 16 17 16 15 14 14 14 14 14 16 17 17 18 16 17 18 18 14 14 16 15 15 15 16 15 15 15 15 15 13 10 8 9 10 10 11 13
14 15 14 15 16 16 15 15 14 14 13 12 13 16 16 16 18 19 17 17 18 19 17 15 16 16 15 15 15 15 15 15 14 15 13 10 8 9 10 10 13 16 16
15 17 17 18 18 15 16 15 13 13 14 14 15 16 17 17 17 18 19 16 19 20 19 16 17 17 15 15 16 15 14 14 13 13 11 10 11 14 13 15 17 18 18
14 16 18 18 18 16 17 19 17 15 16 17 18 19 18 17 18 21 22 17 20 21 18 17 18 16 15 14 16 15 13 13 12 12 11 14 20 21 21 20 20 21 21
14 16 17 18 19 19 18 16 18 17 17 19 19 19 19 19 19 20 19 19 20 19 18 16 18 16 14 13 13 13 12 11 12 10 11 16 19 20 22 22 20 19 18
14 16 19 21 21 18 19 21 18 19 19 19 21 20 19 19 20 21 19 19 20 20 17 15 15 14 12 12 10 9 10 11 10 10 13 15 16 17 19 18 17 17 17
12 15 17 17 21 22 19 20 19 20 21 18 18 21 20 18 20 20 21 21 21 18 17 14 13 12 10 12 9 8 8 9 8 11 15 14 14 15 15 15 15 15 16
12 14 15 18 18 19 18 19 20 19 19 20 20 20 19 18 20 20 21 21 19 20 18 16 13 10 9 11 8 7 6 8 7 10 12 12 11 11 12 13 14 15 17
13 13 14 15 16 18 19 18 20 20 19 18 19 20 20 18 21 22 22 20 21 20 18 16 13 9 9 9 6 5 5 7 7 7 9 9 8 9 10 11 13 15 17
15 14 15 14 15 16 18 18 20 21 21 19 19 20 19 21 24 22 20 20 21 20 18 15 13 9 8 6 4 3 5 7 7 7 5 5 5 7 8 11 13 16 19
16 17 15 15 15 15 19 18 19 21 20 19 20 20 19 22 22 15 17 18 18 17 16 15 14 10 7 5 3 3 5 4 5 5 6 6 7 9 11 12 14 16 20
14 18 17 16 13 14 15 17 18 18 18 17 18 19 18 21 19 18 19 18 16 16 15 15 15 10 6 5 3 3 1 3 1 4 5 7 9 11 12 14 16 18 20
14 17 18 16 14 13 14 14 15 15 16 16 17 15 16 17 19 18 17 16 15 13 12 14 13 11 9 6 4 3 3 4 4 5 6 8 10 13 15 15 16 18 20
17 16 18 18 15 13 14 14 14 14 13 14 14 15 14 14 14 16 17 15 13 13 12 11 11 9 7 6 5 5 6 7 6 7 9 11 13 14 16 16 17 18 19
19 17 16 16 18 15 13 14 13 13 12 13 13 12 12 11 12 12 11 12 13 13 12 11 10 8 7 7 7 5 7 9 10 9 8 11 14 16 17 17 17 18 19
20 19 18 17 16 16 13 12 12 12 13 12 12 12 12 12 10 9 10 10 9 9 9 10 10 10 9 8 8 7 8 8 9 10 11 12 14 15 15 16 16 16 14

GFSSE_500_spd_120.txt.gz
Wind_Speed
13 10 10 9 7 7 11 14 17 21 20 19 17 22 23 22 20 18 16 15 15 15 15 16 15 16 15 14 12 12 14 14 14 13 12 12 12 12 13 14 13 13 12
16 12 10 10 10 7 13 16 21 24 24 27 27 25 24 20 19 18 16 15 15 15 15 15 16 15 14 14 15 13 13 17 14 13 13 14 15 14 14 14 13 12 12
12 9 10 15 14 7 20 24 27 29 26 24 24 23 23 20 18 18 17 16 16 16 16 16 14 14 14 14 16 15 17 15 14 14 15 15 15 14 13 12 12 12 12
12 16 16 18 17 16 16 22 25 26 26 24 22 22 21 19 19 18 18 18 17 17 15 14 14 15 15 16 16 15 15 15 15 16 15 14 14 13 12 12 12 11 12
8 11 13 12 14 17 17 21 24 24 23 22 20 20 21 19 18 18 18 18 17 17 16 16 16 15 15 16 15 14 15 16 16 14 13 14 13 12 11 11 11 12 13
11 13 13 14 17 19 19 19 22 22 22 21 22 21 20 19 19 19 18 18 17 15 14 17 15 15 16 15 13 14 16 15 15 12 12 12 12 12 12 13 13 13 13
9 11 12 12 14 15 17 18 19 19 19 18 17 23 18 19 19 18 18 18 17 16 17 18 17 17 15 14 14 16 16 14 14 12 12 12 14 14 14 13 13 14 13
11 10 11 12 13 14 15 16 16 16 17 17 18 19 17 17 17 18 18 18 18 17 16 16 15 15 15 15 15 15 15 14 13 13 14 14 14 13 13 13 14 15 14
13 12 11 12 14 14 14 14 15 14 14 14 16 17 17 13 15 16 18 19 19 17 15 15 15 15 17 16 15 15 14 14 15 15 15 14 12 11 12 13 14 15 15
14 13 11 11 12 13 14 15 14 14 13 13 13 14 14 12 18 17 18 19 20 18 15 16 16 17 17 16 15 15 15 16 17 15 13 11 10 11 11 12 13 15 16
13 12 11 11 12 13 14 15 15 15 14 14 15 15 15 16 18 16 17 19 19 18 16 17 16 17 16 16 15 15 17 16 15 13 11 10 10 10 11 13 16 18 19
13 12 10 14 11 12 12 13 14 15 15 14 16 17 16 17 18 18 17 18 20 18 16 17 16 17 17 15 16 17 16 15 14 12 12 12 11 12 15 17 17 18 18
13 13 16 15 13 11 11 12 13 14 16 16 18 18 19 19 19 19 19 20 21 18 17 18 18 16 16 16 17 18 16 14 14 15 16 15 16 18 18 18 18 17 17
13 14 16 16 14 13 12 13 15 15 18 18 19 18 18 20 19 20 19 20 20 18 17 18 18 17 16 16 16 17 14 14 16 16 18 21 22 21 19 17 17 17 18
11 13 16 17 15 16 17 14 15 18 20 19 19 19 19 20 20 22 19 21 21 19 17 18 18 16 15 14 15 15 13 15 17 16 17 19 18 17 17 16 17 17 19
11 15 15 17 17 18 17 16 16 19 22 21 20 19 20 21 21 20 21 23 22 19 16 17 17 15 13 14 14 12 12 16 16 16 16 16 15 13 13 14 15 16 17
13 15 15 17 17 19 18 17 18 19 21 21 20 19 19 21 22 22 22 23 22 19 15 15 16 14 12 14 14 12 11 13 13 13 13 11 10 10 11 12 14 16 18
11 13 16 16 18 18 18 17 17 18 19 19 19 19 18 21 22 22 23 23 21 18 16 14 16 13 11 12 14 12 10 11 11 9 8 8 8 9 10 11 13 15 16
12 14 15 14 15 17 17 17 17 19 22 20 20 19 18 21 22 22 23 19 20 17 16 15 17 12 10 10 12 11 10 9 8 6 5 5 6 7 9 11 13 15 18
12 13 13 13 15 18 18 18 18 19 22 23 21 20 20 21 23 22 22 21 21 18 17 15 16 13 10 10 10 10 10 8 6 5 5 5 5 7 8 11 13 16 20
13 14 13 14 14 16 19 18 18 20 20 21 20 19 22 24 23 20 19 19 19 18 16 14 15 13 10 8 7 8 7 5 3 3 3 5 7 10 11 14 16 19 22
14 15 15 14 15 14 18 18 19 21 21 20 21 20 21 22 17 19 19 18 17 15 15 15 15 13 10 8 5 5 3 2 0 2 4 6 10 11 13 15 18 19 21
15 16 16 14 15 15 16 17 17 19 22 21 21 20 21 19 19 18 18 18 17 15 13 13 13 12 8 7 6 3 2 4 4 5 7 9 12 14 15 16 17 19 18
16 18 18 17 14 14 15 16 17 18 20 21 19 19 18 18 17 18 18 16 14 14 13 12 10 8 7 5 3 2 4 4 6 7 9 9 11 12 14 15 14 15 14
17 18 19 18 17 15 14 13 14 15 15 17 18 19 18 17 16 14 14 14 14 13 13 13 11 10 8 5 4 4 4 4 6 8 10 11 13 14 14 14 13 13 13
18 18 19 20 18 18 17 15 14 14 14 14 14 15 16 16 15 14 14 13 13 13 12 12 12 10 8 6 6 7 7 7 9 10 12 13 15 14 13 13 13 13 12

GFSSE_500_spd_123.txt.gz
Wind_Speed
9 9 8 10 9 11 9 9 18 26 22 29 26 26 23 20 18 16 14 13 12 11 12 12 13 14 13 11 10 10 10 11 11 11 10 11 13 13 13 11 10 10 10
9 7 6 7 6 9 13 14 18 23 25 21 22 23 21 20 16 15 14 14 13 13 14 14 15 14 14 13 12 12 14 12 13 12 13 14 14 13 12 11 10 9 9
7 6 8 11 6 5 15 18 19 27 25 24 23 23 22 19 17 15 15 14 15 15 16 16 13 13 14 13 13 15 15 14 14 15 14 14 12 11 10 10 10 10 10
10 10 10 10 7 4 9 22 23 25 27 28 27 23 20 19 17 17 16 15 16 16 15 14 14 15 16 14 13 14 15 15 15 15 13 11 9 9 8 9 9 11 11
7 8 9 11 12 12 19 23 24 23 24 23 22 20 20 18 18 17 17 16 16 16 15 15 15 16 15 13 14 15 16 15 15 14 11 9 9 9 9 9 11 12 12
11 10 10 13 13 15 16 21 21 23 22 22 21 21 20 19 19 18 18 16 16 16 16 15 16 16 14 13 15 17 16 15 14 12 10 10 10 11 11 11 12 12 12
10 10 10 12 13 15 16 19 19 20 21 20 20 18 18 18 19 19 18 16 16 15 19 17 16 14 15 15 16 16 14 14 14 12 11 10 11 12 12 13 13 13 13
9 10 10 10 11 12 13 14 16 17 18 17 17 17 17 17 18 19 18 17 17 20 20 18 15 15 17 17 16 15 15 15 14 12 11 11 13 13 14 16 16 15 15
8 8 8 9 10 11 12 14 14 15 14 16 19 16 16 17 17 18 19 18 18 18 17 15 14 17 18 16 16 16 16 15 14 12 11 12 12 13 14 15 16 15 15
10 7 7 8 9 10 11 13 14 15 15 16 15 14 14 17 18 18 20 19 18 18 16 15 17 18 17 17 18 17 17 15 13 11 10 11 13 14 16 16 16 15 15
10 9 9 9 10 11 12 12 13 14 14 16 16 15 12 14 21 19 19 20 18 17 17 17 18 18 18 18 18 17 15 14 12 12 12 14 15 16 17 16 15 15 14
8 9 9 8 9 10 11 13 14 15 14 16 17 16 15 22 19 20 22 20 18 17 17 18 17 17 19 18 18 17 17 15 16 17 17 18 17 16 15 14 15 16 17
9 12 13 10 8 10 9 12 13 13 13 15 18 19 18 18 20 20 22 21 18 17 17 18 17 18 19 17 19 18 18 19 20 20 20 18 16 16 16 18 19 19 19
9 11 11 9 10 11 13 13 13 14 15 16 17 18 19 20 20 20 21 22 19 17 17 18 17 18 18 18 18 18 19 20 20 20 20 18 18 18 18 18 18 18 19
7 8 8 9 11 11 12 14 16 17 17 17 19 20 22 23 21 20 22 22 18 17 17 17 17 17 17 17 18 17 18 20 18 17 16 16 16 15 15 15 16 17 17
8 9 8 8 9 10 11 13 17 19 18 18 18 20 21 21 22 19 22 22 18 17 17 16 18 16 17 17 16 16 17 18 16 14 13 12 12 12 13 14 14 14 15
9 9 10 10 10 10 11 13 19 19 17 18 18 18 20 20 22 20 22 21 19 18 17 16 17 17 17 16 14 15 14 14 12 10 9 9 10 10 10 10 11 14 15
8 9 10 11 10 11 13 14 17 18 18 17 18 18 19 20 22 22 23 22 19 18 17 15 16 15 16 15 13 12 12 10 9 7 6 7 7 8 9 10 12 14 18
11 11 10 10 9 10 12 14 17 19 18 20 19 19 20 19 20 21 22 20 17 16 16 15 15 14 14 13 13 10 10 7 5 4 4 6 7 9 10 12 14 17 19
14 12 9 8 8 9 11 14 17 20 19 20 20 20 21 21 22 22 22 20 17 15 15 15 13 12 11 12 12 10 8 6 3 2 3 4 5 7 9 12 16 17 20
14 13 10 11 9 7 9 13 19 19 20 20 21 22 23 23 24 23 20 20 18 17 9 14 12 10 10 9 8 7 6 4 2 2 3 5 7 9 11 13 16 18 19
12 13 12 11 10 10 9 11 16 18 18 20 21 23 25 23 22 22 20 19 17 16 17 15 11 8 8 7 5 4 1 1 5 7 6 8 11 12 11 11 15 17 17
14 13 14 14 11 11 10 10 12 16 16 18 21 24 23 21 21 19 19 17 16 15 14 14 16 13 5 5 6 5 5 11 5 7 3 6 6 13 15 13 13 14 11
14 15 15 15 15 13 11 12 13 14 16 17 19 21 20 17 17 17 17 16 15 14 14 14 13 12 11 7 6 5 6 6 6 18 9 10 12 13 16 13 10 9 7
14 15 16 16 16 17 15 12 12 14 14 17 17 18 19 18 17 17 17 16 14 13 12 12 11 9 8 8 7 13 5 5 6 8 15 19 6 15 11 10 10 9 5
17 14 16 17 17 18 18 15 14 13 13 12 14 15 16 17 16 16 15 14 14 13 11 11 10 9 10 10 8 8 8 9 10 10 10 11 6 10 11 9 6 8 10